<?xml version="1.0" encoding="UTF-8" standalone="no" ?>
<gpx xmlns="http://www.topografix.com/GPX/1/1" xmlns:xsi="http://www.w3.org/2001/XMLSchema-instance" xsi:schemaLocation="http://www.topografix.com/GPX/1/1 http://www.topografix.com/GPX/1/1/gpx.xsd" version="1.1" creator="VisuGPX - https://www.visugpx.com">
  <metadata>
    <name>La Roquebrussanne - vallon du Cendrier</name>
    <desc><![CDATA[boucle au départ de La Roquebrussane retour par le Cendrier]]></desc>
  </metadata>
  <trk>
    <name><![CDATA[2013-12-01 La Roquebrussane]]></name>
    <trkseg>
      <trkpt lat="43.33752" lon="5.97718">
        <ele>360.14453125</ele>
        <time>2013-12-01T13:24:38Z</time>
      </trkpt>
      <trkpt lat="43.33753" lon="5.97719">
        <ele>360.1484375</ele>
        <time>2013-12-01T13:24:39Z</time>
      </trkpt>
      <trkpt lat="43.33753" lon="5.97719">
        <ele>360.1640625</ele>
        <time>2013-12-01T13:24:40Z</time>
      </trkpt>
      <trkpt lat="43.33753" lon="5.97716">
        <ele>360.15625</ele>
        <time>2013-12-01T13:24:49Z</time>
      </trkpt>
      <trkpt lat="43.33753" lon="5.97716">
        <ele>360.1640625</ele>
        <time>2013-12-01T13:24:50Z</time>
      </trkpt>
      <trkpt lat="43.33753" lon="5.97717">
        <ele>360.171875</ele>
        <time>2013-12-01T13:24:53Z</time>
      </trkpt>
      <trkpt lat="43.33757" lon="5.97719">
        <ele>360.3203125</ele>
        <time>2013-12-01T13:25:09Z</time>
      </trkpt>
      <trkpt lat="43.33758" lon="5.9772">
        <ele>360.3671875</ele>
        <time>2013-12-01T13:25:21Z</time>
      </trkpt>
      <trkpt lat="43.33758" lon="5.97722">
        <ele>360.46875</ele>
        <time>2013-12-01T13:25:38Z</time>
      </trkpt>
      <trkpt lat="43.33758" lon="5.97723">
        <ele>360.47265625</ele>
        <time>2013-12-01T13:25:49Z</time>
      </trkpt>
      <trkpt lat="43.33753" lon="5.97723">
        <ele>360.3359375</ele>
        <time>2013-12-01T13:25:54Z</time>
      </trkpt>
      <trkpt lat="43.33728" lon="5.97743">
        <ele>360.2265625</ele>
        <time>2013-12-01T13:26:06Z</time>
      </trkpt>
      <trkpt lat="43.33724" lon="5.9775">
        <ele>360.24609375</ele>
        <time>2013-12-01T13:26:09Z</time>
      </trkpt>
      <trkpt lat="43.33725" lon="5.97753">
        <ele>360.38671875</ele>
        <time>2013-12-01T13:26:10Z</time>
      </trkpt>
      <trkpt lat="43.33727" lon="5.97756">
        <ele>360.54296875</ele>
        <time>2013-12-01T13:26:11Z</time>
      </trkpt>
      <trkpt lat="43.33729" lon="5.97758">
        <ele>360.703125</ele>
        <time>2013-12-01T13:26:12Z</time>
      </trkpt>
      <trkpt lat="43.33732" lon="5.9776">
        <ele>360.8671875</ele>
        <time>2013-12-01T13:26:13Z</time>
      </trkpt>
      <trkpt lat="43.33761" lon="5.97776">
        <ele>363.99609375</ele>
        <time>2013-12-01T13:26:26Z</time>
      </trkpt>
      <trkpt lat="43.33774" lon="5.97791">
        <ele>367.4921875</ele>
        <time>2013-12-01T13:26:38Z</time>
      </trkpt>
      <trkpt lat="43.33773" lon="5.97793">
        <ele>367.45703125</ele>
        <time>2013-12-01T13:26:39Z</time>
      </trkpt>
      <trkpt lat="43.33751" lon="5.97815">
        <ele>365.78125</ele>
        <time>2013-12-01T13:26:50Z</time>
      </trkpt>
      <trkpt lat="43.3372" lon="5.97849">
        <ele>364.265625</ele>
        <time>2013-12-01T13:27:01Z</time>
      </trkpt>
      <trkpt lat="43.33711" lon="5.9786">
        <ele>363.8125</ele>
        <time>2013-12-01T13:27:04Z</time>
      </trkpt>
      <trkpt lat="43.33709" lon="5.97864">
        <ele>363.62890625</ele>
        <time>2013-12-01T13:27:05Z</time>
      </trkpt>
      <trkpt lat="43.33676" lon="5.97897">
        <ele>361.58984375</ele>
        <time>2013-12-01T13:27:15Z</time>
      </trkpt>
      <trkpt lat="43.33635" lon="5.97938">
        <ele>359.80078125</ele>
        <time>2013-12-01T13:27:27Z</time>
      </trkpt>
      <trkpt lat="43.33627" lon="5.97959">
        <ele>360.2578125</ele>
        <time>2013-12-01T13:27:32Z</time>
      </trkpt>
      <trkpt lat="43.33628" lon="5.97963">
        <ele>360.47265625</ele>
        <time>2013-12-01T13:27:33Z</time>
      </trkpt>
      <trkpt lat="43.3363" lon="5.97967">
        <ele>360.6875</ele>
        <time>2013-12-01T13:27:34Z</time>
      </trkpt>
      <trkpt lat="43.33643" lon="5.97988">
        <ele>363.26171875</ele>
        <time>2013-12-01T13:27:42Z</time>
      </trkpt>
      <trkpt lat="43.33644" lon="5.97986">
        <ele>363.296875</ele>
        <time>2013-12-01T13:27:43Z</time>
      </trkpt>
      <trkpt lat="43.33642" lon="5.97983">
        <ele>362.7109375</ele>
        <time>2013-12-01T13:27:45Z</time>
      </trkpt>
      <trkpt lat="43.3364" lon="5.9798">
        <ele>362.2578125</ele>
        <time>2013-12-01T13:27:46Z</time>
      </trkpt>
      <trkpt lat="43.3363" lon="5.97958">
        <ele>360.3203125</ele>
        <time>2013-12-01T13:27:54Z</time>
      </trkpt>
      <trkpt lat="43.33627" lon="5.97959">
        <ele>360.29296875</ele>
        <time>2013-12-01T13:27:58Z</time>
      </trkpt>
      <trkpt lat="43.33625" lon="5.9796">
        <ele>360.24609375</ele>
        <time>2013-12-01T13:27:59Z</time>
      </trkpt>
      <trkpt lat="43.33623" lon="5.9796">
        <ele>360.1640625</ele>
        <time>2013-12-01T13:28:00Z</time>
      </trkpt>
      <trkpt lat="43.3362" lon="5.97961">
        <ele>360.0859375</ele>
        <time>2013-12-01T13:28:01Z</time>
      </trkpt>
      <trkpt lat="43.33618" lon="5.97963">
        <ele>360.078125</ele>
        <time>2013-12-01T13:28:02Z</time>
      </trkpt>
      <trkpt lat="43.33616" lon="5.97965">
        <ele>360.09765625</ele>
        <time>2013-12-01T13:28:03Z</time>
      </trkpt>
      <trkpt lat="43.33614" lon="5.97969">
        <ele>360.1328125</ele>
        <time>2013-12-01T13:28:04Z</time>
      </trkpt>
      <trkpt lat="43.33572" lon="5.98033">
        <ele>359.828125</ele>
        <time>2013-12-01T13:28:19Z</time>
      </trkpt>
      <trkpt lat="43.33522" lon="5.98098">
        <ele>358.609375</ele>
        <time>2013-12-01T13:28:34Z</time>
      </trkpt>
      <trkpt lat="43.33462" lon="5.98198">
        <ele>355.7578125</ele>
        <time>2013-12-01T13:28:54Z</time>
      </trkpt>
      <trkpt lat="43.33462" lon="5.98204">
        <ele>355.53125</ele>
        <time>2013-12-01T13:28:55Z</time>
      </trkpt>
      <trkpt lat="43.33464" lon="5.98211">
        <ele>355.2890625</ele>
        <time>2013-12-01T13:28:56Z</time>
      </trkpt>
      <trkpt lat="43.33467" lon="5.98217">
        <ele>355.07421875</ele>
        <time>2013-12-01T13:28:57Z</time>
      </trkpt>
      <trkpt lat="43.33471" lon="5.98222">
        <ele>355.1328125</ele>
        <time>2013-12-01T13:28:58Z</time>
      </trkpt>
      <trkpt lat="43.33474" lon="5.98228">
        <ele>355.40234375</ele>
        <time>2013-12-01T13:28:59Z</time>
      </trkpt>
      <trkpt lat="43.33517" lon="5.98323">
        <ele>359.25390625</ele>
        <time>2013-12-01T13:29:17Z</time>
      </trkpt>
      <trkpt lat="43.33539" lon="5.98405">
        <ele>360.8203125</ele>
        <time>2013-12-01T13:29:31Z</time>
      </trkpt>
      <trkpt lat="43.33571" lon="5.98514">
        <ele>357.6796875</ele>
        <time>2013-12-01T13:29:50Z</time>
      </trkpt>
      <trkpt lat="43.33599" lon="5.98616">
        <ele>355.421875</ele>
        <time>2013-12-01T13:30:07Z</time>
      </trkpt>
      <trkpt lat="43.33623" lon="5.98722">
        <ele>354.48046875</ele>
        <time>2013-12-01T13:30:24Z</time>
      </trkpt>
      <trkpt lat="43.33625" lon="5.98727">
        <ele>354.5703125</ele>
        <time>2013-12-01T13:30:25Z</time>
      </trkpt>
      <trkpt lat="43.33628" lon="5.98732">
        <ele>354.6796875</ele>
        <time>2013-12-01T13:30:26Z</time>
      </trkpt>
      <trkpt lat="43.33632" lon="5.98737">
        <ele>354.8046875</ele>
        <time>2013-12-01T13:30:27Z</time>
      </trkpt>
      <trkpt lat="43.33636" lon="5.9874">
        <ele>354.94921875</ele>
        <time>2013-12-01T13:30:28Z</time>
      </trkpt>
      <trkpt lat="43.3364" lon="5.98742">
        <ele>355.125</ele>
        <time>2013-12-01T13:30:29Z</time>
      </trkpt>
      <trkpt lat="43.33645" lon="5.98744">
        <ele>355.30078125</ele>
        <time>2013-12-01T13:30:30Z</time>
      </trkpt>
      <trkpt lat="43.3365" lon="5.98745">
        <ele>355.47265625</ele>
        <time>2013-12-01T13:30:31Z</time>
      </trkpt>
      <trkpt lat="43.33655" lon="5.98745">
        <ele>355.65625</ele>
        <time>2013-12-01T13:30:32Z</time>
      </trkpt>
      <trkpt lat="43.33668" lon="5.98745">
        <ele>356.16015625</ele>
        <time>2013-12-01T13:30:35Z</time>
      </trkpt>
      <trkpt lat="43.33722" lon="5.98752">
        <ele>358.82421875</ele>
        <time>2013-12-01T13:30:49Z</time>
      </trkpt>
      <trkpt lat="43.3373" lon="5.98753">
        <ele>359.10546875</ele>
        <time>2013-12-01T13:30:52Z</time>
      </trkpt>
      <trkpt lat="43.33766" lon="5.98745">
        <ele>361.27734375</ele>
        <time>2013-12-01T13:31:08Z</time>
      </trkpt>
      <trkpt lat="43.33791" lon="5.98733">
        <ele>363.01171875</ele>
        <time>2013-12-01T13:31:21Z</time>
      </trkpt>
      <trkpt lat="43.33819" lon="5.98716">
        <ele>365.19140625</ele>
        <time>2013-12-01T13:31:34Z</time>
      </trkpt>
      <trkpt lat="43.33851" lon="5.98701">
        <ele>368.0234375</ele>
        <time>2013-12-01T13:31:49Z</time>
      </trkpt>
      <trkpt lat="43.33874" lon="5.98699">
        <ele>369.390625</ele>
        <time>2013-12-01T13:31:58Z</time>
      </trkpt>
      <trkpt lat="43.33908" lon="5.98725">
        <ele>370.75390625</ele>
        <time>2013-12-01T13:32:13Z</time>
      </trkpt>
      <trkpt lat="43.33915" lon="5.98764">
        <ele>370.99609375</ele>
        <time>2013-12-01T13:32:24Z</time>
      </trkpt>
      <trkpt lat="43.33926" lon="5.9882">
        <ele>372</ele>
        <time>2013-12-01T13:32:40Z</time>
      </trkpt>
      <trkpt lat="43.33956" lon="5.98864">
        <ele>373.73828125</ele>
        <time>2013-12-01T13:32:54Z</time>
      </trkpt>
      <trkpt lat="43.33956" lon="5.98924">
        <ele>374.671875</ele>
        <time>2013-12-01T13:33:06Z</time>
      </trkpt>
      <trkpt lat="43.33952" lon="5.98976">
        <ele>375.76953125</ele>
        <time>2013-12-01T13:33:15Z</time>
      </trkpt>
      <trkpt lat="43.33953" lon="5.98988">
        <ele>376.42578125</ele>
        <time>2013-12-01T13:33:17Z</time>
      </trkpt>
      <trkpt lat="43.33954" lon="5.99004">
        <ele>377.390625</ele>
        <time>2013-12-01T13:33:20Z</time>
      </trkpt>
      <trkpt lat="43.33955" lon="5.99009">
        <ele>377.72265625</ele>
        <time>2013-12-01T13:33:21Z</time>
      </trkpt>
      <trkpt lat="43.33965" lon="5.99088">
        <ele>387.3515625</ele>
        <time>2013-12-01T13:33:38Z</time>
      </trkpt>
      <trkpt lat="43.33962" lon="5.99136">
        <ele>391.17578125</ele>
        <time>2013-12-01T13:33:51Z</time>
      </trkpt>
      <trkpt lat="43.33956" lon="5.99213">
        <ele>389.81640625</ele>
        <time>2013-12-01T13:34:11Z</time>
      </trkpt>
      <trkpt lat="43.33951" lon="5.99263">
        <ele>386.9765625</ele>
        <time>2013-12-01T13:34:23Z</time>
      </trkpt>
      <trkpt lat="43.33938" lon="5.9932">
        <ele>382.80859375</ele>
        <time>2013-12-01T13:34:35Z</time>
      </trkpt>
      <trkpt lat="43.33938" lon="5.99324">
        <ele>382.609375</ele>
        <time>2013-12-01T13:34:37Z</time>
      </trkpt>
      <trkpt lat="43.33938" lon="5.99326">
        <ele>382.5859375</ele>
        <time>2013-12-01T13:34:38Z</time>
      </trkpt>
      <trkpt lat="43.33939" lon="5.99329">
        <ele>382.59375</ele>
        <time>2013-12-01T13:34:39Z</time>
      </trkpt>
      <trkpt lat="43.33942" lon="5.99361">
        <ele>382.77734375</ele>
        <time>2013-12-01T13:34:51Z</time>
      </trkpt>
      <trkpt lat="43.33946" lon="5.9937">
        <ele>383</ele>
        <time>2013-12-01T13:35:05Z</time>
      </trkpt>
      <trkpt lat="43.33948" lon="5.9937">
        <ele>383.2265625</ele>
        <time>2013-12-01T13:35:06Z</time>
      </trkpt>
      <trkpt lat="43.3395" lon="5.99369">
        <ele>383.49609375</ele>
        <time>2013-12-01T13:35:07Z</time>
      </trkpt>
      <trkpt lat="43.33952" lon="5.99368">
        <ele>383.72265625</ele>
        <time>2013-12-01T13:35:08Z</time>
      </trkpt>
      <trkpt lat="43.33953" lon="5.99368">
        <ele>383.90234375</ele>
        <time>2013-12-01T13:35:09Z</time>
      </trkpt>
      <trkpt lat="43.33955" lon="5.99368">
        <ele>384.06640625</ele>
        <time>2013-12-01T13:35:10Z</time>
      </trkpt>
      <trkpt lat="43.33962" lon="5.99367">
        <ele>384.9453125</ele>
        <time>2013-12-01T13:35:21Z</time>
      </trkpt>
      <trkpt lat="43.3396" lon="5.99366">
        <ele>384.7890625</ele>
        <time>2013-12-01T13:35:22Z</time>
      </trkpt>
      <trkpt lat="43.33959" lon="5.99366">
        <ele>384.60546875</ele>
        <time>2013-12-01T13:35:23Z</time>
      </trkpt>
      <trkpt lat="43.33947" lon="5.99367">
        <ele>383.171875</ele>
        <time>2013-12-01T13:35:29Z</time>
      </trkpt>
      <trkpt lat="43.33941" lon="5.99332">
        <ele>382.82421875</ele>
        <time>2013-12-01T13:35:42Z</time>
      </trkpt>
      <trkpt lat="43.33938" lon="5.99326">
        <ele>382.59765625</ele>
        <time>2013-12-01T13:35:44Z</time>
      </trkpt>
      <trkpt lat="43.33936" lon="5.99327">
        <ele>382.30078125</ele>
        <time>2013-12-01T13:35:45Z</time>
      </trkpt>
      <trkpt lat="43.33934" lon="5.9933">
        <ele>382.06640625</ele>
        <time>2013-12-01T13:35:46Z</time>
      </trkpt>
      <trkpt lat="43.33933" lon="5.99334">
        <ele>381.984375</ele>
        <time>2013-12-01T13:35:47Z</time>
      </trkpt>
      <trkpt lat="43.33933" lon="5.99338">
        <ele>381.9140625</ele>
        <time>2013-12-01T13:35:48Z</time>
      </trkpt>
      <trkpt lat="43.33938" lon="5.99386">
        <ele>381.453125</ele>
        <time>2013-12-01T13:35:59Z</time>
      </trkpt>
      <trkpt lat="43.33949" lon="5.99435">
        <ele>382.90234375</ele>
        <time>2013-12-01T13:36:11Z</time>
      </trkpt>
      <trkpt lat="43.33963" lon="5.99483">
        <ele>383.44921875</ele>
        <time>2013-12-01T13:36:25Z</time>
      </trkpt>
      <trkpt lat="43.33983" lon="5.99551">
        <ele>383.37890625</ele>
        <time>2013-12-01T13:36:41Z</time>
      </trkpt>
      <trkpt lat="43.34006" lon="5.99616">
        <ele>383.76171875</ele>
        <time>2013-12-01T13:36:56Z</time>
      </trkpt>
      <trkpt lat="43.34031" lon="5.99669">
        <ele>384.078125</ele>
        <time>2013-12-01T13:37:10Z</time>
      </trkpt>
      <trkpt lat="43.34057" lon="5.99718">
        <ele>382.25</ele>
        <time>2013-12-01T13:37:25Z</time>
      </trkpt>
      <trkpt lat="43.34073" lon="5.99737">
        <ele>381.765625</ele>
        <time>2013-12-01T13:37:31Z</time>
      </trkpt>
      <trkpt lat="43.34132" lon="5.99785">
        <ele>383.5546875</ele>
        <time>2013-12-01T13:37:45Z</time>
      </trkpt>
      <trkpt lat="43.34135" lon="5.9979">
        <ele>383.81640625</ele>
        <time>2013-12-01T13:37:46Z</time>
      </trkpt>
      <trkpt lat="43.34137" lon="5.99796">
        <ele>383.96484375</ele>
        <time>2013-12-01T13:37:47Z</time>
      </trkpt>
      <trkpt lat="43.34137" lon="5.99802">
        <ele>384.0546875</ele>
        <time>2013-12-01T13:37:48Z</time>
      </trkpt>
      <trkpt lat="43.34138" lon="5.99808">
        <ele>384.2890625</ele>
        <time>2013-12-01T13:37:49Z</time>
      </trkpt>
      <trkpt lat="43.34138" lon="5.99813">
        <ele>384.4921875</ele>
        <time>2013-12-01T13:37:50Z</time>
      </trkpt>
      <trkpt lat="43.34138" lon="5.99819">
        <ele>384.7109375</ele>
        <time>2013-12-01T13:37:51Z</time>
      </trkpt>
      <trkpt lat="43.34139" lon="5.99825">
        <ele>384.98046875</ele>
        <time>2013-12-01T13:37:52Z</time>
      </trkpt>
      <trkpt lat="43.3414" lon="5.9983">
        <ele>385.2578125</ele>
        <time>2013-12-01T13:37:53Z</time>
      </trkpt>
      <trkpt lat="43.34141" lon="5.99836">
        <ele>385.55859375</ele>
        <time>2013-12-01T13:37:54Z</time>
      </trkpt>
      <trkpt lat="43.34143" lon="5.99841">
        <ele>385.84765625</ele>
        <time>2013-12-01T13:37:55Z</time>
      </trkpt>
      <trkpt lat="43.34144" lon="5.99846">
        <ele>386.1328125</ele>
        <time>2013-12-01T13:37:56Z</time>
      </trkpt>
      <trkpt lat="43.34146" lon="5.99864">
        <ele>386.9453125</ele>
        <time>2013-12-01T13:38:00Z</time>
      </trkpt>
      <trkpt lat="43.34145" lon="5.99868">
        <ele>386.953125</ele>
        <time>2013-12-01T13:38:01Z</time>
      </trkpt>
      <trkpt lat="43.34142" lon="5.9987">
        <ele>386.84375</ele>
        <time>2013-12-01T13:38:02Z</time>
      </trkpt>
      <trkpt lat="43.34138" lon="5.99872">
        <ele>386.66015625</ele>
        <time>2013-12-01T13:38:03Z</time>
      </trkpt>
      <trkpt lat="43.34135" lon="5.99874">
        <ele>386.46484375</ele>
        <time>2013-12-01T13:38:04Z</time>
      </trkpt>
      <trkpt lat="43.3412" lon="5.99889">
        <ele>385.89453125</ele>
        <time>2013-12-01T13:38:09Z</time>
      </trkpt>
      <trkpt lat="43.34118" lon="5.99894">
        <ele>385.9921875</ele>
        <time>2013-12-01T13:38:10Z</time>
      </trkpt>
      <trkpt lat="43.34118" lon="5.999">
        <ele>386.21875</ele>
        <time>2013-12-01T13:38:11Z</time>
      </trkpt>
      <trkpt lat="43.3412" lon="5.99905">
        <ele>386.5078125</ele>
        <time>2013-12-01T13:38:12Z</time>
      </trkpt>
      <trkpt lat="43.34122" lon="5.99909">
        <ele>386.83203125</ele>
        <time>2013-12-01T13:38:13Z</time>
      </trkpt>
      <trkpt lat="43.34125" lon="5.99912">
        <ele>387.15234375</ele>
        <time>2013-12-01T13:38:14Z</time>
      </trkpt>
      <trkpt lat="43.34128" lon="5.99916">
        <ele>387.46484375</ele>
        <time>2013-12-01T13:38:15Z</time>
      </trkpt>
      <trkpt lat="43.34131" lon="5.99919">
        <ele>387.77734375</ele>
        <time>2013-12-01T13:38:16Z</time>
      </trkpt>
      <trkpt lat="43.34148" lon="5.99971">
        <ele>389.8046875</ele>
        <time>2013-12-01T13:38:31Z</time>
      </trkpt>
      <trkpt lat="43.34151" lon="6.00021">
        <ele>390.96484375</ele>
        <time>2013-12-01T13:38:43Z</time>
      </trkpt>
      <trkpt lat="43.34149" lon="6.00074">
        <ele>392.24609375</ele>
        <time>2013-12-01T13:38:55Z</time>
      </trkpt>
      <trkpt lat="43.34144" lon="6.00136">
        <ele>393.5234375</ele>
        <time>2013-12-01T13:39:09Z</time>
      </trkpt>
      <trkpt lat="43.34136" lon="6.00199">
        <ele>395.51171875</ele>
        <time>2013-12-01T13:39:24Z</time>
      </trkpt>
      <trkpt lat="43.34143" lon="6.00257">
        <ele>397.9921875</ele>
        <time>2013-12-01T13:39:39Z</time>
      </trkpt>
      <trkpt lat="43.34154" lon="6.0031">
        <ele>399.703125</ele>
        <time>2013-12-01T13:39:51Z</time>
      </trkpt>
      <trkpt lat="43.34153" lon="6.00314">
        <ele>399.828125</ele>
        <time>2013-12-01T13:39:52Z</time>
      </trkpt>
      <trkpt lat="43.34151" lon="6.00317">
        <ele>399.8828125</ele>
        <time>2013-12-01T13:39:53Z</time>
      </trkpt>
      <trkpt lat="43.34149" lon="6.00321">
        <ele>399.97265625</ele>
        <time>2013-12-01T13:39:54Z</time>
      </trkpt>
      <trkpt lat="43.34147" lon="6.00324">
        <ele>400.0859375</ele>
        <time>2013-12-01T13:39:55Z</time>
      </trkpt>
      <trkpt lat="43.34143" lon="6.00352">
        <ele>401.2421875</ele>
        <time>2013-12-01T13:40:06Z</time>
      </trkpt>
      <trkpt lat="43.3415" lon="6.00363">
        <ele>402.3125</ele>
        <time>2013-12-01T13:40:15Z</time>
      </trkpt>
      <trkpt lat="43.34167" lon="6.00383">
        <ele>405.0078125</ele>
        <time>2013-12-01T13:40:29Z</time>
      </trkpt>
      <trkpt lat="43.34186" lon="6.00393">
        <ele>406.4296875</ele>
        <time>2013-12-01T13:40:42Z</time>
      </trkpt>
      <trkpt lat="43.34199" lon="6.00406">
        <ele>408.0234375</ele>
        <time>2013-12-01T13:40:52Z</time>
      </trkpt>
      <trkpt lat="43.34214" lon="6.00428">
        <ele>410.6484375</ele>
        <time>2013-12-01T13:41:06Z</time>
      </trkpt>
      <trkpt lat="43.34232" lon="6.00453">
        <ele>414.4453125</ele>
        <time>2013-12-01T13:41:22Z</time>
      </trkpt>
      <trkpt lat="43.34261" lon="6.00438">
        <ele>414.3203125</ele>
        <time>2013-12-01T13:41:31Z</time>
      </trkpt>
      <trkpt lat="43.34263" lon="6.00437">
        <ele>414.3359375</ele>
        <time>2013-12-01T13:41:32Z</time>
      </trkpt>
      <trkpt lat="43.34284" lon="6.00448">
        <ele>416.82421875</ele>
        <time>2013-12-01T13:41:43Z</time>
      </trkpt>
      <trkpt lat="43.34296" lon="6.00457">
        <ele>418.8125</ele>
        <time>2013-12-01T13:41:54Z</time>
      </trkpt>
      <trkpt lat="43.34298" lon="6.00457">
        <ele>418.83203125</ele>
        <time>2013-12-01T13:41:55Z</time>
      </trkpt>
      <trkpt lat="43.34299" lon="6.00457">
        <ele>418.98046875</ele>
        <time>2013-12-01T13:41:56Z</time>
      </trkpt>
      <trkpt lat="43.34301" lon="6.00458">
        <ele>419.1328125</ele>
        <time>2013-12-01T13:41:57Z</time>
      </trkpt>
      <trkpt lat="43.34302" lon="6.00458">
        <ele>419.3203125</ele>
        <time>2013-12-01T13:41:58Z</time>
      </trkpt>
      <trkpt lat="43.34303" lon="6.0046">
        <ele>419.58984375</ele>
        <time>2013-12-01T13:41:59Z</time>
      </trkpt>
      <trkpt lat="43.34304" lon="6.00461">
        <ele>419.83203125</ele>
        <time>2013-12-01T13:42:00Z</time>
      </trkpt>
      <trkpt lat="43.34306" lon="6.00461">
        <ele>420.11328125</ele>
        <time>2013-12-01T13:42:01Z</time>
      </trkpt>
      <trkpt lat="43.34307" lon="6.00462">
        <ele>420.44140625</ele>
        <time>2013-12-01T13:42:02Z</time>
      </trkpt>
      <trkpt lat="43.34309" lon="6.00463">
        <ele>420.6484375</ele>
        <time>2013-12-01T13:42:03Z</time>
      </trkpt>
      <trkpt lat="43.3431" lon="6.00463">
        <ele>420.83984375</ele>
        <time>2013-12-01T13:42:04Z</time>
      </trkpt>
      <trkpt lat="43.34312" lon="6.00463">
        <ele>421.0703125</ele>
        <time>2013-12-01T13:42:05Z</time>
      </trkpt>
      <trkpt lat="43.34334" lon="6.00469">
        <ele>424.76953125</ele>
        <time>2013-12-01T13:42:18Z</time>
      </trkpt>
      <trkpt lat="43.34338" lon="6.0047">
        <ele>425.51953125</ele>
        <time>2013-12-01T13:42:21Z</time>
      </trkpt>
      <trkpt lat="43.34339" lon="6.0047">
        <ele>425.8671875</ele>
        <time>2013-12-01T13:42:22Z</time>
      </trkpt>
      <trkpt lat="43.34341" lon="6.00471">
        <ele>426.2578125</ele>
        <time>2013-12-01T13:42:23Z</time>
      </trkpt>
      <trkpt lat="43.34343" lon="6.00471">
        <ele>426.6015625</ele>
        <time>2013-12-01T13:42:24Z</time>
      </trkpt>
      <trkpt lat="43.34344" lon="6.00471">
        <ele>426.79296875</ele>
        <time>2013-12-01T13:42:25Z</time>
      </trkpt>
      <trkpt lat="43.34346" lon="6.00471">
        <ele>427.02734375</ele>
        <time>2013-12-01T13:42:26Z</time>
      </trkpt>
      <trkpt lat="43.34348" lon="6.00471">
        <ele>427.265625</ele>
        <time>2013-12-01T13:42:27Z</time>
      </trkpt>
      <trkpt lat="43.34349" lon="6.00472">
        <ele>427.57421875</ele>
        <time>2013-12-01T13:42:28Z</time>
      </trkpt>
      <trkpt lat="43.3435" lon="6.00472">
        <ele>427.92578125</ele>
        <time>2013-12-01T13:42:29Z</time>
      </trkpt>
      <trkpt lat="43.34373" lon="6.00474">
        <ele>431.41796875</ele>
        <time>2013-12-01T13:42:43Z</time>
      </trkpt>
      <trkpt lat="43.34397" lon="6.00468">
        <ele>432.7890625</ele>
        <time>2013-12-01T13:42:57Z</time>
      </trkpt>
      <trkpt lat="43.34425" lon="6.00455">
        <ele>433.19921875</ele>
        <time>2013-12-01T13:43:13Z</time>
      </trkpt>
      <trkpt lat="43.34447" lon="6.00445">
        <ele>434.2265625</ele>
        <time>2013-12-01T13:43:27Z</time>
      </trkpt>
      <trkpt lat="43.34474" lon="6.00433">
        <ele>437.48046875</ele>
        <time>2013-12-01T13:43:42Z</time>
      </trkpt>
      <trkpt lat="43.3449" lon="6.00424">
        <ele>438.2421875</ele>
        <time>2013-12-01T13:43:48Z</time>
      </trkpt>
      <trkpt lat="43.34495" lon="6.00418">
        <ele>437.84375</ele>
        <time>2013-12-01T13:43:51Z</time>
      </trkpt>
      <trkpt lat="43.34497" lon="6.00418">
        <ele>438.15234375</ele>
        <time>2013-12-01T13:43:52Z</time>
      </trkpt>
      <trkpt lat="43.345" lon="6.00418">
        <ele>438.7890625</ele>
        <time>2013-12-01T13:43:53Z</time>
      </trkpt>
      <trkpt lat="43.34502" lon="6.00419">
        <ele>439.34765625</ele>
        <time>2013-12-01T13:43:54Z</time>
      </trkpt>
      <trkpt lat="43.34504" lon="6.00419">
        <ele>439.89453125</ele>
        <time>2013-12-01T13:43:55Z</time>
      </trkpt>
      <trkpt lat="43.34505" lon="6.00419">
        <ele>440.296875</ele>
        <time>2013-12-01T13:43:56Z</time>
      </trkpt>
      <trkpt lat="43.34507" lon="6.00419">
        <ele>440.74609375</ele>
        <time>2013-12-01T13:43:57Z</time>
      </trkpt>
      <trkpt lat="43.34509" lon="6.0042">
        <ele>441.1796875</ele>
        <time>2013-12-01T13:43:58Z</time>
      </trkpt>
      <trkpt lat="43.34511" lon="6.00419">
        <ele>441.55078125</ele>
        <time>2013-12-01T13:43:59Z</time>
      </trkpt>
      <trkpt lat="43.34513" lon="6.00419">
        <ele>441.8125</ele>
        <time>2013-12-01T13:44:00Z</time>
      </trkpt>
      <trkpt lat="43.34514" lon="6.00418">
        <ele>441.9296875</ele>
        <time>2013-12-01T13:44:01Z</time>
      </trkpt>
      <trkpt lat="43.34516" lon="6.00417">
        <ele>442.05859375</ele>
        <time>2013-12-01T13:44:02Z</time>
      </trkpt>
      <trkpt lat="43.34536" lon="6.00409">
        <ele>443.9296875</ele>
        <time>2013-12-01T13:44:13Z</time>
      </trkpt>
      <trkpt lat="43.34557" lon="6.00386">
        <ele>442.7421875</ele>
        <time>2013-12-01T13:44:28Z</time>
      </trkpt>
      <trkpt lat="43.34558" lon="6.00384">
        <ele>442.70703125</ele>
        <time>2013-12-01T13:44:29Z</time>
      </trkpt>
      <trkpt lat="43.34562" lon="6.00381">
        <ele>443.19921875</ele>
        <time>2013-12-01T13:44:31Z</time>
      </trkpt>
      <trkpt lat="43.34564" lon="6.0038">
        <ele>443.40234375</ele>
        <time>2013-12-01T13:44:32Z</time>
      </trkpt>
      <trkpt lat="43.34575" lon="6.00377">
        <ele>444.83203125</ele>
        <time>2013-12-01T13:44:40Z</time>
      </trkpt>
      <trkpt lat="43.3458" lon="6.00377">
        <ele>445.6328125</ele>
        <time>2013-12-01T13:44:45Z</time>
      </trkpt>
      <trkpt lat="43.34582" lon="6.00377">
        <ele>445.76171875</ele>
        <time>2013-12-01T13:44:46Z</time>
      </trkpt>
      <trkpt lat="43.34594" lon="6.0038">
        <ele>446.77734375</ele>
        <time>2013-12-01T13:44:56Z</time>
      </trkpt>
      <trkpt lat="43.34595" lon="6.00381">
        <ele>446.87890625</ele>
        <time>2013-12-01T13:44:57Z</time>
      </trkpt>
      <trkpt lat="43.34596" lon="6.00382">
        <ele>446.984375</ele>
        <time>2013-12-01T13:44:58Z</time>
      </trkpt>
      <trkpt lat="43.34611" lon="6.00393">
        <ele>450.0546875</ele>
        <time>2013-12-01T13:45:12Z</time>
      </trkpt>
      <trkpt lat="43.34617" lon="6.00395">
        <ele>450.90234375</ele>
        <time>2013-12-01T13:45:17Z</time>
      </trkpt>
      <trkpt lat="43.34622" lon="6.00397">
        <ele>451.37890625</ele>
        <time>2013-12-01T13:45:21Z</time>
      </trkpt>
      <trkpt lat="43.34642" lon="6.00395">
        <ele>452.609375</ele>
        <time>2013-12-01T13:45:34Z</time>
      </trkpt>
      <trkpt lat="43.34655" lon="6.00385">
        <ele>452.69140625</ele>
        <time>2013-12-01T13:45:45Z</time>
      </trkpt>
      <trkpt lat="43.34658" lon="6.00383">
        <ele>453.0625</ele>
        <time>2013-12-01T13:45:48Z</time>
      </trkpt>
      <trkpt lat="43.34659" lon="6.00382">
        <ele>453.22265625</ele>
        <time>2013-12-01T13:45:49Z</time>
      </trkpt>
      <trkpt lat="43.3466" lon="6.00381">
        <ele>453.421875</ele>
        <time>2013-12-01T13:45:50Z</time>
      </trkpt>
      <trkpt lat="43.34668" lon="6.00375">
        <ele>455.06640625</ele>
        <time>2013-12-01T13:46:03Z</time>
      </trkpt>
      <trkpt lat="43.34683" lon="6.00374">
        <ele>458.0859375</ele>
        <time>2013-12-01T13:46:16Z</time>
      </trkpt>
      <trkpt lat="43.34695" lon="6.00374">
        <ele>460.71484375</ele>
        <time>2013-12-01T13:46:26Z</time>
      </trkpt>
      <trkpt lat="43.34702" lon="6.00373">
        <ele>462.390625</ele>
        <time>2013-12-01T13:46:38Z</time>
      </trkpt>
      <trkpt lat="43.34712" lon="6.00379">
        <ele>464.0859375</ele>
        <time>2013-12-01T13:46:52Z</time>
      </trkpt>
      <trkpt lat="43.34716" lon="6.00381">
        <ele>464.61328125</ele>
        <time>2013-12-01T13:46:57Z</time>
      </trkpt>
      <trkpt lat="43.34723" lon="6.00387">
        <ele>465.8046875</ele>
        <time>2013-12-01T13:47:10Z</time>
      </trkpt>
      <trkpt lat="43.34731" lon="6.00393">
        <ele>467.64453125</ele>
        <time>2013-12-01T13:47:21Z</time>
      </trkpt>
      <trkpt lat="43.3474" lon="6.00399">
        <ele>469.5</ele>
        <time>2013-12-01T13:47:35Z</time>
      </trkpt>
      <trkpt lat="43.3475" lon="6.00404">
        <ele>471.578125</ele>
        <time>2013-12-01T13:47:50Z</time>
      </trkpt>
      <trkpt lat="43.3476" lon="6.00408">
        <ele>473.56640625</ele>
        <time>2013-12-01T13:48:05Z</time>
      </trkpt>
      <trkpt lat="43.3476" lon="6.0041">
        <ele>473.5</ele>
        <time>2013-12-01T13:48:23Z</time>
      </trkpt>
      <trkpt lat="43.34762" lon="6.00407">
        <ele>474.5</ele>
        <time>2013-12-01T13:48:50Z</time>
      </trkpt>
      <trkpt lat="43.34762" lon="6.0041">
        <ele>474.0390625</ele>
        <time>2013-12-01T13:49:14Z</time>
      </trkpt>
      <trkpt lat="43.34763" lon="6.00411">
        <ele>474.01171875</ele>
        <time>2013-12-01T13:49:19Z</time>
      </trkpt>
      <trkpt lat="43.3477" lon="6.00419">
        <ele>474.8203125</ele>
        <time>2013-12-01T13:49:33Z</time>
      </trkpt>
      <trkpt lat="43.34772" lon="6.00421">
        <ele>474.90234375</ele>
        <time>2013-12-01T13:49:40Z</time>
      </trkpt>
      <trkpt lat="43.34774" lon="6.00423">
        <ele>475.109375</ele>
        <time>2013-12-01T13:49:42Z</time>
      </trkpt>
      <trkpt lat="43.34775" lon="6.00424">
        <ele>475.0546875</ele>
        <time>2013-12-01T13:49:43Z</time>
      </trkpt>
      <trkpt lat="43.34779" lon="6.0043">
        <ele>475.71484375</ele>
        <time>2013-12-01T13:49:48Z</time>
      </trkpt>
      <trkpt lat="43.34783" lon="6.00434">
        <ele>476.1484375</ele>
        <time>2013-12-01T13:49:52Z</time>
      </trkpt>
      <trkpt lat="43.34791" lon="6.00443">
        <ele>477.54296875</ele>
        <time>2013-12-01T13:50:00Z</time>
      </trkpt>
      <trkpt lat="43.34795" lon="6.00446">
        <ele>479.01171875</ele>
        <time>2013-12-01T13:50:04Z</time>
      </trkpt>
      <trkpt lat="43.34796" lon="6.00447">
        <ele>479.3671875</ele>
        <time>2013-12-01T13:50:05Z</time>
      </trkpt>
      <trkpt lat="43.34811" lon="6.00465">
        <ele>483.7421875</ele>
        <time>2013-12-01T13:50:20Z</time>
      </trkpt>
      <trkpt lat="43.34828" lon="6.0048">
        <ele>487.4296875</ele>
        <time>2013-12-01T13:50:35Z</time>
      </trkpt>
      <trkpt lat="43.34844" lon="6.00489">
        <ele>490.45703125</ele>
        <time>2013-12-01T13:50:49Z</time>
      </trkpt>
      <trkpt lat="43.34863" lon="6.00493">
        <ele>494.15625</ele>
        <time>2013-12-01T13:51:03Z</time>
      </trkpt>
      <trkpt lat="43.34872" lon="6.005">
        <ele>496.35546875</ele>
        <time>2013-12-01T13:51:11Z</time>
      </trkpt>
      <trkpt lat="43.34873" lon="6.00502">
        <ele>496.67578125</ele>
        <time>2013-12-01T13:51:12Z</time>
      </trkpt>
      <trkpt lat="43.34873" lon="6.00503">
        <ele>496.984375</ele>
        <time>2013-12-01T13:51:13Z</time>
      </trkpt>
      <trkpt lat="43.34874" lon="6.00505">
        <ele>497.2265625</ele>
        <time>2013-12-01T13:51:14Z</time>
      </trkpt>
      <trkpt lat="43.34874" lon="6.00506">
        <ele>497.47265625</ele>
        <time>2013-12-01T13:51:15Z</time>
      </trkpt>
      <trkpt lat="43.34875" lon="6.00508">
        <ele>497.73828125</ele>
        <time>2013-12-01T13:51:16Z</time>
      </trkpt>
      <trkpt lat="43.34875" lon="6.0051">
        <ele>497.93359375</ele>
        <time>2013-12-01T13:51:17Z</time>
      </trkpt>
      <trkpt lat="43.34875" lon="6.00511">
        <ele>498.1015625</ele>
        <time>2013-12-01T13:51:18Z</time>
      </trkpt>
      <trkpt lat="43.34875" lon="6.00514">
        <ele>498.34375</ele>
        <time>2013-12-01T13:51:19Z</time>
      </trkpt>
      <trkpt lat="43.34875" lon="6.00516">
        <ele>498.609375</ele>
        <time>2013-12-01T13:51:20Z</time>
      </trkpt>
      <trkpt lat="43.34875" lon="6.00517">
        <ele>498.8046875</ele>
        <time>2013-12-01T13:51:21Z</time>
      </trkpt>
      <trkpt lat="43.34875" lon="6.00524">
        <ele>499.55078125</ele>
        <time>2013-12-01T13:51:31Z</time>
      </trkpt>
      <trkpt lat="43.34878" lon="6.00523">
        <ele>499.8046875</ele>
        <time>2013-12-01T13:51:46Z</time>
      </trkpt>
      <trkpt lat="43.34883" lon="6.0053">
        <ele>501.91015625</ele>
        <time>2013-12-01T13:51:58Z</time>
      </trkpt>
      <trkpt lat="43.34892" lon="6.00533">
        <ele>504.1640625</ele>
        <time>2013-12-01T13:52:13Z</time>
      </trkpt>
      <trkpt lat="43.34902" lon="6.00535">
        <ele>506.55859375</ele>
        <time>2013-12-01T13:52:28Z</time>
      </trkpt>
      <trkpt lat="43.34914" lon="6.00537">
        <ele>508.890625</ele>
        <time>2013-12-01T13:52:43Z</time>
      </trkpt>
      <trkpt lat="43.34918" lon="6.00538">
        <ele>509.94921875</ele>
        <time>2013-12-01T13:52:57Z</time>
      </trkpt>
      <trkpt lat="43.34919" lon="6.00537">
        <ele>509.8984375</ele>
        <time>2013-12-01T13:53:09Z</time>
      </trkpt>
      <trkpt lat="43.3492" lon="6.00537">
        <ele>510.2421875</ele>
        <time>2013-12-01T13:53:10Z</time>
      </trkpt>
      <trkpt lat="43.34921" lon="6.00537">
        <ele>510.56640625</ele>
        <time>2013-12-01T13:53:11Z</time>
      </trkpt>
      <trkpt lat="43.34925" lon="6.00536">
        <ele>511.15625</ele>
        <time>2013-12-01T13:53:14Z</time>
      </trkpt>
      <trkpt lat="43.34926" lon="6.00536">
        <ele>511.38671875</ele>
        <time>2013-12-01T13:53:15Z</time>
      </trkpt>
      <trkpt lat="43.34927" lon="6.00536">
        <ele>511.64453125</ele>
        <time>2013-12-01T13:53:16Z</time>
      </trkpt>
      <trkpt lat="43.34928" lon="6.00536">
        <ele>511.9453125</ele>
        <time>2013-12-01T13:53:17Z</time>
      </trkpt>
      <trkpt lat="43.3493" lon="6.00536">
        <ele>512.27734375</ele>
        <time>2013-12-01T13:53:18Z</time>
      </trkpt>
      <trkpt lat="43.34931" lon="6.00536">
        <ele>512.61328125</ele>
        <time>2013-12-01T13:53:19Z</time>
      </trkpt>
      <trkpt lat="43.34933" lon="6.00536">
        <ele>512.90234375</ele>
        <time>2013-12-01T13:53:20Z</time>
      </trkpt>
      <trkpt lat="43.34951" lon="6.00538">
        <ele>517.11328125</ele>
        <time>2013-12-01T13:53:33Z</time>
      </trkpt>
      <trkpt lat="43.34966" lon="6.00537">
        <ele>520.60546875</ele>
        <time>2013-12-01T13:53:45Z</time>
      </trkpt>
      <trkpt lat="43.34976" lon="6.00535">
        <ele>523.15625</ele>
        <time>2013-12-01T13:53:53Z</time>
      </trkpt>
      <trkpt lat="43.34989" lon="6.00526">
        <ele>525.1875</ele>
        <time>2013-12-01T13:54:07Z</time>
      </trkpt>
      <trkpt lat="43.35003" lon="6.00514">
        <ele>527.01171875</ele>
        <time>2013-12-01T13:54:23Z</time>
      </trkpt>
      <trkpt lat="43.35005" lon="6.00513">
        <ele>527.52734375</ele>
        <time>2013-12-01T13:54:25Z</time>
      </trkpt>
      <trkpt lat="43.35018" lon="6.0051">
        <ele>530.69140625</ele>
        <time>2013-12-01T13:54:36Z</time>
      </trkpt>
      <trkpt lat="43.3502" lon="6.0051">
        <ele>531</ele>
        <time>2013-12-01T13:54:37Z</time>
      </trkpt>
      <trkpt lat="43.35021" lon="6.00509">
        <ele>531.23046875</ele>
        <time>2013-12-01T13:54:38Z</time>
      </trkpt>
      <trkpt lat="43.35037" lon="6.00501">
        <ele>533.82421875</ele>
        <time>2013-12-01T13:54:52Z</time>
      </trkpt>
      <trkpt lat="43.35055" lon="6.00488">
        <ele>536.578125</ele>
        <time>2013-12-01T13:55:08Z</time>
      </trkpt>
      <trkpt lat="43.35056" lon="6.00487">
        <ele>536.73828125</ele>
        <time>2013-12-01T13:55:09Z</time>
      </trkpt>
      <trkpt lat="43.35057" lon="6.00486">
        <ele>536.828125</ele>
        <time>2013-12-01T13:55:10Z</time>
      </trkpt>
      <trkpt lat="43.35058" lon="6.00486">
        <ele>536.9921875</ele>
        <time>2013-12-01T13:55:11Z</time>
      </trkpt>
      <trkpt lat="43.35059" lon="6.00486">
        <ele>537.16796875</ele>
        <time>2013-12-01T13:55:12Z</time>
      </trkpt>
      <trkpt lat="43.3506" lon="6.00485">
        <ele>537.3515625</ele>
        <time>2013-12-01T13:55:13Z</time>
      </trkpt>
      <trkpt lat="43.35073" lon="6.00483">
        <ele>539.2421875</ele>
        <time>2013-12-01T13:55:23Z</time>
      </trkpt>
      <trkpt lat="43.35075" lon="6.00481">
        <ele>539.30078125</ele>
        <time>2013-12-01T13:55:35Z</time>
      </trkpt>
      <trkpt lat="43.35075" lon="6.0048">
        <ele>539.28125</ele>
        <time>2013-12-01T13:55:59Z</time>
      </trkpt>
      <trkpt lat="43.35075" lon="6.00482">
        <ele>539.39453125</ele>
        <time>2013-12-01T13:56:24Z</time>
      </trkpt>
      <trkpt lat="43.35076" lon="6.00481">
        <ele>539.625</ele>
        <time>2013-12-01T13:56:25Z</time>
      </trkpt>
      <trkpt lat="43.35078" lon="6.00481">
        <ele>539.77734375</ele>
        <time>2013-12-01T13:56:26Z</time>
      </trkpt>
      <trkpt lat="43.35079" lon="6.0048">
        <ele>539.89453125</ele>
        <time>2013-12-01T13:56:27Z</time>
      </trkpt>
      <trkpt lat="43.35081" lon="6.00479">
        <ele>540.01953125</ele>
        <time>2013-12-01T13:56:28Z</time>
      </trkpt>
      <trkpt lat="43.35094" lon="6.00472">
        <ele>540.70703125</ele>
        <time>2013-12-01T13:56:38Z</time>
      </trkpt>
      <trkpt lat="43.35095" lon="6.00472">
        <ele>540.78515625</ele>
        <time>2013-12-01T13:56:39Z</time>
      </trkpt>
      <trkpt lat="43.35108" lon="6.00463">
        <ele>540.94921875</ele>
        <time>2013-12-01T13:56:53Z</time>
      </trkpt>
      <trkpt lat="43.35115" lon="6.00458">
        <ele>540.703125</ele>
        <time>2013-12-01T13:56:59Z</time>
      </trkpt>
      <trkpt lat="43.35116" lon="6.00457">
        <ele>540.6953125</ele>
        <time>2013-12-01T13:57:00Z</time>
      </trkpt>
      <trkpt lat="43.35117" lon="6.00456">
        <ele>540.62890625</ele>
        <time>2013-12-01T13:57:01Z</time>
      </trkpt>
      <trkpt lat="43.35118" lon="6.00455">
        <ele>540.5703125</ele>
        <time>2013-12-01T13:57:02Z</time>
      </trkpt>
      <trkpt lat="43.35119" lon="6.00454">
        <ele>540.5234375</ele>
        <time>2013-12-01T13:57:03Z</time>
      </trkpt>
      <trkpt lat="43.3512" lon="6.00454">
        <ele>540.48046875</ele>
        <time>2013-12-01T13:57:04Z</time>
      </trkpt>
      <trkpt lat="43.35121" lon="6.00453">
        <ele>540.4609375</ele>
        <time>2013-12-01T13:57:05Z</time>
      </trkpt>
      <trkpt lat="43.35134" lon="6.00434">
        <ele>539.25</ele>
        <time>2013-12-01T13:57:20Z</time>
      </trkpt>
      <trkpt lat="43.35135" lon="6.00432">
        <ele>539.2421875</ele>
        <time>2013-12-01T13:57:21Z</time>
      </trkpt>
      <trkpt lat="43.35136" lon="6.00431">
        <ele>539.27734375</ele>
        <time>2013-12-01T13:57:22Z</time>
      </trkpt>
      <trkpt lat="43.35142" lon="6.00414">
        <ele>539.01171875</ele>
        <time>2013-12-01T13:57:32Z</time>
      </trkpt>
      <trkpt lat="43.35143" lon="6.00411">
        <ele>538.96875</ele>
        <time>2013-12-01T13:57:34Z</time>
      </trkpt>
      <trkpt lat="43.35144" lon="6.0041">
        <ele>539.05078125</ele>
        <time>2013-12-01T13:57:35Z</time>
      </trkpt>
      <trkpt lat="43.35146" lon="6.00403">
        <ele>539.1171875</ele>
        <time>2013-12-01T13:57:39Z</time>
      </trkpt>
      <trkpt lat="43.3516" lon="6.00377">
        <ele>540.37109375</ele>
        <time>2013-12-01T13:57:56Z</time>
      </trkpt>
      <trkpt lat="43.35163" lon="6.00374">
        <ele>540.79296875</ele>
        <time>2013-12-01T13:57:59Z</time>
      </trkpt>
      <trkpt lat="43.35163" lon="6.00373">
        <ele>540.91015625</ele>
        <time>2013-12-01T13:58:00Z</time>
      </trkpt>
      <trkpt lat="43.35164" lon="6.00372">
        <ele>541.0546875</ele>
        <time>2013-12-01T13:58:01Z</time>
      </trkpt>
      <trkpt lat="43.35166" lon="6.00371">
        <ele>541.27734375</ele>
        <time>2013-12-01T13:58:02Z</time>
      </trkpt>
      <trkpt lat="43.35167" lon="6.0037">
        <ele>541.52734375</ele>
        <time>2013-12-01T13:58:03Z</time>
      </trkpt>
      <trkpt lat="43.35168" lon="6.00369">
        <ele>541.74609375</ele>
        <time>2013-12-01T13:58:04Z</time>
      </trkpt>
      <trkpt lat="43.35169" lon="6.00368">
        <ele>541.94140625</ele>
        <time>2013-12-01T13:58:05Z</time>
      </trkpt>
      <trkpt lat="43.3517" lon="6.00367">
        <ele>542.12890625</ele>
        <time>2013-12-01T13:58:06Z</time>
      </trkpt>
      <trkpt lat="43.35171" lon="6.00366">
        <ele>542.30859375</ele>
        <time>2013-12-01T13:58:07Z</time>
      </trkpt>
      <trkpt lat="43.3518" lon="6.00359">
        <ele>543.87890625</ele>
        <time>2013-12-01T13:58:15Z</time>
      </trkpt>
      <trkpt lat="43.35185" lon="6.00356">
        <ele>544.73046875</ele>
        <time>2013-12-01T13:58:20Z</time>
      </trkpt>
      <trkpt lat="43.35186" lon="6.00355">
        <ele>544.9609375</ele>
        <time>2013-12-01T13:58:21Z</time>
      </trkpt>
      <trkpt lat="43.35188" lon="6.00354">
        <ele>545.1796875</ele>
        <time>2013-12-01T13:58:22Z</time>
      </trkpt>
      <trkpt lat="43.35202" lon="6.0035">
        <ele>546.7578125</ele>
        <time>2013-12-01T13:58:35Z</time>
      </trkpt>
      <trkpt lat="43.35218" lon="6.00349">
        <ele>548.2265625</ele>
        <time>2013-12-01T13:58:48Z</time>
      </trkpt>
      <trkpt lat="43.35234" lon="6.0035">
        <ele>549.55078125</ele>
        <time>2013-12-01T13:59:01Z</time>
      </trkpt>
      <trkpt lat="43.35249" lon="6.00357">
        <ele>551.16015625</ele>
        <time>2013-12-01T13:59:14Z</time>
      </trkpt>
      <trkpt lat="43.35265" lon="6.00368">
        <ele>554.28125</ele>
        <time>2013-12-01T13:59:29Z</time>
      </trkpt>
      <trkpt lat="43.35272" lon="6.00371">
        <ele>555.390625</ele>
        <time>2013-12-01T13:59:36Z</time>
      </trkpt>
      <trkpt lat="43.3529" lon="6.0038">
        <ele>558.38671875</ele>
        <time>2013-12-01T13:59:51Z</time>
      </trkpt>
      <trkpt lat="43.35307" lon="6.00388">
        <ele>561.31640625</ele>
        <time>2013-12-01T14:00:06Z</time>
      </trkpt>
      <trkpt lat="43.35309" lon="6.00389">
        <ele>561.81640625</ele>
        <time>2013-12-01T14:00:08Z</time>
      </trkpt>
      <trkpt lat="43.35313" lon="6.00391">
        <ele>562.71484375</ele>
        <time>2013-12-01T14:00:26Z</time>
      </trkpt>
      <trkpt lat="43.35315" lon="6.00392">
        <ele>563.16796875</ele>
        <time>2013-12-01T14:00:58Z</time>
      </trkpt>
      <trkpt lat="43.35318" lon="6.00397">
        <ele>564.453125</ele>
        <time>2013-12-01T14:01:02Z</time>
      </trkpt>
      <trkpt lat="43.35319" lon="6.00398">
        <ele>564.72265625</ele>
        <time>2013-12-01T14:01:03Z</time>
      </trkpt>
      <trkpt lat="43.35321" lon="6.004">
        <ele>565.18359375</ele>
        <time>2013-12-01T14:01:05Z</time>
      </trkpt>
      <trkpt lat="43.35322" lon="6.00401">
        <ele>565.48828125</ele>
        <time>2013-12-01T14:01:06Z</time>
      </trkpt>
      <trkpt lat="43.35329" lon="6.00408">
        <ele>567.2265625</ele>
        <time>2013-12-01T14:01:13Z</time>
      </trkpt>
      <trkpt lat="43.3533" lon="6.00408">
        <ele>567.37109375</ele>
        <time>2013-12-01T14:01:14Z</time>
      </trkpt>
      <trkpt lat="43.35332" lon="6.00408">
        <ele>567.55859375</ele>
        <time>2013-12-01T14:01:15Z</time>
      </trkpt>
      <trkpt lat="43.35333" lon="6.00409">
        <ele>567.77734375</ele>
        <time>2013-12-01T14:01:16Z</time>
      </trkpt>
      <trkpt lat="43.35334" lon="6.00409">
        <ele>567.98046875</ele>
        <time>2013-12-01T14:01:17Z</time>
      </trkpt>
      <trkpt lat="43.35336" lon="6.00409">
        <ele>568.14453125</ele>
        <time>2013-12-01T14:01:18Z</time>
      </trkpt>
      <trkpt lat="43.35338" lon="6.0041">
        <ele>568.5234375</ele>
        <time>2013-12-01T14:01:20Z</time>
      </trkpt>
      <trkpt lat="43.35339" lon="6.00411">
        <ele>568.71875</ele>
        <time>2013-12-01T14:01:21Z</time>
      </trkpt>
      <trkpt lat="43.3534" lon="6.00411">
        <ele>568.87890625</ele>
        <time>2013-12-01T14:01:22Z</time>
      </trkpt>
      <trkpt lat="43.3535" lon="6.00411">
        <ele>569.953125</ele>
        <time>2013-12-01T14:01:36Z</time>
      </trkpt>
      <trkpt lat="43.35361" lon="6.00411">
        <ele>571.13671875</ele>
        <time>2013-12-01T14:02:01Z</time>
      </trkpt>
      <trkpt lat="43.35364" lon="6.0041">
        <ele>571.4765625</ele>
        <time>2013-12-01T14:02:04Z</time>
      </trkpt>
      <trkpt lat="43.35366" lon="6.0041">
        <ele>571.6171875</ele>
        <time>2013-12-01T14:02:05Z</time>
      </trkpt>
      <trkpt lat="43.35367" lon="6.0041">
        <ele>571.7578125</ele>
        <time>2013-12-01T14:02:06Z</time>
      </trkpt>
      <trkpt lat="43.35385" lon="6.00412">
        <ele>573.890625</ele>
        <time>2013-12-01T14:02:19Z</time>
      </trkpt>
      <trkpt lat="43.35386" lon="6.00413">
        <ele>574.05859375</ele>
        <time>2013-12-01T14:02:20Z</time>
      </trkpt>
      <trkpt lat="43.35397" lon="6.00416">
        <ele>576.2578125</ele>
        <time>2013-12-01T14:02:29Z</time>
      </trkpt>
      <trkpt lat="43.35401" lon="6.00418">
        <ele>577.0390625</ele>
        <time>2013-12-01T14:02:44Z</time>
      </trkpt>
      <trkpt lat="43.35402" lon="6.00419">
        <ele>577.11328125</ele>
        <time>2013-12-01T14:03:06Z</time>
      </trkpt>
      <trkpt lat="43.35402" lon="6.00418">
        <ele>577.0390625</ele>
        <time>2013-12-01T14:03:31Z</time>
      </trkpt>
      <trkpt lat="43.3541" lon="6.00425">
        <ele>578.46875</ele>
        <time>2013-12-01T14:03:44Z</time>
      </trkpt>
      <trkpt lat="43.35414" lon="6.00429">
        <ele>578.98046875</ele>
        <time>2013-12-01T14:03:49Z</time>
      </trkpt>
      <trkpt lat="43.35415" lon="6.00429">
        <ele>579.16015625</ele>
        <time>2013-12-01T14:03:50Z</time>
      </trkpt>
      <trkpt lat="43.35416" lon="6.0043">
        <ele>579.3359375</ele>
        <time>2013-12-01T14:03:51Z</time>
      </trkpt>
      <trkpt lat="43.35417" lon="6.00431">
        <ele>579.49609375</ele>
        <time>2013-12-01T14:03:52Z</time>
      </trkpt>
      <trkpt lat="43.35418" lon="6.00431">
        <ele>579.6328125</ele>
        <time>2013-12-01T14:03:53Z</time>
      </trkpt>
      <trkpt lat="43.35419" lon="6.00432">
        <ele>579.80859375</ele>
        <time>2013-12-01T14:03:54Z</time>
      </trkpt>
      <trkpt lat="43.35433" lon="6.00441">
        <ele>581.8515625</ele>
        <time>2013-12-01T14:04:09Z</time>
      </trkpt>
      <trkpt lat="43.35442" lon="6.00447">
        <ele>583.6015625</ele>
        <time>2013-12-01T14:04:22Z</time>
      </trkpt>
      <trkpt lat="43.35441" lon="6.00445">
        <ele>583.33203125</ele>
        <time>2013-12-01T14:04:38Z</time>
      </trkpt>
      <trkpt lat="43.35449" lon="6.00449">
        <ele>585.5546875</ele>
        <time>2013-12-01T14:04:53Z</time>
      </trkpt>
      <trkpt lat="43.35459" lon="6.00445">
        <ele>588.22265625</ele>
        <time>2013-12-01T14:05:08Z</time>
      </trkpt>
      <trkpt lat="43.35462" lon="6.00435">
        <ele>588.86328125</ele>
        <time>2013-12-01T14:05:21Z</time>
      </trkpt>
      <trkpt lat="43.35461" lon="6.00421">
        <ele>588.65234375</ele>
        <time>2013-12-01T14:05:34Z</time>
      </trkpt>
      <trkpt lat="43.35458" lon="6.00405">
        <ele>588.20703125</ele>
        <time>2013-12-01T14:05:48Z</time>
      </trkpt>
      <trkpt lat="43.35456" lon="6.00388">
        <ele>587.93359375</ele>
        <time>2013-12-01T14:06:02Z</time>
      </trkpt>
      <trkpt lat="43.35455" lon="6.00378">
        <ele>588.109375</ele>
        <time>2013-12-01T14:06:09Z</time>
      </trkpt>
      <trkpt lat="43.35455" lon="6.00376">
        <ele>588.26171875</ele>
        <time>2013-12-01T14:06:11Z</time>
      </trkpt>
      <trkpt lat="43.35455" lon="6.00354">
        <ele>588.83984375</ele>
        <time>2013-12-01T14:06:27Z</time>
      </trkpt>
      <trkpt lat="43.35455" lon="6.00349">
        <ele>588.77734375</ele>
        <time>2013-12-01T14:06:31Z</time>
      </trkpt>
      <trkpt lat="43.35456" lon="6.00346">
        <ele>588.85546875</ele>
        <time>2013-12-01T14:06:37Z</time>
      </trkpt>
      <trkpt lat="43.35456" lon="6.00345">
        <ele>588.859375</ele>
        <time>2013-12-01T14:06:38Z</time>
      </trkpt>
      <trkpt lat="43.35457" lon="6.00343">
        <ele>588.875</ele>
        <time>2013-12-01T14:06:39Z</time>
      </trkpt>
      <trkpt lat="43.35458" lon="6.00342">
        <ele>588.91015625</ele>
        <time>2013-12-01T14:06:40Z</time>
      </trkpt>
      <trkpt lat="43.35459" lon="6.00341">
        <ele>588.9921875</ele>
        <time>2013-12-01T14:06:41Z</time>
      </trkpt>
      <trkpt lat="43.3546" lon="6.0034">
        <ele>589.05078125</ele>
        <time>2013-12-01T14:06:42Z</time>
      </trkpt>
      <trkpt lat="43.35461" lon="6.00339">
        <ele>589.08203125</ele>
        <time>2013-12-01T14:06:43Z</time>
      </trkpt>
      <trkpt lat="43.35462" lon="6.00337">
        <ele>589.0859375</ele>
        <time>2013-12-01T14:06:44Z</time>
      </trkpt>
      <trkpt lat="43.35463" lon="6.00336">
        <ele>589.0625</ele>
        <time>2013-12-01T14:06:45Z</time>
      </trkpt>
      <trkpt lat="43.35474" lon="6.00316">
        <ele>587.59765625</ele>
        <time>2013-12-01T14:07:01Z</time>
      </trkpt>
      <trkpt lat="43.35482" lon="6.00294">
        <ele>584.671875</ele>
        <time>2013-12-01T14:07:13Z</time>
      </trkpt>
      <trkpt lat="43.35484" lon="6.0026">
        <ele>581.2578125</ele>
        <time>2013-12-01T14:07:24Z</time>
      </trkpt>
      <trkpt lat="43.35486" lon="6.00224">
        <ele>577.1953125</ele>
        <time>2013-12-01T14:07:34Z</time>
      </trkpt>
      <trkpt lat="43.35485" lon="6.00184">
        <ele>574.515625</ele>
        <time>2013-12-01T14:07:43Z</time>
      </trkpt>
      <trkpt lat="43.35485" lon="6.00155">
        <ele>573.9296875</ele>
        <time>2013-12-01T14:07:50Z</time>
      </trkpt>
      <trkpt lat="43.35483" lon="6.00152">
        <ele>574.17578125</ele>
        <time>2013-12-01T14:07:51Z</time>
      </trkpt>
      <trkpt lat="43.35482" lon="6.0015">
        <ele>574.4375</ele>
        <time>2013-12-01T14:07:52Z</time>
      </trkpt>
      <trkpt lat="43.35481" lon="6.00149">
        <ele>574.59375</ele>
        <time>2013-12-01T14:07:53Z</time>
      </trkpt>
      <trkpt lat="43.3548" lon="6.00147">
        <ele>574.6796875</ele>
        <time>2013-12-01T14:07:54Z</time>
      </trkpt>
      <trkpt lat="43.3548" lon="6.00145">
        <ele>574.765625</ele>
        <time>2013-12-01T14:07:55Z</time>
      </trkpt>
      <trkpt lat="43.35479" lon="6.00143">
        <ele>574.875</ele>
        <time>2013-12-01T14:07:56Z</time>
      </trkpt>
      <trkpt lat="43.35478" lon="6.00141">
        <ele>574.9765625</ele>
        <time>2013-12-01T14:07:57Z</time>
      </trkpt>
      <trkpt lat="43.35478" lon="6.00138">
        <ele>575.09765625</ele>
        <time>2013-12-01T14:08:06Z</time>
      </trkpt>
      <trkpt lat="43.35477" lon="6.00137">
        <ele>575.203125</ele>
        <time>2013-12-01T14:08:28Z</time>
      </trkpt>
      <trkpt lat="43.35478" lon="6.00136">
        <ele>575.09765625</ele>
        <time>2013-12-01T14:08:44Z</time>
      </trkpt>
      <trkpt lat="43.35482" lon="6.00141">
        <ele>574.5078125</ele>
        <time>2013-12-01T14:08:47Z</time>
      </trkpt>
      <trkpt lat="43.35484" lon="6.00144">
        <ele>574.24609375</ele>
        <time>2013-12-01T14:08:49Z</time>
      </trkpt>
      <trkpt lat="43.35491" lon="6.00127">
        <ele>573.796875</ele>
        <time>2013-12-01T14:09:00Z</time>
      </trkpt>
      <trkpt lat="43.35491" lon="6.00125">
        <ele>573.8203125</ele>
        <time>2013-12-01T14:09:01Z</time>
      </trkpt>
      <trkpt lat="43.35496" lon="6.00108">
        <ele>574.0078125</ele>
        <time>2013-12-01T14:09:12Z</time>
      </trkpt>
      <trkpt lat="43.35512" lon="6.00097">
        <ele>573.1171875</ele>
        <time>2013-12-01T14:09:22Z</time>
      </trkpt>
      <trkpt lat="43.35529" lon="6.00089">
        <ele>572.73046875</ele>
        <time>2013-12-01T14:09:34Z</time>
      </trkpt>
      <trkpt lat="43.35554" lon="6.0007">
        <ele>573.98046875</ele>
        <time>2013-12-01T14:09:48Z</time>
      </trkpt>
      <trkpt lat="43.35588" lon="6.00064">
        <ele>573.7890625</ele>
        <time>2013-12-01T14:09:59Z</time>
      </trkpt>
      <trkpt lat="43.35627" lon="6.00079">
        <ele>571.32421875</ele>
        <time>2013-12-01T14:10:14Z</time>
      </trkpt>
      <trkpt lat="43.35662" lon="6.00075">
        <ele>570.49609375</ele>
        <time>2013-12-01T14:10:27Z</time>
      </trkpt>
      <trkpt lat="43.35685" lon="6.00054">
        <ele>573.47265625</ele>
        <time>2013-12-01T14:10:38Z</time>
      </trkpt>
      <trkpt lat="43.35711" lon="6.00027">
        <ele>578.6875</ele>
        <time>2013-12-01T14:10:54Z</time>
      </trkpt>
      <trkpt lat="43.35732" lon="6.00026">
        <ele>581.96875</ele>
        <time>2013-12-01T14:11:10Z</time>
      </trkpt>
      <trkpt lat="43.35738" lon="6.0003">
        <ele>582.67578125</ele>
        <time>2013-12-01T14:11:15Z</time>
      </trkpt>
      <trkpt lat="43.35739" lon="6.0003">
        <ele>582.89453125</ele>
        <time>2013-12-01T14:11:16Z</time>
      </trkpt>
      <trkpt lat="43.35754" lon="6.00038">
        <ele>584.15234375</ele>
        <time>2013-12-01T14:11:28Z</time>
      </trkpt>
      <trkpt lat="43.35755" lon="6.00038">
        <ele>584.1796875</ele>
        <time>2013-12-01T14:11:29Z</time>
      </trkpt>
      <trkpt lat="43.35756" lon="6.00039">
        <ele>584.23046875</ele>
        <time>2013-12-01T14:11:30Z</time>
      </trkpt>
      <trkpt lat="43.35765" lon="6.0004">
        <ele>585.0703125</ele>
        <time>2013-12-01T14:11:45Z</time>
      </trkpt>
      <trkpt lat="43.35775" lon="6.00045">
        <ele>585.6328125</ele>
        <time>2013-12-01T14:11:59Z</time>
      </trkpt>
      <trkpt lat="43.3579" lon="6.00048">
        <ele>585.34375</ele>
        <time>2013-12-01T14:12:15Z</time>
      </trkpt>
      <trkpt lat="43.35803" lon="6.0004">
        <ele>586.19140625</ele>
        <time>2013-12-01T14:12:33Z</time>
      </trkpt>
      <trkpt lat="43.35804" lon="6.0004">
        <ele>586.15234375</ele>
        <time>2013-12-01T14:12:41Z</time>
      </trkpt>
      <trkpt lat="43.35805" lon="6.00039">
        <ele>586.1796875</ele>
        <time>2013-12-01T14:12:42Z</time>
      </trkpt>
      <trkpt lat="43.35806" lon="6.00038">
        <ele>586.2265625</ele>
        <time>2013-12-01T14:12:43Z</time>
      </trkpt>
      <trkpt lat="43.35807" lon="6.00037">
        <ele>586.28125</ele>
        <time>2013-12-01T14:12:44Z</time>
      </trkpt>
      <trkpt lat="43.35808" lon="6.00036">
        <ele>586.328125</ele>
        <time>2013-12-01T14:12:45Z</time>
      </trkpt>
      <trkpt lat="43.35809" lon="6.00035">
        <ele>586.3984375</ele>
        <time>2013-12-01T14:12:46Z</time>
      </trkpt>
      <trkpt lat="43.3581" lon="6.00034">
        <ele>586.48046875</ele>
        <time>2013-12-01T14:12:47Z</time>
      </trkpt>
      <trkpt lat="43.35816" lon="6.00026">
        <ele>587.21484375</ele>
        <time>2013-12-01T14:12:53Z</time>
      </trkpt>
      <trkpt lat="43.35817" lon="6.00025">
        <ele>587.328125</ele>
        <time>2013-12-01T14:12:54Z</time>
      </trkpt>
      <trkpt lat="43.35818" lon="6.00023">
        <ele>587.45703125</ele>
        <time>2013-12-01T14:12:55Z</time>
      </trkpt>
      <trkpt lat="43.35827" lon="6.00013">
        <ele>588.578125</ele>
        <time>2013-12-01T14:13:04Z</time>
      </trkpt>
      <trkpt lat="43.35828" lon="6.00012">
        <ele>588.73828125</ele>
        <time>2013-12-01T14:13:05Z</time>
      </trkpt>
      <trkpt lat="43.35829" lon="6.00011">
        <ele>588.83984375</ele>
        <time>2013-12-01T14:13:06Z</time>
      </trkpt>
      <trkpt lat="43.3583" lon="6.0001">
        <ele>588.87890625</ele>
        <time>2013-12-01T14:13:07Z</time>
      </trkpt>
      <trkpt lat="43.35832" lon="6.00009">
        <ele>588.94140625</ele>
        <time>2013-12-01T14:13:08Z</time>
      </trkpt>
      <trkpt lat="43.35833" lon="6.00009">
        <ele>588.99609375</ele>
        <time>2013-12-01T14:13:09Z</time>
      </trkpt>
      <trkpt lat="43.35834" lon="6.00008">
        <ele>589.03125</ele>
        <time>2013-12-01T14:13:10Z</time>
      </trkpt>
      <trkpt lat="43.35836" lon="6.00007">
        <ele>589.08203125</ele>
        <time>2013-12-01T14:13:11Z</time>
      </trkpt>
      <trkpt lat="43.35837" lon="6.00006">
        <ele>589.1015625</ele>
        <time>2013-12-01T14:13:12Z</time>
      </trkpt>
      <trkpt lat="43.35838" lon="6.00005">
        <ele>589.12890625</ele>
        <time>2013-12-01T14:13:13Z</time>
      </trkpt>
      <trkpt lat="43.3584" lon="6.00005">
        <ele>589.12109375</ele>
        <time>2013-12-01T14:13:14Z</time>
      </trkpt>
      <trkpt lat="43.35841" lon="6.00004">
        <ele>589.140625</ele>
        <time>2013-12-01T14:13:15Z</time>
      </trkpt>
      <trkpt lat="43.35842" lon="6.00003">
        <ele>589.17578125</ele>
        <time>2013-12-01T14:13:16Z</time>
      </trkpt>
      <trkpt lat="43.35844" lon="6.00002">
        <ele>589.171875</ele>
        <time>2013-12-01T14:13:17Z</time>
      </trkpt>
      <trkpt lat="43.35869" lon="5.99991">
        <ele>587.53515625</ele>
        <time>2013-12-01T14:13:34Z</time>
      </trkpt>
      <trkpt lat="43.35882" lon="5.99975">
        <ele>586.3984375</ele>
        <time>2013-12-01T14:13:46Z</time>
      </trkpt>
      <trkpt lat="43.35892" lon="5.9994">
        <ele>584.1640625</ele>
        <time>2013-12-01T14:14:00Z</time>
      </trkpt>
      <trkpt lat="43.35885" lon="5.99876">
        <ele>582.8828125</ele>
        <time>2013-12-01T14:14:12Z</time>
      </trkpt>
      <trkpt lat="43.35884" lon="5.99863">
        <ele>582.73828125</ele>
        <time>2013-12-01T14:14:14Z</time>
      </trkpt>
      <trkpt lat="43.35884" lon="5.99856">
        <ele>582.46484375</ele>
        <time>2013-12-01T14:14:15Z</time>
      </trkpt>
      <trkpt lat="43.35889" lon="5.99804">
        <ele>579.1484375</ele>
        <time>2013-12-01T14:14:26Z</time>
      </trkpt>
      <trkpt lat="43.35895" lon="5.9977">
        <ele>578.6875</ele>
        <time>2013-12-01T14:14:33Z</time>
      </trkpt>
      <trkpt lat="43.35895" lon="5.99765">
        <ele>578.91796875</ele>
        <time>2013-12-01T14:14:34Z</time>
      </trkpt>
      <trkpt lat="43.35896" lon="5.9976">
        <ele>579.15625</ele>
        <time>2013-12-01T14:14:35Z</time>
      </trkpt>
      <trkpt lat="43.35897" lon="5.99755">
        <ele>579.30078125</ele>
        <time>2013-12-01T14:14:36Z</time>
      </trkpt>
      <trkpt lat="43.35898" lon="5.99751">
        <ele>579.37890625</ele>
        <time>2013-12-01T14:14:37Z</time>
      </trkpt>
      <trkpt lat="43.3591" lon="5.99718">
        <ele>580.390625</ele>
        <time>2013-12-01T14:14:44Z</time>
      </trkpt>
      <trkpt lat="43.35915" lon="5.99705">
        <ele>580.92578125</ele>
        <time>2013-12-01T14:14:46Z</time>
      </trkpt>
      <trkpt lat="43.35918" lon="5.99699">
        <ele>581.4921875</ele>
        <time>2013-12-01T14:14:47Z</time>
      </trkpt>
      <trkpt lat="43.3592" lon="5.99692">
        <ele>582.1171875</ele>
        <time>2013-12-01T14:14:48Z</time>
      </trkpt>
      <trkpt lat="43.35921" lon="5.99684">
        <ele>582.5703125</ele>
        <time>2013-12-01T14:14:49Z</time>
      </trkpt>
      <trkpt lat="43.35922" lon="5.99676">
        <ele>582.95703125</ele>
        <time>2013-12-01T14:14:50Z</time>
      </trkpt>
      <trkpt lat="43.35923" lon="5.9967">
        <ele>583.3203125</ele>
        <time>2013-12-01T14:14:51Z</time>
      </trkpt>
      <trkpt lat="43.35924" lon="5.99664">
        <ele>583.640625</ele>
        <time>2013-12-01T14:14:52Z</time>
      </trkpt>
      <trkpt lat="43.35925" lon="5.99654">
        <ele>584.33984375</ele>
        <time>2013-12-01T14:15:01Z</time>
      </trkpt>
      <trkpt lat="43.35925" lon="5.99655">
        <ele>584.359375</ele>
        <time>2013-12-01T14:15:40Z</time>
      </trkpt>
      <trkpt lat="43.35926" lon="5.99656">
        <ele>584.33984375</ele>
        <time>2013-12-01T14:16:07Z</time>
      </trkpt>
      <trkpt lat="43.35927" lon="5.99655">
        <ele>584.4765625</ele>
        <time>2013-12-01T14:16:11Z</time>
      </trkpt>
      <trkpt lat="43.35927" lon="5.99653">
        <ele>584.64453125</ele>
        <time>2013-12-01T14:16:12Z</time>
      </trkpt>
      <trkpt lat="43.35939" lon="5.99639">
        <ele>587.203125</ele>
        <time>2013-12-01T14:16:24Z</time>
      </trkpt>
      <trkpt lat="43.3594" lon="5.99638">
        <ele>587.3203125</ele>
        <time>2013-12-01T14:16:46Z</time>
      </trkpt>
      <trkpt lat="43.3594" lon="5.99638">
        <ele>587.4921875</ele>
        <time>2013-12-01T14:17:12Z</time>
      </trkpt>
      <trkpt lat="43.3594" lon="5.99639">
        <ele>587.40234375</ele>
        <time>2013-12-01T14:17:44Z</time>
      </trkpt>
      <trkpt lat="43.3594" lon="5.99639">
        <ele>587.2890625</ele>
        <time>2013-12-01T14:18:30Z</time>
      </trkpt>
      <trkpt lat="43.3594" lon="5.99639">
        <ele>587.33984375</ele>
        <time>2013-12-01T14:19:12Z</time>
      </trkpt>
      <trkpt lat="43.35941" lon="5.9964">
        <ele>587.421875</ele>
        <time>2013-12-01T14:20:06Z</time>
      </trkpt>
      <trkpt lat="43.3594" lon="5.99638">
        <ele>587.5390625</ele>
        <time>2013-12-01T14:20:53Z</time>
      </trkpt>
      <trkpt lat="43.3594" lon="5.99639">
        <ele>587.3203125</ele>
        <time>2013-12-01T14:21:43Z</time>
      </trkpt>
      <trkpt lat="43.3594" lon="5.9964">
        <ele>587.23828125</ele>
        <time>2013-12-01T14:22:25Z</time>
      </trkpt>
      <trkpt lat="43.3594" lon="5.9964">
        <ele>587.21875</ele>
        <time>2013-12-01T14:22:47Z</time>
      </trkpt>
      <trkpt lat="43.35942" lon="5.9964">
        <ele>587.45703125</ele>
        <time>2013-12-01T14:23:10Z</time>
      </trkpt>
      <trkpt lat="43.35943" lon="5.99641">
        <ele>587.37109375</ele>
        <time>2013-12-01T14:23:11Z</time>
      </trkpt>
      <trkpt lat="43.35943" lon="5.99643">
        <ele>587.25</ele>
        <time>2013-12-01T14:23:12Z</time>
      </trkpt>
      <trkpt lat="43.35944" lon="5.99644">
        <ele>587.09375</ele>
        <time>2013-12-01T14:23:13Z</time>
      </trkpt>
      <trkpt lat="43.35944" lon="5.99646">
        <ele>586.90234375</ele>
        <time>2013-12-01T14:23:14Z</time>
      </trkpt>
      <trkpt lat="43.35959" lon="5.99672">
        <ele>585.1796875</ele>
        <time>2013-12-01T14:23:28Z</time>
      </trkpt>
      <trkpt lat="43.35985" lon="5.99704">
        <ele>581.21875</ele>
        <time>2013-12-01T14:23:43Z</time>
      </trkpt>
      <trkpt lat="43.36" lon="5.99724">
        <ele>578.18359375</ele>
        <time>2013-12-01T14:23:50Z</time>
      </trkpt>
      <trkpt lat="43.36002" lon="5.99724">
        <ele>577.953125</ele>
        <time>2013-12-01T14:23:51Z</time>
      </trkpt>
      <trkpt lat="43.36005" lon="5.99723">
        <ele>577.8515625</ele>
        <time>2013-12-01T14:23:52Z</time>
      </trkpt>
      <trkpt lat="43.36007" lon="5.99721">
        <ele>577.859375</ele>
        <time>2013-12-01T14:23:53Z</time>
      </trkpt>
      <trkpt lat="43.36009" lon="5.99719">
        <ele>577.9375</ele>
        <time>2013-12-01T14:23:54Z</time>
      </trkpt>
      <trkpt lat="43.36012" lon="5.99716">
        <ele>578.19140625</ele>
        <time>2013-12-01T14:23:55Z</time>
      </trkpt>
      <trkpt lat="43.36015" lon="5.99712">
        <ele>578.69140625</ele>
        <time>2013-12-01T14:23:56Z</time>
      </trkpt>
      <trkpt lat="43.36019" lon="5.99708">
        <ele>579.17578125</ele>
        <time>2013-12-01T14:23:57Z</time>
      </trkpt>
      <trkpt lat="43.36023" lon="5.99704">
        <ele>579.57421875</ele>
        <time>2013-12-01T14:23:58Z</time>
      </trkpt>
      <trkpt lat="43.36028" lon="5.99701">
        <ele>579.98828125</ele>
        <time>2013-12-01T14:23:59Z</time>
      </trkpt>
      <trkpt lat="43.36039" lon="5.99695">
        <ele>580.859375</ele>
        <time>2013-12-01T14:24:01Z</time>
      </trkpt>
      <trkpt lat="43.36044" lon="5.99694">
        <ele>581.2265625</ele>
        <time>2013-12-01T14:24:02Z</time>
      </trkpt>
      <trkpt lat="43.36049" lon="5.99693">
        <ele>581.22265625</ele>
        <time>2013-12-01T14:24:03Z</time>
      </trkpt>
      <trkpt lat="43.36053" lon="5.99695">
        <ele>580.69140625</ele>
        <time>2013-12-01T14:24:04Z</time>
      </trkpt>
      <trkpt lat="43.36056" lon="5.99699">
        <ele>580.0078125</ele>
        <time>2013-12-01T14:24:05Z</time>
      </trkpt>
      <trkpt lat="43.36059" lon="5.99702">
        <ele>579.2421875</ele>
        <time>2013-12-01T14:24:06Z</time>
      </trkpt>
      <trkpt lat="43.36063" lon="5.99706">
        <ele>578.44921875</ele>
        <time>2013-12-01T14:24:07Z</time>
      </trkpt>
      <trkpt lat="43.36067" lon="5.99709">
        <ele>577.73828125</ele>
        <time>2013-12-01T14:24:08Z</time>
      </trkpt>
      <trkpt lat="43.36075" lon="5.99716">
        <ele>576.3515625</ele>
        <time>2013-12-01T14:24:10Z</time>
      </trkpt>
      <trkpt lat="43.3608" lon="5.99719">
        <ele>575.66015625</ele>
        <time>2013-12-01T14:24:11Z</time>
      </trkpt>
      <trkpt lat="43.36085" lon="5.99722">
        <ele>575.34765625</ele>
        <time>2013-12-01T14:24:12Z</time>
      </trkpt>
      <trkpt lat="43.36089" lon="5.99723">
        <ele>575.3125</ele>
        <time>2013-12-01T14:24:13Z</time>
      </trkpt>
      <trkpt lat="43.36093" lon="5.99725">
        <ele>575.2890625</ele>
        <time>2013-12-01T14:24:14Z</time>
      </trkpt>
      <trkpt lat="43.36095" lon="5.99726">
        <ele>575.1015625</ele>
        <time>2013-12-01T14:24:15Z</time>
      </trkpt>
      <trkpt lat="43.36118" lon="5.99746">
        <ele>574.38671875</ele>
        <time>2013-12-01T14:24:24Z</time>
      </trkpt>
      <trkpt lat="43.3612" lon="5.99748">
        <ele>574.84375</ele>
        <time>2013-12-01T14:24:25Z</time>
      </trkpt>
      <trkpt lat="43.3613" lon="5.99753">
        <ele>576.7109375</ele>
        <time>2013-12-01T14:24:28Z</time>
      </trkpt>
      <trkpt lat="43.36134" lon="5.99755">
        <ele>577.40234375</ele>
        <time>2013-12-01T14:24:29Z</time>
      </trkpt>
      <trkpt lat="43.3615" lon="5.99772">
        <ele>581.796875</ele>
        <time>2013-12-01T14:24:35Z</time>
      </trkpt>
      <trkpt lat="43.36151" lon="5.99775">
        <ele>581.9609375</ele>
        <time>2013-12-01T14:24:36Z</time>
      </trkpt>
      <trkpt lat="43.36154" lon="5.99817">
        <ele>577.77734375</ele>
        <time>2013-12-01T14:24:46Z</time>
      </trkpt>
      <trkpt lat="43.36172" lon="5.99872">
        <ele>575.07421875</ele>
        <time>2013-12-01T14:24:58Z</time>
      </trkpt>
      <trkpt lat="43.3618" lon="5.99892">
        <ele>573.5703125</ele>
        <time>2013-12-01T14:25:02Z</time>
      </trkpt>
      <trkpt lat="43.36183" lon="5.99897">
        <ele>573.16015625</ele>
        <time>2013-12-01T14:25:03Z</time>
      </trkpt>
      <trkpt lat="43.36209" lon="5.99938">
        <ele>569.82421875</ele>
        <time>2013-12-01T14:25:13Z</time>
      </trkpt>
      <trkpt lat="43.36212" lon="5.99942">
        <ele>569.7890625</ele>
        <time>2013-12-01T14:25:14Z</time>
      </trkpt>
      <trkpt lat="43.36216" lon="5.99946">
        <ele>570.0546875</ele>
        <time>2013-12-01T14:25:15Z</time>
      </trkpt>
      <trkpt lat="43.36232" lon="5.99959">
        <ele>570.8125</ele>
        <time>2013-12-01T14:25:19Z</time>
      </trkpt>
      <trkpt lat="43.36262" lon="5.99994">
        <ele>570.3046875</ele>
        <time>2013-12-01T14:25:29Z</time>
      </trkpt>
      <trkpt lat="43.36265" lon="5.99999">
        <ele>569.87109375</ele>
        <time>2013-12-01T14:25:30Z</time>
      </trkpt>
      <trkpt lat="43.36268" lon="6.00004">
        <ele>569.3359375</ele>
        <time>2013-12-01T14:25:31Z</time>
      </trkpt>
      <trkpt lat="43.3627" lon="6.00009">
        <ele>568.73046875</ele>
        <time>2013-12-01T14:25:32Z</time>
      </trkpt>
      <trkpt lat="43.36292" lon="6.00058">
        <ele>563.25390625</ele>
        <time>2013-12-01T14:25:43Z</time>
      </trkpt>
      <trkpt lat="43.36294" lon="6.00062">
        <ele>562.65625</ele>
        <time>2013-12-01T14:25:44Z</time>
      </trkpt>
      <trkpt lat="43.36295" lon="6.00068">
        <ele>562.0078125</ele>
        <time>2013-12-01T14:25:45Z</time>
      </trkpt>
      <trkpt lat="43.36305" lon="6.00109">
        <ele>560.24609375</ele>
        <time>2013-12-01T14:25:52Z</time>
      </trkpt>
      <trkpt lat="43.36306" lon="6.00115">
        <ele>559.6953125</ele>
        <time>2013-12-01T14:25:53Z</time>
      </trkpt>
      <trkpt lat="43.36308" lon="6.0012">
        <ele>558.9921875</ele>
        <time>2013-12-01T14:25:54Z</time>
      </trkpt>
      <trkpt lat="43.36311" lon="6.00124">
        <ele>558.28125</ele>
        <time>2013-12-01T14:25:55Z</time>
      </trkpt>
      <trkpt lat="43.36312" lon="6.00129">
        <ele>557.875</ele>
        <time>2013-12-01T14:25:56Z</time>
      </trkpt>
      <trkpt lat="43.36312" lon="6.00135">
        <ele>557.60546875</ele>
        <time>2013-12-01T14:25:57Z</time>
      </trkpt>
      <trkpt lat="43.36312" lon="6.0014">
        <ele>557.32421875</ele>
        <time>2013-12-01T14:25:58Z</time>
      </trkpt>
      <trkpt lat="43.36312" lon="6.00146">
        <ele>557.05859375</ele>
        <time>2013-12-01T14:25:59Z</time>
      </trkpt>
      <trkpt lat="43.36311" lon="6.00185">
        <ele>556.078125</ele>
        <time>2013-12-01T14:26:06Z</time>
      </trkpt>
      <trkpt lat="43.36311" lon="6.00191">
        <ele>555.79296875</ele>
        <time>2013-12-01T14:26:07Z</time>
      </trkpt>
      <trkpt lat="43.3631" lon="6.00196">
        <ele>555.63671875</ele>
        <time>2013-12-01T14:26:08Z</time>
      </trkpt>
      <trkpt lat="43.36308" lon="6.00201">
        <ele>555.68359375</ele>
        <time>2013-12-01T14:26:09Z</time>
      </trkpt>
      <trkpt lat="43.36307" lon="6.00206">
        <ele>555.78515625</ele>
        <time>2013-12-01T14:26:10Z</time>
      </trkpt>
      <trkpt lat="43.36296" lon="6.00247">
        <ele>553.9765625</ele>
        <time>2013-12-01T14:26:19Z</time>
      </trkpt>
      <trkpt lat="43.36287" lon="6.00263">
        <ele>553.7734375</ele>
        <time>2013-12-01T14:26:24Z</time>
      </trkpt>
      <trkpt lat="43.36283" lon="6.00288">
        <ele>551.9296875</ele>
        <time>2013-12-01T14:26:29Z</time>
      </trkpt>
      <trkpt lat="43.36284" lon="6.00292">
        <ele>551.34765625</ele>
        <time>2013-12-01T14:26:30Z</time>
      </trkpt>
      <trkpt lat="43.36286" lon="6.00294">
        <ele>550.796875</ele>
        <time>2013-12-01T14:26:31Z</time>
      </trkpt>
      <trkpt lat="43.36304" lon="6.00297">
        <ele>546.96875</ele>
        <time>2013-12-01T14:26:37Z</time>
      </trkpt>
      <trkpt lat="43.36307" lon="6.00297">
        <ele>546.23046875</ele>
        <time>2013-12-01T14:26:38Z</time>
      </trkpt>
      <trkpt lat="43.36311" lon="6.00295">
        <ele>545.51171875</ele>
        <time>2013-12-01T14:26:39Z</time>
      </trkpt>
      <trkpt lat="43.36323" lon="6.0029">
        <ele>543.23828125</ele>
        <time>2013-12-01T14:26:42Z</time>
      </trkpt>
      <trkpt lat="43.36327" lon="6.00288">
        <ele>542.53515625</ele>
        <time>2013-12-01T14:26:43Z</time>
      </trkpt>
      <trkpt lat="43.36331" lon="6.00285">
        <ele>542.14453125</ele>
        <time>2013-12-01T14:26:44Z</time>
      </trkpt>
      <trkpt lat="43.36335" lon="6.00281">
        <ele>542.06640625</ele>
        <time>2013-12-01T14:26:45Z</time>
      </trkpt>
      <trkpt lat="43.36345" lon="6.00268">
        <ele>541.734375</ele>
        <time>2013-12-01T14:26:48Z</time>
      </trkpt>
      <trkpt lat="43.36349" lon="6.00263">
        <ele>541.46875</ele>
        <time>2013-12-01T14:26:49Z</time>
      </trkpt>
      <trkpt lat="43.36353" lon="6.00259">
        <ele>541.10546875</ele>
        <time>2013-12-01T14:26:50Z</time>
      </trkpt>
      <trkpt lat="43.36356" lon="6.00254">
        <ele>540.828125</ele>
        <time>2013-12-01T14:26:51Z</time>
      </trkpt>
      <trkpt lat="43.36359" lon="6.00249">
        <ele>540.578125</ele>
        <time>2013-12-01T14:26:52Z</time>
      </trkpt>
      <trkpt lat="43.36362" lon="6.00245">
        <ele>540.4609375</ele>
        <time>2013-12-01T14:26:53Z</time>
      </trkpt>
      <trkpt lat="43.36364" lon="6.00242">
        <ele>540.28515625</ele>
        <time>2013-12-01T14:26:54Z</time>
      </trkpt>
      <trkpt lat="43.3637" lon="6.00234">
        <ele>540.0703125</ele>
        <time>2013-12-01T14:26:56Z</time>
      </trkpt>
      <trkpt lat="43.36372" lon="6.0023">
        <ele>540.1171875</ele>
        <time>2013-12-01T14:26:57Z</time>
      </trkpt>
      <trkpt lat="43.36373" lon="6.00226">
        <ele>540.171875</ele>
        <time>2013-12-01T14:26:58Z</time>
      </trkpt>
      <trkpt lat="43.36375" lon="6.00223">
        <ele>540.14453125</ele>
        <time>2013-12-01T14:26:59Z</time>
      </trkpt>
      <trkpt lat="43.36377" lon="6.00219">
        <ele>540.125</ele>
        <time>2013-12-01T14:27:00Z</time>
      </trkpt>
      <trkpt lat="43.3638" lon="6.00214">
        <ele>540.09375</ele>
        <time>2013-12-01T14:27:01Z</time>
      </trkpt>
      <trkpt lat="43.36382" lon="6.0021">
        <ele>540.03515625</ele>
        <time>2013-12-01T14:27:02Z</time>
      </trkpt>
      <trkpt lat="43.36394" lon="6.00188">
        <ele>541.953125</ele>
        <time>2013-12-01T14:27:06Z</time>
      </trkpt>
      <trkpt lat="43.36397" lon="6.00175">
        <ele>542.75</ele>
        <time>2013-12-01T14:27:14Z</time>
      </trkpt>
      <trkpt lat="43.36399" lon="6.00168">
        <ele>543.2578125</ele>
        <time>2013-12-01T14:27:51Z</time>
      </trkpt>
      <trkpt lat="43.36399" lon="6.00167">
        <ele>543.2734375</ele>
        <time>2013-12-01T14:28:08Z</time>
      </trkpt>
      <trkpt lat="43.36401" lon="6.00165">
        <ele>543.59375</ele>
        <time>2013-12-01T14:28:11Z</time>
      </trkpt>
      <trkpt lat="43.3641" lon="6.00168">
        <ele>544.44921875</ele>
        <time>2013-12-01T14:28:16Z</time>
      </trkpt>
      <trkpt lat="43.36419" lon="6.00174">
        <ele>545.30859375</ele>
        <time>2013-12-01T14:28:19Z</time>
      </trkpt>
      <trkpt lat="43.36435" lon="6.00214">
        <ele>544.65625</ele>
        <time>2013-12-01T14:28:30Z</time>
      </trkpt>
      <trkpt lat="43.36438" lon="6.00225">
        <ele>544.08203125</ele>
        <time>2013-12-01T14:28:34Z</time>
      </trkpt>
      <trkpt lat="43.36441" lon="6.00233">
        <ele>543.87890625</ele>
        <time>2013-12-01T14:28:37Z</time>
      </trkpt>
      <trkpt lat="43.36445" lon="6.00274">
        <ele>540.6953125</ele>
        <time>2013-12-01T14:28:48Z</time>
      </trkpt>
      <trkpt lat="43.36447" lon="6.00276">
        <ele>540.890625</ele>
        <time>2013-12-01T14:28:49Z</time>
      </trkpt>
      <trkpt lat="43.36449" lon="6.00279">
        <ele>541.12109375</ele>
        <time>2013-12-01T14:28:50Z</time>
      </trkpt>
      <trkpt lat="43.36457" lon="6.00284">
        <ele>542.22265625</ele>
        <time>2013-12-01T14:28:53Z</time>
      </trkpt>
      <trkpt lat="43.3646" lon="6.00285">
        <ele>542.7578125</ele>
        <time>2013-12-01T14:28:54Z</time>
      </trkpt>
      <trkpt lat="43.36462" lon="6.00286">
        <ele>543.171875</ele>
        <time>2013-12-01T14:28:55Z</time>
      </trkpt>
      <trkpt lat="43.36464" lon="6.00288">
        <ele>543.53515625</ele>
        <time>2013-12-01T14:28:56Z</time>
      </trkpt>
      <trkpt lat="43.36467" lon="6.0029">
        <ele>544.03515625</ele>
        <time>2013-12-01T14:28:57Z</time>
      </trkpt>
      <trkpt lat="43.3647" lon="6.00291">
        <ele>544.70703125</ele>
        <time>2013-12-01T14:28:58Z</time>
      </trkpt>
      <trkpt lat="43.36473" lon="6.00292">
        <ele>545.5390625</ele>
        <time>2013-12-01T14:28:59Z</time>
      </trkpt>
      <trkpt lat="43.36477" lon="6.00295">
        <ele>546.34375</ele>
        <time>2013-12-01T14:29:00Z</time>
      </trkpt>
      <trkpt lat="43.3648" lon="6.00298">
        <ele>547.12890625</ele>
        <time>2013-12-01T14:29:01Z</time>
      </trkpt>
      <trkpt lat="43.36482" lon="6.00302">
        <ele>547.84765625</ele>
        <time>2013-12-01T14:29:02Z</time>
      </trkpt>
      <trkpt lat="43.36484" lon="6.00305">
        <ele>548.82421875</ele>
        <time>2013-12-01T14:29:03Z</time>
      </trkpt>
      <trkpt lat="43.36487" lon="6.00314">
        <ele>550.63671875</ele>
        <time>2013-12-01T14:29:05Z</time>
      </trkpt>
      <trkpt lat="43.36486" lon="6.00324">
        <ele>551.38671875</ele>
        <time>2013-12-01T14:29:07Z</time>
      </trkpt>
      <trkpt lat="43.36485" lon="6.00328">
        <ele>551.48046875</ele>
        <time>2013-12-01T14:29:08Z</time>
      </trkpt>
      <trkpt lat="43.36484" lon="6.00332">
        <ele>551.80078125</ele>
        <time>2013-12-01T14:29:09Z</time>
      </trkpt>
      <trkpt lat="43.36484" lon="6.00335">
        <ele>552.171875</ele>
        <time>2013-12-01T14:29:10Z</time>
      </trkpt>
      <trkpt lat="43.36485" lon="6.00338">
        <ele>552.671875</ele>
        <time>2013-12-01T14:29:11Z</time>
      </trkpt>
      <trkpt lat="43.36485" lon="6.00342">
        <ele>552.9609375</ele>
        <time>2013-12-01T14:29:12Z</time>
      </trkpt>
      <trkpt lat="43.36484" lon="6.00345">
        <ele>552.98046875</ele>
        <time>2013-12-01T14:29:13Z</time>
      </trkpt>
      <trkpt lat="43.36482" lon="6.00347">
        <ele>552.91796875</ele>
        <time>2013-12-01T14:29:14Z</time>
      </trkpt>
      <trkpt lat="43.36481" lon="6.0035">
        <ele>552.859375</ele>
        <time>2013-12-01T14:29:15Z</time>
      </trkpt>
      <trkpt lat="43.3648" lon="6.00352">
        <ele>552.828125</ele>
        <time>2013-12-01T14:29:16Z</time>
      </trkpt>
      <trkpt lat="43.36469" lon="6.00383">
        <ele>554.765625</ele>
        <time>2013-12-01T14:29:28Z</time>
      </trkpt>
      <trkpt lat="43.36466" lon="6.00391">
        <ele>555.00390625</ele>
        <time>2013-12-01T14:29:32Z</time>
      </trkpt>
      <trkpt lat="43.36465" lon="6.00393">
        <ele>555.14453125</ele>
        <time>2013-12-01T14:29:33Z</time>
      </trkpt>
      <trkpt lat="43.36464" lon="6.00397">
        <ele>555.27734375</ele>
        <time>2013-12-01T14:29:35Z</time>
      </trkpt>
      <trkpt lat="43.36462" lon="6.004">
        <ele>555.19140625</ele>
        <time>2013-12-01T14:29:37Z</time>
      </trkpt>
      <trkpt lat="43.36461" lon="6.00402">
        <ele>555.2421875</ele>
        <time>2013-12-01T14:29:38Z</time>
      </trkpt>
      <trkpt lat="43.3646" lon="6.00405">
        <ele>555.37890625</ele>
        <time>2013-12-01T14:29:39Z</time>
      </trkpt>
      <trkpt lat="43.36457" lon="6.0042">
        <ele>555.9609375</ele>
        <time>2013-12-01T14:29:52Z</time>
      </trkpt>
      <trkpt lat="43.36456" lon="6.00422">
        <ele>555.84375</ele>
        <time>2013-12-01T14:30:26Z</time>
      </trkpt>
      <trkpt lat="43.36457" lon="6.00417">
        <ele>555.8359375</ele>
        <time>2013-12-01T14:30:42Z</time>
      </trkpt>
      <trkpt lat="43.36458" lon="6.00416">
        <ele>555.87109375</ele>
        <time>2013-12-01T14:31:09Z</time>
      </trkpt>
      <trkpt lat="43.36459" lon="6.00414">
        <ele>555.94921875</ele>
        <time>2013-12-01T14:31:13Z</time>
      </trkpt>
      <trkpt lat="43.36459" lon="6.00411">
        <ele>555.8671875</ele>
        <time>2013-12-01T14:31:14Z</time>
      </trkpt>
      <trkpt lat="43.3646" lon="6.00408">
        <ele>555.57421875</ele>
        <time>2013-12-01T14:31:15Z</time>
      </trkpt>
      <trkpt lat="43.36461" lon="6.00404">
        <ele>555.40625</ele>
        <time>2013-12-01T14:31:16Z</time>
      </trkpt>
      <trkpt lat="43.36463" lon="6.004">
        <ele>555.3125</ele>
        <time>2013-12-01T14:31:17Z</time>
      </trkpt>
      <trkpt lat="43.36464" lon="6.00396">
        <ele>555.2265625</ele>
        <time>2013-12-01T14:31:18Z</time>
      </trkpt>
      <trkpt lat="43.36466" lon="6.00393">
        <ele>555.28125</ele>
        <time>2013-12-01T14:31:19Z</time>
      </trkpt>
      <trkpt lat="43.36467" lon="6.00391">
        <ele>555.30078125</ele>
        <time>2013-12-01T14:31:20Z</time>
      </trkpt>
      <trkpt lat="43.36469" lon="6.00387">
        <ele>555.3125</ele>
        <time>2013-12-01T14:31:21Z</time>
      </trkpt>
      <trkpt lat="43.36472" lon="6.00382">
        <ele>555.3984375</ele>
        <time>2013-12-01T14:31:22Z</time>
      </trkpt>
      <trkpt lat="43.36474" lon="6.00378">
        <ele>555.1640625</ele>
        <time>2013-12-01T14:31:23Z</time>
      </trkpt>
      <trkpt lat="43.36475" lon="6.00373">
        <ele>554.671875</ele>
        <time>2013-12-01T14:31:24Z</time>
      </trkpt>
      <trkpt lat="43.36477" lon="6.00368">
        <ele>554.2421875</ele>
        <time>2013-12-01T14:31:25Z</time>
      </trkpt>
      <trkpt lat="43.36479" lon="6.00364">
        <ele>554.0625</ele>
        <time>2013-12-01T14:31:26Z</time>
      </trkpt>
      <trkpt lat="43.36486" lon="6.00337">
        <ele>552.88671875</ele>
        <time>2013-12-01T14:31:34Z</time>
      </trkpt>
      <trkpt lat="43.36487" lon="6.00335">
        <ele>553.00390625</ele>
        <time>2013-12-01T14:31:37Z</time>
      </trkpt>
      <trkpt lat="43.36488" lon="6.00333">
        <ele>553.03125</ele>
        <time>2013-12-01T14:31:38Z</time>
      </trkpt>
      <trkpt lat="43.36489" lon="6.00331">
        <ele>553.046875</ele>
        <time>2013-12-01T14:31:39Z</time>
      </trkpt>
      <trkpt lat="43.3649" lon="6.00329">
        <ele>552.97265625</ele>
        <time>2013-12-01T14:31:40Z</time>
      </trkpt>
      <trkpt lat="43.36489" lon="6.00326">
        <ele>552.59375</ele>
        <time>2013-12-01T14:31:41Z</time>
      </trkpt>
      <trkpt lat="43.36488" lon="6.00322">
        <ele>551.85546875</ele>
        <time>2013-12-01T14:31:42Z</time>
      </trkpt>
      <trkpt lat="43.36482" lon="6.00309">
        <ele>548.5234375</ele>
        <time>2013-12-01T14:31:46Z</time>
      </trkpt>
      <trkpt lat="43.36479" lon="6.00307">
        <ele>547.609375</ele>
        <time>2013-12-01T14:31:47Z</time>
      </trkpt>
      <trkpt lat="43.36477" lon="6.00304">
        <ele>546.6640625</ele>
        <time>2013-12-01T14:31:48Z</time>
      </trkpt>
      <trkpt lat="43.36475" lon="6.00302">
        <ele>545.78515625</ele>
        <time>2013-12-01T14:31:49Z</time>
      </trkpt>
      <trkpt lat="43.36467" lon="6.00299">
        <ele>543.74609375</ele>
        <time>2013-12-01T14:31:52Z</time>
      </trkpt>
      <trkpt lat="43.36463" lon="6.00295">
        <ele>543.0625</ele>
        <time>2013-12-01T14:31:54Z</time>
      </trkpt>
      <trkpt lat="43.36454" lon="6.0029">
        <ele>541.37890625</ele>
        <time>2013-12-01T14:31:58Z</time>
      </trkpt>
      <trkpt lat="43.36448" lon="6.0028">
        <ele>540.75</ele>
        <time>2013-12-01T14:32:09Z</time>
      </trkpt>
      <trkpt lat="43.36447" lon="6.00278">
        <ele>540.71875</ele>
        <time>2013-12-01T14:32:10Z</time>
      </trkpt>
      <trkpt lat="43.36444" lon="6.00271">
        <ele>540.70703125</ele>
        <time>2013-12-01T14:32:15Z</time>
      </trkpt>
      <trkpt lat="43.36442" lon="6.00263">
        <ele>541.25</ele>
        <time>2013-12-01T14:32:32Z</time>
      </trkpt>
      <trkpt lat="43.36442" lon="6.00262">
        <ele>541.34765625</ele>
        <time>2013-12-01T14:32:33Z</time>
      </trkpt>
      <trkpt lat="43.36443" lon="6.0025">
        <ele>542.796875</ele>
        <time>2013-12-01T14:32:38Z</time>
      </trkpt>
      <trkpt lat="43.36443" lon="6.00247">
        <ele>543.02734375</ele>
        <time>2013-12-01T14:32:39Z</time>
      </trkpt>
      <trkpt lat="43.36442" lon="6.00244">
        <ele>543.21875</ele>
        <time>2013-12-01T14:32:40Z</time>
      </trkpt>
      <trkpt lat="43.36439" lon="6.00231">
        <ele>543.7578125</ele>
        <time>2013-12-01T14:32:44Z</time>
      </trkpt>
      <trkpt lat="43.36437" lon="6.00223">
        <ele>544.1015625</ele>
        <time>2013-12-01T14:32:46Z</time>
      </trkpt>
      <trkpt lat="43.36436" lon="6.00216">
        <ele>544.60546875</ele>
        <time>2013-12-01T14:32:48Z</time>
      </trkpt>
      <trkpt lat="43.36434" lon="6.002">
        <ele>545.546875</ele>
        <time>2013-12-01T14:32:51Z</time>
      </trkpt>
      <trkpt lat="43.36415" lon="6.00174">
        <ele>544.7421875</ele>
        <time>2013-12-01T14:32:59Z</time>
      </trkpt>
      <trkpt lat="43.36401" lon="6.00175">
        <ele>543.1953125</ele>
        <time>2013-12-01T14:33:04Z</time>
      </trkpt>
      <trkpt lat="43.36399" lon="6.00178">
        <ele>542.87890625</ele>
        <time>2013-12-01T14:33:05Z</time>
      </trkpt>
      <trkpt lat="43.36397" lon="6.00182">
        <ele>542.55078125</ele>
        <time>2013-12-01T14:33:06Z</time>
      </trkpt>
      <trkpt lat="43.36396" lon="6.00189">
        <ele>542.08984375</ele>
        <time>2013-12-01T14:33:08Z</time>
      </trkpt>
      <trkpt lat="43.36396" lon="6.00193">
        <ele>541.8828125</ele>
        <time>2013-12-01T14:33:09Z</time>
      </trkpt>
      <trkpt lat="43.36396" lon="6.00197">
        <ele>541.671875</ele>
        <time>2013-12-01T14:33:10Z</time>
      </trkpt>
      <trkpt lat="43.36397" lon="6.00202">
        <ele>541.328125</ele>
        <time>2013-12-01T14:33:11Z</time>
      </trkpt>
      <trkpt lat="43.36396" lon="6.00216">
        <ele>540.265625</ele>
        <time>2013-12-01T14:33:17Z</time>
      </trkpt>
      <trkpt lat="43.36396" lon="6.00238">
        <ele>538.375</ele>
        <time>2013-12-01T14:33:27Z</time>
      </trkpt>
      <trkpt lat="43.36394" lon="6.00245">
        <ele>537.59765625</ele>
        <time>2013-12-01T14:33:30Z</time>
      </trkpt>
      <trkpt lat="43.36393" lon="6.0025">
        <ele>537.01953125</ele>
        <time>2013-12-01T14:33:32Z</time>
      </trkpt>
      <trkpt lat="43.36394" lon="6.00266">
        <ele>535.59765625</ele>
        <time>2013-12-01T14:33:38Z</time>
      </trkpt>
      <trkpt lat="43.36392" lon="6.00283">
        <ele>533.89453125</ele>
        <time>2013-12-01T14:33:44Z</time>
      </trkpt>
      <trkpt lat="43.36394" lon="6.00295">
        <ele>533.07421875</ele>
        <time>2013-12-01T14:33:47Z</time>
      </trkpt>
      <trkpt lat="43.36391" lon="6.00309">
        <ele>532.52734375</ele>
        <time>2013-12-01T14:33:51Z</time>
      </trkpt>
      <trkpt lat="43.36387" lon="6.00349">
        <ele>532.328125</ele>
        <time>2013-12-01T14:34:01Z</time>
      </trkpt>
      <trkpt lat="43.36378" lon="6.00372">
        <ele>532.39453125</ele>
        <time>2013-12-01T14:34:07Z</time>
      </trkpt>
      <trkpt lat="43.36368" lon="6.00383">
        <ele>531.20703125</ele>
        <time>2013-12-01T14:34:18Z</time>
      </trkpt>
      <trkpt lat="43.36365" lon="6.00387">
        <ele>530.82421875</ele>
        <time>2013-12-01T14:34:23Z</time>
      </trkpt>
      <trkpt lat="43.36357" lon="6.00395">
        <ele>529.32421875</ele>
        <time>2013-12-01T14:34:37Z</time>
      </trkpt>
      <trkpt lat="43.36353" lon="6.00401">
        <ele>528.8203125</ele>
        <time>2013-12-01T14:34:44Z</time>
      </trkpt>
      <trkpt lat="43.3634" lon="6.00416">
        <ele>526.8359375</ele>
        <time>2013-12-01T14:34:51Z</time>
      </trkpt>
      <trkpt lat="43.36331" lon="6.00445">
        <ele>524.33203125</ele>
        <time>2013-12-01T14:35:02Z</time>
      </trkpt>
      <trkpt lat="43.36333" lon="6.00465">
        <ele>524.796875</ele>
        <time>2013-12-01T14:35:07Z</time>
      </trkpt>
      <trkpt lat="43.36329" lon="6.00494">
        <ele>523.90625</ele>
        <time>2013-12-01T14:35:17Z</time>
      </trkpt>
      <trkpt lat="43.36325" lon="6.00507">
        <ele>523.83984375</ele>
        <time>2013-12-01T14:35:27Z</time>
      </trkpt>
      <trkpt lat="43.36323" lon="6.00516">
        <ele>523.86328125</ele>
        <time>2013-12-01T14:35:40Z</time>
      </trkpt>
      <trkpt lat="43.36322" lon="6.00521">
        <ele>523.83984375</ele>
        <time>2013-12-01T14:35:44Z</time>
      </trkpt>
      <trkpt lat="43.36321" lon="6.00524">
        <ele>523.75390625</ele>
        <time>2013-12-01T14:35:46Z</time>
      </trkpt>
      <trkpt lat="43.36305" lon="6.00556">
        <ele>521.12890625</ele>
        <time>2013-12-01T14:35:58Z</time>
      </trkpt>
      <trkpt lat="43.36279" lon="6.00595">
        <ele>515.73828125</ele>
        <time>2013-12-01T14:36:08Z</time>
      </trkpt>
      <trkpt lat="43.36259" lon="6.00621">
        <ele>511.9765625</ele>
        <time>2013-12-01T14:36:16Z</time>
      </trkpt>
      <trkpt lat="43.36236" lon="6.00633">
        <ele>506.0859375</ele>
        <time>2013-12-01T14:36:24Z</time>
      </trkpt>
      <trkpt lat="43.36233" lon="6.00635">
        <ele>505.57421875</ele>
        <time>2013-12-01T14:36:25Z</time>
      </trkpt>
      <trkpt lat="43.36203" lon="6.00655">
        <ele>499.85546875</ele>
        <time>2013-12-01T14:36:35Z</time>
      </trkpt>
      <trkpt lat="43.36202" lon="6.00658">
        <ele>499.4765625</ele>
        <time>2013-12-01T14:36:36Z</time>
      </trkpt>
      <trkpt lat="43.36202" lon="6.00663">
        <ele>499.20703125</ele>
        <time>2013-12-01T14:36:37Z</time>
      </trkpt>
      <trkpt lat="43.36201" lon="6.00668">
        <ele>499.10546875</ele>
        <time>2013-12-01T14:36:38Z</time>
      </trkpt>
      <trkpt lat="43.362" lon="6.00674">
        <ele>498.8046875</ele>
        <time>2013-12-01T14:36:39Z</time>
      </trkpt>
      <trkpt lat="43.36199" lon="6.00679">
        <ele>498.4296875</ele>
        <time>2013-12-01T14:36:40Z</time>
      </trkpt>
      <trkpt lat="43.36196" lon="6.00703">
        <ele>496.37890625</ele>
        <time>2013-12-01T14:36:45Z</time>
      </trkpt>
      <trkpt lat="43.36191" lon="6.0074">
        <ele>493.1875</ele>
        <time>2013-12-01T14:36:52Z</time>
      </trkpt>
      <trkpt lat="43.36191" lon="6.00767">
        <ele>493.01953125</ele>
        <time>2013-12-01T14:36:59Z</time>
      </trkpt>
      <trkpt lat="43.3619" lon="6.00771">
        <ele>492.7578125</ele>
        <time>2013-12-01T14:37:00Z</time>
      </trkpt>
      <trkpt lat="43.36187" lon="6.00773">
        <ele>492.234375</ele>
        <time>2013-12-01T14:37:01Z</time>
      </trkpt>
      <trkpt lat="43.36185" lon="6.00774">
        <ele>491.76953125</ele>
        <time>2013-12-01T14:37:02Z</time>
      </trkpt>
      <trkpt lat="43.36183" lon="6.00776">
        <ele>491.453125</ele>
        <time>2013-12-01T14:37:03Z</time>
      </trkpt>
      <trkpt lat="43.36182" lon="6.00778">
        <ele>491.18359375</ele>
        <time>2013-12-01T14:37:04Z</time>
      </trkpt>
      <trkpt lat="43.36178" lon="6.00784">
        <ele>490.48046875</ele>
        <time>2013-12-01T14:37:13Z</time>
      </trkpt>
      <trkpt lat="43.36177" lon="6.00786">
        <ele>490.18359375</ele>
        <time>2013-12-01T14:37:15Z</time>
      </trkpt>
      <trkpt lat="43.36179" lon="6.00793">
        <ele>490.515625</ele>
        <time>2013-12-01T14:37:19Z</time>
      </trkpt>
      <trkpt lat="43.36179" lon="6.00796">
        <ele>490.5078125</ele>
        <time>2013-12-01T14:37:20Z</time>
      </trkpt>
      <trkpt lat="43.36179" lon="6.00802">
        <ele>490.25</ele>
        <time>2013-12-01T14:37:22Z</time>
      </trkpt>
      <trkpt lat="43.3618" lon="6.00804">
        <ele>490.34375</ele>
        <time>2013-12-01T14:37:23Z</time>
      </trkpt>
      <trkpt lat="43.36181" lon="6.00806">
        <ele>490.48046875</ele>
        <time>2013-12-01T14:37:32Z</time>
      </trkpt>
      <trkpt lat="43.36185" lon="6.00807">
        <ele>491.3046875</ele>
        <time>2013-12-01T14:37:34Z</time>
      </trkpt>
      <trkpt lat="43.36187" lon="6.00806">
        <ele>491.95703125</ele>
        <time>2013-12-01T14:37:35Z</time>
      </trkpt>
      <trkpt lat="43.36191" lon="6.00806">
        <ele>492.66796875</ele>
        <time>2013-12-01T14:37:36Z</time>
      </trkpt>
      <trkpt lat="43.36194" lon="6.00806">
        <ele>493.43359375</ele>
        <time>2013-12-01T14:37:37Z</time>
      </trkpt>
      <trkpt lat="43.36198" lon="6.00818">
        <ele>494.203125</ele>
        <time>2013-12-01T14:37:41Z</time>
      </trkpt>
      <trkpt lat="43.36197" lon="6.0082">
        <ele>493.71484375</ele>
        <time>2013-12-01T14:37:42Z</time>
      </trkpt>
      <trkpt lat="43.36195" lon="6.00822">
        <ele>493.05078125</ele>
        <time>2013-12-01T14:37:43Z</time>
      </trkpt>
      <trkpt lat="43.36192" lon="6.00826">
        <ele>492.26953125</ele>
        <time>2013-12-01T14:37:44Z</time>
      </trkpt>
      <trkpt lat="43.3619" lon="6.0083">
        <ele>491.5234375</ele>
        <time>2013-12-01T14:37:45Z</time>
      </trkpt>
      <trkpt lat="43.36188" lon="6.00835">
        <ele>490.7109375</ele>
        <time>2013-12-01T14:37:46Z</time>
      </trkpt>
      <trkpt lat="43.36185" lon="6.00839">
        <ele>489.9140625</ele>
        <time>2013-12-01T14:37:47Z</time>
      </trkpt>
      <trkpt lat="43.36177" lon="6.00857">
        <ele>486.91796875</ele>
        <time>2013-12-01T14:37:53Z</time>
      </trkpt>
      <trkpt lat="43.36177" lon="6.0086">
        <ele>486.48828125</ele>
        <time>2013-12-01T14:37:54Z</time>
      </trkpt>
      <trkpt lat="43.36178" lon="6.00887">
        <ele>482.53125</ele>
        <time>2013-12-01T14:38:01Z</time>
      </trkpt>
      <trkpt lat="43.36177" lon="6.00891">
        <ele>481.68359375</ele>
        <time>2013-12-01T14:38:02Z</time>
      </trkpt>
      <trkpt lat="43.36175" lon="6.00896">
        <ele>480.59765625</ele>
        <time>2013-12-01T14:38:03Z</time>
      </trkpt>
      <trkpt lat="43.36173" lon="6.00901">
        <ele>479.453125</ele>
        <time>2013-12-01T14:38:04Z</time>
      </trkpt>
      <trkpt lat="43.36171" lon="6.00907">
        <ele>478.3671875</ele>
        <time>2013-12-01T14:38:05Z</time>
      </trkpt>
      <trkpt lat="43.36166" lon="6.0092">
        <ele>476.859375</ele>
        <time>2013-12-01T14:38:08Z</time>
      </trkpt>
      <trkpt lat="43.3617" lon="6.00944">
        <ele>476.33203125</ele>
        <time>2013-12-01T14:38:13Z</time>
      </trkpt>
      <trkpt lat="43.36173" lon="6.00948">
        <ele>476.44140625</ele>
        <time>2013-12-01T14:38:14Z</time>
      </trkpt>
      <trkpt lat="43.36175" lon="6.00952">
        <ele>476.4921875</ele>
        <time>2013-12-01T14:38:15Z</time>
      </trkpt>
      <trkpt lat="43.36177" lon="6.00956">
        <ele>476.5078125</ele>
        <time>2013-12-01T14:38:16Z</time>
      </trkpt>
      <trkpt lat="43.36177" lon="6.00961">
        <ele>476.51171875</ele>
        <time>2013-12-01T14:38:17Z</time>
      </trkpt>
      <trkpt lat="43.36177" lon="6.00966">
        <ele>476.5078125</ele>
        <time>2013-12-01T14:38:18Z</time>
      </trkpt>
      <trkpt lat="43.36182" lon="6.00982">
        <ele>475.8359375</ele>
        <time>2013-12-01T14:38:22Z</time>
      </trkpt>
      <trkpt lat="43.36195" lon="6.01002">
        <ele>475.0703125</ele>
        <time>2013-12-01T14:38:29Z</time>
      </trkpt>
      <trkpt lat="43.36201" lon="6.01054">
        <ele>473.37890625</ele>
        <time>2013-12-01T14:38:41Z</time>
      </trkpt>
      <trkpt lat="43.36206" lon="6.01079">
        <ele>471.953125</ele>
        <time>2013-12-01T14:38:46Z</time>
      </trkpt>
      <trkpt lat="43.36208" lon="6.01091">
        <ele>470.99609375</ele>
        <time>2013-12-01T14:38:48Z</time>
      </trkpt>
      <trkpt lat="43.36211" lon="6.01103">
        <ele>470.18359375</ele>
        <time>2013-12-01T14:38:50Z</time>
      </trkpt>
      <trkpt lat="43.36214" lon="6.01109">
        <ele>469.84375</ele>
        <time>2013-12-01T14:38:51Z</time>
      </trkpt>
      <trkpt lat="43.36216" lon="6.01114">
        <ele>469.52734375</ele>
        <time>2013-12-01T14:38:52Z</time>
      </trkpt>
      <trkpt lat="43.36217" lon="6.01118">
        <ele>469.140625</ele>
        <time>2013-12-01T14:38:53Z</time>
      </trkpt>
      <trkpt lat="43.36219" lon="6.01121">
        <ele>468.734375</ele>
        <time>2013-12-01T14:38:54Z</time>
      </trkpt>
      <trkpt lat="43.3622" lon="6.01125">
        <ele>468.50390625</ele>
        <time>2013-12-01T14:38:55Z</time>
      </trkpt>
      <trkpt lat="43.36222" lon="6.01127">
        <ele>468.3203125</ele>
        <time>2013-12-01T14:38:56Z</time>
      </trkpt>
      <trkpt lat="43.36236" lon="6.01136">
        <ele>468.58984375</ele>
        <time>2013-12-01T14:39:02Z</time>
      </trkpt>
      <trkpt lat="43.3624" lon="6.0114">
        <ele>468.45703125</ele>
        <time>2013-12-01T14:39:04Z</time>
      </trkpt>
      <trkpt lat="43.3624" lon="6.01144">
        <ele>467.88671875</ele>
        <time>2013-12-01T14:39:05Z</time>
      </trkpt>
      <trkpt lat="43.36239" lon="6.01149">
        <ele>467.11328125</ele>
        <time>2013-12-01T14:39:06Z</time>
      </trkpt>
      <trkpt lat="43.3624" lon="6.01171">
        <ele>466.390625</ele>
        <time>2013-12-01T14:39:11Z</time>
      </trkpt>
      <trkpt lat="43.36242" lon="6.01176">
        <ele>467</ele>
        <time>2013-12-01T14:39:12Z</time>
      </trkpt>
      <trkpt lat="43.36247" lon="6.01189">
        <ele>468.95703125</ele>
        <time>2013-12-01T14:39:15Z</time>
      </trkpt>
      <trkpt lat="43.36246" lon="6.01193">
        <ele>469.50390625</ele>
        <time>2013-12-01T14:39:16Z</time>
      </trkpt>
      <trkpt lat="43.36245" lon="6.01196">
        <ele>469.81640625</ele>
        <time>2013-12-01T14:39:17Z</time>
      </trkpt>
      <trkpt lat="43.36239" lon="6.01208">
        <ele>470.76953125</ele>
        <time>2013-12-01T14:39:21Z</time>
      </trkpt>
      <trkpt lat="43.36237" lon="6.0121">
        <ele>470.859375</ele>
        <time>2013-12-01T14:39:22Z</time>
      </trkpt>
      <trkpt lat="43.36235" lon="6.01213">
        <ele>470.90234375</ele>
        <time>2013-12-01T14:39:23Z</time>
      </trkpt>
      <trkpt lat="43.36234" lon="6.01215">
        <ele>470.9921875</ele>
        <time>2013-12-01T14:39:24Z</time>
      </trkpt>
      <trkpt lat="43.36233" lon="6.01218">
        <ele>471.0859375</ele>
        <time>2013-12-01T14:39:25Z</time>
      </trkpt>
      <trkpt lat="43.36232" lon="6.0122">
        <ele>471.23828125</ele>
        <time>2013-12-01T14:39:26Z</time>
      </trkpt>
      <trkpt lat="43.3623" lon="6.01223">
        <ele>471.44140625</ele>
        <time>2013-12-01T14:39:27Z</time>
      </trkpt>
      <trkpt lat="43.36217" lon="6.01255">
        <ele>472.69140625</ele>
        <time>2013-12-01T14:39:37Z</time>
      </trkpt>
      <trkpt lat="43.36198" lon="6.01298">
        <ele>470.015625</ele>
        <time>2013-12-01T14:39:47Z</time>
      </trkpt>
      <trkpt lat="43.36197" lon="6.01303">
        <ele>469.72265625</ele>
        <time>2013-12-01T14:39:48Z</time>
      </trkpt>
      <trkpt lat="43.36195" lon="6.01309">
        <ele>469.3515625</ele>
        <time>2013-12-01T14:39:49Z</time>
      </trkpt>
      <trkpt lat="43.36193" lon="6.01313">
        <ele>468.9453125</ele>
        <time>2013-12-01T14:39:50Z</time>
      </trkpt>
      <trkpt lat="43.36192" lon="6.01318">
        <ele>468.578125</ele>
        <time>2013-12-01T14:39:51Z</time>
      </trkpt>
      <trkpt lat="43.3619" lon="6.01323">
        <ele>468.31640625</ele>
        <time>2013-12-01T14:39:52Z</time>
      </trkpt>
      <trkpt lat="43.36189" lon="6.01329">
        <ele>468.25390625</ele>
        <time>2013-12-01T14:39:53Z</time>
      </trkpt>
      <trkpt lat="43.36188" lon="6.01335">
        <ele>468.30078125</ele>
        <time>2013-12-01T14:39:54Z</time>
      </trkpt>
      <trkpt lat="43.36187" lon="6.0134">
        <ele>468.2890625</ele>
        <time>2013-12-01T14:39:55Z</time>
      </trkpt>
      <trkpt lat="43.36186" lon="6.01345">
        <ele>468.0859375</ele>
        <time>2013-12-01T14:39:56Z</time>
      </trkpt>
      <trkpt lat="43.36185" lon="6.0135">
        <ele>467.9375</ele>
        <time>2013-12-01T14:39:57Z</time>
      </trkpt>
      <trkpt lat="43.36184" lon="6.01355">
        <ele>467.7890625</ele>
        <time>2013-12-01T14:39:58Z</time>
      </trkpt>
      <trkpt lat="43.36179" lon="6.01375">
        <ele>467.15625</ele>
        <time>2013-12-01T14:40:02Z</time>
      </trkpt>
      <trkpt lat="43.36176" lon="6.01382">
        <ele>466.08984375</ele>
        <time>2013-12-01T14:40:04Z</time>
      </trkpt>
      <trkpt lat="43.36174" lon="6.01384">
        <ele>465.27734375</ele>
        <time>2013-12-01T14:40:08Z</time>
      </trkpt>
      <trkpt lat="43.36168" lon="6.01391">
        <ele>462.68359375</ele>
        <time>2013-12-01T14:40:14Z</time>
      </trkpt>
      <trkpt lat="43.36167" lon="6.01396">
        <ele>462.54296875</ele>
        <time>2013-12-01T14:40:17Z</time>
      </trkpt>
      <trkpt lat="43.36166" lon="6.014">
        <ele>462.3984375</ele>
        <time>2013-12-01T14:40:20Z</time>
      </trkpt>
      <trkpt lat="43.36165" lon="6.01402">
        <ele>462.19140625</ele>
        <time>2013-12-01T14:40:21Z</time>
      </trkpt>
      <trkpt lat="43.36165" lon="6.01404">
        <ele>462.13671875</ele>
        <time>2013-12-01T14:40:22Z</time>
      </trkpt>
      <trkpt lat="43.36165" lon="6.01406">
        <ele>462.31640625</ele>
        <time>2013-12-01T14:40:23Z</time>
      </trkpt>
      <trkpt lat="43.36165" lon="6.0141">
        <ele>462.546875</ele>
        <time>2013-12-01T14:40:24Z</time>
      </trkpt>
      <trkpt lat="43.36164" lon="6.01418">
        <ele>462.734375</ele>
        <time>2013-12-01T14:40:26Z</time>
      </trkpt>
      <trkpt lat="43.36135" lon="6.01451">
        <ele>457.22265625</ele>
        <time>2013-12-01T14:40:36Z</time>
      </trkpt>
      <trkpt lat="43.36124" lon="6.01462">
        <ele>456.3046875</ele>
        <time>2013-12-01T14:40:39Z</time>
      </trkpt>
      <trkpt lat="43.36121" lon="6.01466">
        <ele>455.76171875</ele>
        <time>2013-12-01T14:40:40Z</time>
      </trkpt>
      <trkpt lat="43.36113" lon="6.01476">
        <ele>454.88671875</ele>
        <time>2013-12-01T14:40:42Z</time>
      </trkpt>
      <trkpt lat="43.36092" lon="6.01496">
        <ele>452.83203125</ele>
        <time>2013-12-01T14:40:47Z</time>
      </trkpt>
      <trkpt lat="43.36085" lon="6.01505">
        <ele>451.95703125</ele>
        <time>2013-12-01T14:40:49Z</time>
      </trkpt>
      <trkpt lat="43.36082" lon="6.0151">
        <ele>451.40234375</ele>
        <time>2013-12-01T14:40:50Z</time>
      </trkpt>
      <trkpt lat="43.36079" lon="6.01514">
        <ele>450.7890625</ele>
        <time>2013-12-01T14:40:51Z</time>
      </trkpt>
      <trkpt lat="43.36077" lon="6.01518">
        <ele>450.22265625</ele>
        <time>2013-12-01T14:40:52Z</time>
      </trkpt>
      <trkpt lat="43.36075" lon="6.01522">
        <ele>449.640625</ele>
        <time>2013-12-01T14:40:53Z</time>
      </trkpt>
      <trkpt lat="43.36074" lon="6.01527">
        <ele>449.7109375</ele>
        <time>2013-12-01T14:40:54Z</time>
      </trkpt>
      <trkpt lat="43.36073" lon="6.01532">
        <ele>449.88671875</ele>
        <time>2013-12-01T14:40:55Z</time>
      </trkpt>
      <trkpt lat="43.36072" lon="6.01538">
        <ele>449.97265625</ele>
        <time>2013-12-01T14:40:56Z</time>
      </trkpt>
      <trkpt lat="43.3607" lon="6.01544">
        <ele>449.99609375</ele>
        <time>2013-12-01T14:40:57Z</time>
      </trkpt>
      <trkpt lat="43.36069" lon="6.01549">
        <ele>449.796875</ele>
        <time>2013-12-01T14:40:58Z</time>
      </trkpt>
      <trkpt lat="43.36067" lon="6.01554">
        <ele>449.7265625</ele>
        <time>2013-12-01T14:40:59Z</time>
      </trkpt>
      <trkpt lat="43.36052" lon="6.01583">
        <ele>447.1796875</ele>
        <time>2013-12-01T14:41:05Z</time>
      </trkpt>
      <trkpt lat="43.36048" lon="6.01586">
        <ele>446.546875</ele>
        <time>2013-12-01T14:41:06Z</time>
      </trkpt>
      <trkpt lat="43.36044" lon="6.01586">
        <ele>445.83984375</ele>
        <time>2013-12-01T14:41:07Z</time>
      </trkpt>
      <trkpt lat="43.3604" lon="6.01586">
        <ele>445.11328125</ele>
        <time>2013-12-01T14:41:08Z</time>
      </trkpt>
      <trkpt lat="43.36037" lon="6.01584">
        <ele>444.4453125</ele>
        <time>2013-12-01T14:41:09Z</time>
      </trkpt>
      <trkpt lat="43.36034" lon="6.01581">
        <ele>443.80078125</ele>
        <time>2013-12-01T14:41:10Z</time>
      </trkpt>
      <trkpt lat="43.36021" lon="6.01569">
        <ele>442.0390625</ele>
        <time>2013-12-01T14:41:15Z</time>
      </trkpt>
      <trkpt lat="43.36018" lon="6.01569">
        <ele>441.83203125</ele>
        <time>2013-12-01T14:41:16Z</time>
      </trkpt>
      <trkpt lat="43.36014" lon="6.0157">
        <ele>441.46875</ele>
        <time>2013-12-01T14:41:17Z</time>
      </trkpt>
      <trkpt lat="43.36011" lon="6.01571">
        <ele>441.11328125</ele>
        <time>2013-12-01T14:41:18Z</time>
      </trkpt>
      <trkpt lat="43.36009" lon="6.01571">
        <ele>440.921875</ele>
        <time>2013-12-01T14:41:19Z</time>
      </trkpt>
      <trkpt lat="43.36001" lon="6.0157">
        <ele>440.46875</ele>
        <time>2013-12-01T14:41:23Z</time>
      </trkpt>
      <trkpt lat="43.36" lon="6.01569">
        <ele>440.4609375</ele>
        <time>2013-12-01T14:41:24Z</time>
      </trkpt>
      <trkpt lat="43.35998" lon="6.01569">
        <ele>440.421875</ele>
        <time>2013-12-01T14:41:26Z</time>
      </trkpt>
      <trkpt lat="43.35996" lon="6.01569">
        <ele>440.265625</ele>
        <time>2013-12-01T14:41:30Z</time>
      </trkpt>
      <trkpt lat="43.35982" lon="6.01577">
        <ele>439.6328125</ele>
        <time>2013-12-01T14:41:47Z</time>
      </trkpt>
      <trkpt lat="43.35976" lon="6.01578">
        <ele>439.75</ele>
        <time>2013-12-01T14:41:50Z</time>
      </trkpt>
      <trkpt lat="43.35954" lon="6.01571">
        <ele>441.48828125</ele>
        <time>2013-12-01T14:42:02Z</time>
      </trkpt>
      <trkpt lat="43.35947" lon="6.01571">
        <ele>442.078125</ele>
        <time>2013-12-01T14:42:16Z</time>
      </trkpt>
      <trkpt lat="43.35943" lon="6.01568">
        <ele>442.2265625</ele>
        <time>2013-12-01T14:42:35Z</time>
      </trkpt>
      <trkpt lat="43.35941" lon="6.01566">
        <ele>442.1875</ele>
        <time>2013-12-01T14:42:36Z</time>
      </trkpt>
      <trkpt lat="43.35927" lon="6.01552">
        <ele>441.703125</ele>
        <time>2013-12-01T14:42:41Z</time>
      </trkpt>
      <trkpt lat="43.35922" lon="6.01549">
        <ele>441.640625</ele>
        <time>2013-12-01T14:42:42Z</time>
      </trkpt>
      <trkpt lat="43.35917" lon="6.01548">
        <ele>441.71875</ele>
        <time>2013-12-01T14:42:43Z</time>
      </trkpt>
      <trkpt lat="43.35912" lon="6.01547">
        <ele>441.68359375</ele>
        <time>2013-12-01T14:42:44Z</time>
      </trkpt>
      <trkpt lat="43.35906" lon="6.01546">
        <ele>441.40625</ele>
        <time>2013-12-01T14:42:45Z</time>
      </trkpt>
      <trkpt lat="43.359" lon="6.01546">
        <ele>441.12109375</ele>
        <time>2013-12-01T14:42:46Z</time>
      </trkpt>
      <trkpt lat="43.35893" lon="6.01545">
        <ele>440.73828125</ele>
        <time>2013-12-01T14:42:47Z</time>
      </trkpt>
      <trkpt lat="43.3588" lon="6.01543">
        <ele>440.1171875</ele>
        <time>2013-12-01T14:42:49Z</time>
      </trkpt>
      <trkpt lat="43.35866" lon="6.01545">
        <ele>440.30078125</ele>
        <time>2013-12-01T14:42:51Z</time>
      </trkpt>
      <trkpt lat="43.35845" lon="6.01554">
        <ele>440.80078125</ele>
        <time>2013-12-01T14:42:55Z</time>
      </trkpt>
      <trkpt lat="43.35803" lon="6.01564">
        <ele>438.58203125</ele>
        <time>2013-12-01T14:43:08Z</time>
      </trkpt>
      <trkpt lat="43.35797" lon="6.01569">
        <ele>438.42578125</ele>
        <time>2013-12-01T14:43:10Z</time>
      </trkpt>
      <trkpt lat="43.35783" lon="6.01574">
        <ele>437.04296875</ele>
        <time>2013-12-01T14:43:21Z</time>
      </trkpt>
      <trkpt lat="43.3578" lon="6.01571">
        <ele>436.10546875</ele>
        <time>2013-12-01T14:43:32Z</time>
      </trkpt>
      <trkpt lat="43.35772" lon="6.01568">
        <ele>434.796875</ele>
        <time>2013-12-01T14:43:36Z</time>
      </trkpt>
      <trkpt lat="43.3577" lon="6.01569">
        <ele>434.70703125</ele>
        <time>2013-12-01T14:43:37Z</time>
      </trkpt>
      <trkpt lat="43.35767" lon="6.0157">
        <ele>434.625</ele>
        <time>2013-12-01T14:43:38Z</time>
      </trkpt>
      <trkpt lat="43.3575" lon="6.01575">
        <ele>433.953125</ele>
        <time>2013-12-01T14:43:44Z</time>
      </trkpt>
      <trkpt lat="43.35744" lon="6.01579">
        <ele>434.02734375</ele>
        <time>2013-12-01T14:43:47Z</time>
      </trkpt>
      <trkpt lat="43.35745" lon="6.01583">
        <ele>434.6171875</ele>
        <time>2013-12-01T14:43:59Z</time>
      </trkpt>
      <trkpt lat="43.35745" lon="6.01582">
        <ele>434.57421875</ele>
        <time>2013-12-01T14:44:02Z</time>
      </trkpt>
      <trkpt lat="43.35745" lon="6.01582">
        <ele>434.59765625</ele>
        <time>2013-12-01T14:44:04Z</time>
      </trkpt>
      <trkpt lat="43.35747" lon="6.01584">
        <ele>434.84765625</ele>
        <time>2013-12-01T14:44:24Z</time>
      </trkpt>
      <trkpt lat="43.35748" lon="6.01585">
        <ele>435.125</ele>
        <time>2013-12-01T14:44:25Z</time>
      </trkpt>
      <trkpt lat="43.35749" lon="6.01586">
        <ele>435.3828125</ele>
        <time>2013-12-01T14:44:26Z</time>
      </trkpt>
      <trkpt lat="43.3575" lon="6.01588">
        <ele>435.625</ele>
        <time>2013-12-01T14:44:27Z</time>
      </trkpt>
      <trkpt lat="43.35751" lon="6.01589">
        <ele>435.87109375</ele>
        <time>2013-12-01T14:44:28Z</time>
      </trkpt>
      <trkpt lat="43.35755" lon="6.01597">
        <ele>437.3984375</ele>
        <time>2013-12-01T14:44:35Z</time>
      </trkpt>
      <trkpt lat="43.35758" lon="6.01603">
        <ele>438.44921875</ele>
        <time>2013-12-01T14:44:39Z</time>
      </trkpt>
      <trkpt lat="43.35763" lon="6.01617">
        <ele>440.390625</ele>
        <time>2013-12-01T14:44:48Z</time>
      </trkpt>
      <trkpt lat="43.35767" lon="6.01626">
        <ele>441.69140625</ele>
        <time>2013-12-01T14:44:54Z</time>
      </trkpt>
      <trkpt lat="43.35773" lon="6.01643">
        <ele>443.60546875</ele>
        <time>2013-12-01T14:45:04Z</time>
      </trkpt>
      <trkpt lat="43.35774" lon="6.0165">
        <ele>444.17578125</ele>
        <time>2013-12-01T14:45:08Z</time>
      </trkpt>
      <trkpt lat="43.35776" lon="6.01657">
        <ele>444.91015625</ele>
        <time>2013-12-01T14:45:12Z</time>
      </trkpt>
      <trkpt lat="43.35778" lon="6.01663">
        <ele>446.11328125</ele>
        <time>2013-12-01T14:45:16Z</time>
      </trkpt>
      <trkpt lat="43.35781" lon="6.01679">
        <ele>447.74609375</ele>
        <time>2013-12-01T14:45:27Z</time>
      </trkpt>
      <trkpt lat="43.3578" lon="6.01687">
        <ele>447.7734375</ele>
        <time>2013-12-01T14:45:41Z</time>
      </trkpt>
      <trkpt lat="43.35779" lon="6.01695">
        <ele>447.796875</ele>
        <time>2013-12-01T14:46:02Z</time>
      </trkpt>
      <trkpt lat="43.3578" lon="6.0171">
        <ele>448.9453125</ele>
        <time>2013-12-01T14:46:16Z</time>
      </trkpt>
      <trkpt lat="43.35781" lon="6.01726">
        <ele>450.1015625</ele>
        <time>2013-12-01T14:46:30Z</time>
      </trkpt>
      <trkpt lat="43.35781" lon="6.0174">
        <ele>450.4453125</ele>
        <time>2013-12-01T14:46:42Z</time>
      </trkpt>
      <trkpt lat="43.3578" lon="6.01756">
        <ele>450.62890625</ele>
        <time>2013-12-01T14:46:57Z</time>
      </trkpt>
      <trkpt lat="43.35783" lon="6.01769">
        <ele>452.45703125</ele>
        <time>2013-12-01T14:47:09Z</time>
      </trkpt>
      <trkpt lat="43.35784" lon="6.01772">
        <ele>452.75390625</ele>
        <time>2013-12-01T14:47:16Z</time>
      </trkpt>
      <trkpt lat="43.35786" lon="6.01784">
        <ele>454.3203125</ele>
        <time>2013-12-01T14:47:22Z</time>
      </trkpt>
      <trkpt lat="43.35785" lon="6.01796">
        <ele>454.921875</ele>
        <time>2013-12-01T14:47:29Z</time>
      </trkpt>
      <trkpt lat="43.35788" lon="6.01808">
        <ele>456.93359375</ele>
        <time>2013-12-01T14:47:35Z</time>
      </trkpt>
      <trkpt lat="43.35785" lon="6.01822">
        <ele>457.1328125</ele>
        <time>2013-12-01T14:47:46Z</time>
      </trkpt>
      <trkpt lat="43.35787" lon="6.01829">
        <ele>458.19921875</ele>
        <time>2013-12-01T14:47:57Z</time>
      </trkpt>
      <trkpt lat="43.35789" lon="6.01838">
        <ele>459.74609375</ele>
        <time>2013-12-01T14:48:11Z</time>
      </trkpt>
      <trkpt lat="43.35791" lon="6.01847">
        <ele>460.88671875</ele>
        <time>2013-12-01T14:48:26Z</time>
      </trkpt>
      <trkpt lat="43.3579" lon="6.01845">
        <ele>460.5234375</ele>
        <time>2013-12-01T14:48:41Z</time>
      </trkpt>
      <trkpt lat="43.35787" lon="6.0185">
        <ele>460.7578125</ele>
        <time>2013-12-01T14:48:54Z</time>
      </trkpt>
      <trkpt lat="43.35783" lon="6.01856">
        <ele>461.4296875</ele>
        <time>2013-12-01T14:49:07Z</time>
      </trkpt>
      <trkpt lat="43.35783" lon="6.01863">
        <ele>462.8828125</ele>
        <time>2013-12-01T14:49:21Z</time>
      </trkpt>
      <trkpt lat="43.3578" lon="6.01864">
        <ele>463.26171875</ele>
        <time>2013-12-01T14:49:46Z</time>
      </trkpt>
      <trkpt lat="43.35783" lon="6.01873">
        <ele>465.203125</ele>
        <time>2013-12-01T14:50:03Z</time>
      </trkpt>
      <trkpt lat="43.35787" lon="6.01883">
        <ele>467.18359375</ele>
        <time>2013-12-01T14:50:19Z</time>
      </trkpt>
      <trkpt lat="43.35789" lon="6.01889">
        <ele>468.0390625</ele>
        <time>2013-12-01T14:50:34Z</time>
      </trkpt>
      <trkpt lat="43.35788" lon="6.01897">
        <ele>469.70703125</ele>
        <time>2013-12-01T14:50:53Z</time>
      </trkpt>
      <trkpt lat="43.35793" lon="6.01902">
        <ele>470.33984375</ele>
        <time>2013-12-01T14:51:10Z</time>
      </trkpt>
      <trkpt lat="43.35796" lon="6.01906">
        <ele>470.6484375</ele>
        <time>2013-12-01T14:51:24Z</time>
      </trkpt>
      <trkpt lat="43.35799" lon="6.01908">
        <ele>470.8359375</ele>
        <time>2013-12-01T14:51:59Z</time>
      </trkpt>
      <trkpt lat="43.358" lon="6.01909">
        <ele>471.0234375</ele>
        <time>2013-12-01T14:52:33Z</time>
      </trkpt>
      <trkpt lat="43.35799" lon="6.01917">
        <ele>472.875</ele>
        <time>2013-12-01T14:52:42Z</time>
      </trkpt>
      <trkpt lat="43.35798" lon="6.01931">
        <ele>476.27734375</ele>
        <time>2013-12-01T14:52:53Z</time>
      </trkpt>
      <trkpt lat="43.35798" lon="6.0194">
        <ele>478.58984375</ele>
        <time>2013-12-01T14:53:11Z</time>
      </trkpt>
      <trkpt lat="43.358" lon="6.01951">
        <ele>480.8046875</ele>
        <time>2013-12-01T14:53:36Z</time>
      </trkpt>
      <trkpt lat="43.35803" lon="6.01962">
        <ele>483.03125</ele>
        <time>2013-12-01T14:53:49Z</time>
      </trkpt>
      <trkpt lat="43.35809" lon="6.0197">
        <ele>483.80859375</ele>
        <time>2013-12-01T14:54:02Z</time>
      </trkpt>
      <trkpt lat="43.35812" lon="6.01971">
        <ele>483.6328125</ele>
        <time>2013-12-01T14:54:12Z</time>
      </trkpt>
      <trkpt lat="43.35819" lon="6.0197">
        <ele>482.81640625</ele>
        <time>2013-12-01T14:54:18Z</time>
      </trkpt>
      <trkpt lat="43.35828" lon="6.0198">
        <ele>483.23046875</ele>
        <time>2013-12-01T14:54:25Z</time>
      </trkpt>
      <trkpt lat="43.3583" lon="6.01982">
        <ele>483.37109375</ele>
        <time>2013-12-01T14:54:26Z</time>
      </trkpt>
      <trkpt lat="43.35843" lon="6.02008">
        <ele>486.49609375</ele>
        <time>2013-12-01T14:54:36Z</time>
      </trkpt>
      <trkpt lat="43.35843" lon="6.0201">
        <ele>486.9296875</ele>
        <time>2013-12-01T14:54:37Z</time>
      </trkpt>
      <trkpt lat="43.35843" lon="6.02012">
        <ele>487.3125</ele>
        <time>2013-12-01T14:54:38Z</time>
      </trkpt>
      <trkpt lat="43.35842" lon="6.02016">
        <ele>488.109375</ele>
        <time>2013-12-01T14:54:48Z</time>
      </trkpt>
      <trkpt lat="43.35844" lon="6.02027">
        <ele>489.88671875</ele>
        <time>2013-12-01T14:55:02Z</time>
      </trkpt>
      <trkpt lat="43.35841" lon="6.02034">
        <ele>491.37890625</ele>
        <time>2013-12-01T14:55:14Z</time>
      </trkpt>
      <trkpt lat="43.35839" lon="6.02047">
        <ele>493.8984375</ele>
        <time>2013-12-01T14:55:28Z</time>
      </trkpt>
      <trkpt lat="43.3584" lon="6.02054">
        <ele>495.1875</ele>
        <time>2013-12-01T14:55:41Z</time>
      </trkpt>
      <trkpt lat="43.35845" lon="6.02057">
        <ele>495.32421875</ele>
        <time>2013-12-01T14:55:46Z</time>
      </trkpt>
      <trkpt lat="43.35846" lon="6.02056">
        <ele>495.08984375</ele>
        <time>2013-12-01T14:55:47Z</time>
      </trkpt>
      <trkpt lat="43.35848" lon="6.02056">
        <ele>494.86328125</ele>
        <time>2013-12-01T14:55:48Z</time>
      </trkpt>
      <trkpt lat="43.35849" lon="6.02055">
        <ele>494.66015625</ele>
        <time>2013-12-01T14:55:49Z</time>
      </trkpt>
      <trkpt lat="43.35851" lon="6.02054">
        <ele>494.37109375</ele>
        <time>2013-12-01T14:55:50Z</time>
      </trkpt>
      <trkpt lat="43.35879" lon="6.02058">
        <ele>492.0859375</ele>
        <time>2013-12-01T14:56:04Z</time>
      </trkpt>
      <trkpt lat="43.35882" lon="6.02059">
        <ele>492.02734375</ele>
        <time>2013-12-01T14:56:05Z</time>
      </trkpt>
      <trkpt lat="43.35884" lon="6.0206">
        <ele>492.046875</ele>
        <time>2013-12-01T14:56:06Z</time>
      </trkpt>
      <trkpt lat="43.35887" lon="6.02062">
        <ele>492.16015625</ele>
        <time>2013-12-01T14:56:07Z</time>
      </trkpt>
      <trkpt lat="43.35888" lon="6.02064">
        <ele>492.28125</ele>
        <time>2013-12-01T14:56:08Z</time>
      </trkpt>
      <trkpt lat="43.3589" lon="6.02065">
        <ele>492.38671875</ele>
        <time>2013-12-01T14:56:09Z</time>
      </trkpt>
      <trkpt lat="43.35918" lon="6.02096">
        <ele>494.5390625</ele>
        <time>2013-12-01T14:56:24Z</time>
      </trkpt>
      <trkpt lat="43.35938" lon="6.02135">
        <ele>501.94140625</ele>
        <time>2013-12-01T14:56:36Z</time>
      </trkpt>
      <trkpt lat="43.35939" lon="6.02157">
        <ele>506.08203125</ele>
        <time>2013-12-01T14:56:45Z</time>
      </trkpt>
      <trkpt lat="43.3594" lon="6.0216">
        <ele>506.6015625</ele>
        <time>2013-12-01T14:56:46Z</time>
      </trkpt>
      <trkpt lat="43.35942" lon="6.02162">
        <ele>507.24609375</ele>
        <time>2013-12-01T14:56:47Z</time>
      </trkpt>
      <trkpt lat="43.35944" lon="6.02163">
        <ele>507.890625</ele>
        <time>2013-12-01T14:56:48Z</time>
      </trkpt>
      <trkpt lat="43.35946" lon="6.02164">
        <ele>508.44140625</ele>
        <time>2013-12-01T14:56:49Z</time>
      </trkpt>
      <trkpt lat="43.35948" lon="6.02166">
        <ele>509.44140625</ele>
        <time>2013-12-01T14:57:02Z</time>
      </trkpt>
      <trkpt lat="43.35955" lon="6.02161">
        <ele>509.97265625</ele>
        <time>2013-12-01T14:57:20Z</time>
      </trkpt>
      <trkpt lat="43.35964" lon="6.02156">
        <ele>510.91796875</ele>
        <time>2013-12-01T14:57:31Z</time>
      </trkpt>
      <trkpt lat="43.35968" lon="6.02147">
        <ele>510.18359375</ele>
        <time>2013-12-01T14:57:43Z</time>
      </trkpt>
      <trkpt lat="43.35968" lon="6.02146">
        <ele>510.1796875</ele>
        <time>2013-12-01T14:57:45Z</time>
      </trkpt>
      <trkpt lat="43.3597" lon="6.02146">
        <ele>510.34375</ele>
        <time>2013-12-01T14:57:46Z</time>
      </trkpt>
      <trkpt lat="43.35971" lon="6.02145">
        <ele>510.61328125</ele>
        <time>2013-12-01T14:57:47Z</time>
      </trkpt>
      <trkpt lat="43.35972" lon="6.02144">
        <ele>510.84765625</ele>
        <time>2013-12-01T14:57:48Z</time>
      </trkpt>
      <trkpt lat="43.35974" lon="6.02143">
        <ele>511.17578125</ele>
        <time>2013-12-01T14:57:49Z</time>
      </trkpt>
      <trkpt lat="43.35976" lon="6.02142">
        <ele>511.484375</ele>
        <time>2013-12-01T14:57:50Z</time>
      </trkpt>
      <trkpt lat="43.35977" lon="6.02141">
        <ele>511.67578125</ele>
        <time>2013-12-01T14:57:51Z</time>
      </trkpt>
      <trkpt lat="43.35979" lon="6.02139">
        <ele>511.765625</ele>
        <time>2013-12-01T14:57:52Z</time>
      </trkpt>
      <trkpt lat="43.3598" lon="6.02137">
        <ele>511.76953125</ele>
        <time>2013-12-01T14:57:53Z</time>
      </trkpt>
      <trkpt lat="43.35985" lon="6.02124">
        <ele>510.66015625</ele>
        <time>2013-12-01T14:58:00Z</time>
      </trkpt>
      <trkpt lat="43.35988" lon="6.02109">
        <ele>508.41796875</ele>
        <time>2013-12-01T14:58:07Z</time>
      </trkpt>
      <trkpt lat="43.35989" lon="6.02108">
        <ele>508.484375</ele>
        <time>2013-12-01T14:58:08Z</time>
      </trkpt>
      <trkpt lat="43.35991" lon="6.02106">
        <ele>508.53515625</ele>
        <time>2013-12-01T14:58:09Z</time>
      </trkpt>
      <trkpt lat="43.35992" lon="6.02104">
        <ele>508.5859375</ele>
        <time>2013-12-01T14:58:10Z</time>
      </trkpt>
      <trkpt lat="43.35993" lon="6.02103">
        <ele>508.83984375</ele>
        <time>2013-12-01T14:58:11Z</time>
      </trkpt>
      <trkpt lat="43.35995" lon="6.02102">
        <ele>509.03125</ele>
        <time>2013-12-01T14:58:12Z</time>
      </trkpt>
      <trkpt lat="43.36001" lon="6.02096">
        <ele>509.46875</ele>
        <time>2013-12-01T14:58:18Z</time>
      </trkpt>
      <trkpt lat="43.36003" lon="6.02095">
        <ele>509.609375</ele>
        <time>2013-12-01T14:58:19Z</time>
      </trkpt>
      <trkpt lat="43.36004" lon="6.02094">
        <ele>509.734375</ele>
        <time>2013-12-01T14:58:20Z</time>
      </trkpt>
      <trkpt lat="43.36006" lon="6.02094">
        <ele>509.859375</ele>
        <time>2013-12-01T14:58:21Z</time>
      </trkpt>
      <trkpt lat="43.36014" lon="6.02089">
        <ele>510.21875</ele>
        <time>2013-12-01T14:58:28Z</time>
      </trkpt>
      <trkpt lat="43.36022" lon="6.02079">
        <ele>509.83984375</ele>
        <time>2013-12-01T14:58:37Z</time>
      </trkpt>
      <trkpt lat="43.36028" lon="6.02077">
        <ele>510.12109375</ele>
        <time>2013-12-01T14:58:42Z</time>
      </trkpt>
      <trkpt lat="43.36033" lon="6.02081">
        <ele>511.00390625</ele>
        <time>2013-12-01T14:58:53Z</time>
      </trkpt>
      <trkpt lat="43.36033" lon="6.02081">
        <ele>511.140625</ele>
        <time>2013-12-01T14:58:55Z</time>
      </trkpt>
      <trkpt lat="43.36037" lon="6.02079">
        <ele>511.0625</ele>
        <time>2013-12-01T14:59:06Z</time>
      </trkpt>
      <trkpt lat="43.36041" lon="6.02077">
        <ele>511.16796875</ele>
        <time>2013-12-01T14:59:17Z</time>
      </trkpt>
      <trkpt lat="43.36043" lon="6.02079">
        <ele>511.44921875</ele>
        <time>2013-12-01T14:59:21Z</time>
      </trkpt>
      <trkpt lat="43.36047" lon="6.0208">
        <ele>511.94921875</ele>
        <time>2013-12-01T14:59:31Z</time>
      </trkpt>
      <trkpt lat="43.36065" lon="6.02085">
        <ele>511.46875</ele>
        <time>2013-12-01T14:59:45Z</time>
      </trkpt>
      <trkpt lat="43.36086" lon="6.021">
        <ele>509.41796875</ele>
        <time>2013-12-01T15:00:01Z</time>
      </trkpt>
      <trkpt lat="43.3609" lon="6.02102">
        <ele>508.82421875</ele>
        <time>2013-12-01T15:00:13Z</time>
      </trkpt>
      <trkpt lat="43.361" lon="6.02117">
        <ele>508.0234375</ele>
        <time>2013-12-01T15:00:26Z</time>
      </trkpt>
      <trkpt lat="43.36116" lon="6.02152">
        <ele>508.03515625</ele>
        <time>2013-12-01T15:00:42Z</time>
      </trkpt>
      <trkpt lat="43.36117" lon="6.02162">
        <ele>508.99609375</ele>
        <time>2013-12-01T15:00:45Z</time>
      </trkpt>
      <trkpt lat="43.36118" lon="6.02194">
        <ele>513.09375</ele>
        <time>2013-12-01T15:00:57Z</time>
      </trkpt>
      <trkpt lat="43.3613" lon="6.02223">
        <ele>513.51953125</ele>
        <time>2013-12-01T15:01:09Z</time>
      </trkpt>
      <trkpt lat="43.36134" lon="6.0224">
        <ele>514.0546875</ele>
        <time>2013-12-01T15:01:21Z</time>
      </trkpt>
      <trkpt lat="43.36136" lon="6.02242">
        <ele>513.8515625</ele>
        <time>2013-12-01T15:01:27Z</time>
      </trkpt>
      <trkpt lat="43.36136" lon="6.02243">
        <ele>513.77734375</ele>
        <time>2013-12-01T15:01:28Z</time>
      </trkpt>
      <trkpt lat="43.36137" lon="6.02245">
        <ele>513.71875</ele>
        <time>2013-12-01T15:01:29Z</time>
      </trkpt>
      <trkpt lat="43.36138" lon="6.02247">
        <ele>513.578125</ele>
        <time>2013-12-01T15:01:30Z</time>
      </trkpt>
      <trkpt lat="43.36139" lon="6.02249">
        <ele>513.42578125</ele>
        <time>2013-12-01T15:01:31Z</time>
      </trkpt>
      <trkpt lat="43.3614" lon="6.02251">
        <ele>513.1640625</ele>
        <time>2013-12-01T15:01:32Z</time>
      </trkpt>
      <trkpt lat="43.36141" lon="6.02252">
        <ele>512.875</ele>
        <time>2013-12-01T15:01:33Z</time>
      </trkpt>
      <trkpt lat="43.36152" lon="6.0228">
        <ele>511.65625</ele>
        <time>2013-12-01T15:01:45Z</time>
      </trkpt>
      <trkpt lat="43.36154" lon="6.02297">
        <ele>512.88671875</ele>
        <time>2013-12-01T15:01:50Z</time>
      </trkpt>
      <trkpt lat="43.36155" lon="6.023">
        <ele>512.78125</ele>
        <time>2013-12-01T15:01:51Z</time>
      </trkpt>
      <trkpt lat="43.36157" lon="6.02303">
        <ele>512.94921875</ele>
        <time>2013-12-01T15:01:52Z</time>
      </trkpt>
      <trkpt lat="43.36157" lon="6.02306">
        <ele>513.33203125</ele>
        <time>2013-12-01T15:01:53Z</time>
      </trkpt>
      <trkpt lat="43.36158" lon="6.0231">
        <ele>513.8671875</ele>
        <time>2013-12-01T15:01:54Z</time>
      </trkpt>
      <trkpt lat="43.36158" lon="6.02314">
        <ele>514.5078125</ele>
        <time>2013-12-01T15:01:55Z</time>
      </trkpt>
      <trkpt lat="43.36158" lon="6.02319">
        <ele>515.1796875</ele>
        <time>2013-12-01T15:01:56Z</time>
      </trkpt>
      <trkpt lat="43.36158" lon="6.02323">
        <ele>515.9453125</ele>
        <time>2013-12-01T15:01:57Z</time>
      </trkpt>
      <trkpt lat="43.36158" lon="6.02329">
        <ele>516.80859375</ele>
        <time>2013-12-01T15:01:58Z</time>
      </trkpt>
      <trkpt lat="43.36157" lon="6.02354">
        <ele>521.046875</ele>
        <time>2013-12-01T15:02:03Z</time>
      </trkpt>
      <trkpt lat="43.36158" lon="6.02357">
        <ele>521.5078125</ele>
        <time>2013-12-01T15:02:04Z</time>
      </trkpt>
      <trkpt lat="43.36161" lon="6.02359">
        <ele>521.69921875</ele>
        <time>2013-12-01T15:02:05Z</time>
      </trkpt>
      <trkpt lat="43.36162" lon="6.0236">
        <ele>521.671875</ele>
        <time>2013-12-01T15:02:06Z</time>
      </trkpt>
      <trkpt lat="43.36164" lon="6.02359">
        <ele>521.484375</ele>
        <time>2013-12-01T15:02:07Z</time>
      </trkpt>
      <trkpt lat="43.36165" lon="6.02357">
        <ele>521.32421875</ele>
        <time>2013-12-01T15:02:12Z</time>
      </trkpt>
      <trkpt lat="43.36181" lon="6.02353">
        <ele>520.63671875</ele>
        <time>2013-12-01T15:02:27Z</time>
      </trkpt>
      <trkpt lat="43.36187" lon="6.02357">
        <ele>521.23828125</ele>
        <time>2013-12-01T15:02:37Z</time>
      </trkpt>
      <trkpt lat="43.36199" lon="6.0236">
        <ele>520.12890625</ele>
        <time>2013-12-01T15:02:52Z</time>
      </trkpt>
      <trkpt lat="43.36207" lon="6.02365">
        <ele>518.9921875</ele>
        <time>2013-12-01T15:03:08Z</time>
      </trkpt>
      <trkpt lat="43.36208" lon="6.02365">
        <ele>518.7265625</ele>
        <time>2013-12-01T15:03:35Z</time>
      </trkpt>
      <trkpt lat="43.36212" lon="6.02365">
        <ele>517.8359375</ele>
        <time>2013-12-01T15:04:06Z</time>
      </trkpt>
      <trkpt lat="43.36212" lon="6.02365">
        <ele>517.87890625</ele>
        <time>2013-12-01T15:04:44Z</time>
      </trkpt>
      <trkpt lat="43.36223" lon="6.02368">
        <ele>515.97265625</ele>
        <time>2013-12-01T15:05:08Z</time>
      </trkpt>
      <trkpt lat="43.36243" lon="6.0239">
        <ele>513.9765625</ele>
        <time>2013-12-01T15:05:18Z</time>
      </trkpt>
      <trkpt lat="43.36245" lon="6.02392">
        <ele>513.71484375</ele>
        <time>2013-12-01T15:05:19Z</time>
      </trkpt>
      <trkpt lat="43.36247" lon="6.02394">
        <ele>513.61328125</ele>
        <time>2013-12-01T15:05:20Z</time>
      </trkpt>
      <trkpt lat="43.36249" lon="6.02397">
        <ele>513.4609375</ele>
        <time>2013-12-01T15:05:21Z</time>
      </trkpt>
      <trkpt lat="43.36251" lon="6.024">
        <ele>513.296875</ele>
        <time>2013-12-01T15:05:22Z</time>
      </trkpt>
      <trkpt lat="43.36266" lon="6.02432">
        <ele>511.57421875</ele>
        <time>2013-12-01T15:05:32Z</time>
      </trkpt>
      <trkpt lat="43.36284" lon="6.0247">
        <ele>510.10546875</ele>
        <time>2013-12-01T15:05:43Z</time>
      </trkpt>
      <trkpt lat="43.36302" lon="6.02506">
        <ele>511.4375</ele>
        <time>2013-12-01T15:05:54Z</time>
      </trkpt>
      <trkpt lat="43.36315" lon="6.02544">
        <ele>512.55078125</ele>
        <time>2013-12-01T15:06:05Z</time>
      </trkpt>
      <trkpt lat="43.36317" lon="6.02547">
        <ele>512.46875</ele>
        <time>2013-12-01T15:06:06Z</time>
      </trkpt>
      <trkpt lat="43.36318" lon="6.02549">
        <ele>512.421875</ele>
        <time>2013-12-01T15:06:07Z</time>
      </trkpt>
      <trkpt lat="43.36319" lon="6.02551">
        <ele>512.43359375</ele>
        <time>2013-12-01T15:06:08Z</time>
      </trkpt>
      <trkpt lat="43.36319" lon="6.02554">
        <ele>512.4609375</ele>
        <time>2013-12-01T15:06:09Z</time>
      </trkpt>
      <trkpt lat="43.36329" lon="6.02594">
        <ele>512.69921875</ele>
        <time>2013-12-01T15:06:20Z</time>
      </trkpt>
      <trkpt lat="43.36333" lon="6.02621">
        <ele>514.44921875</ele>
        <time>2013-12-01T15:06:27Z</time>
      </trkpt>
      <trkpt lat="43.36335" lon="6.02624">
        <ele>514.82421875</ele>
        <time>2013-12-01T15:06:28Z</time>
      </trkpt>
      <trkpt lat="43.36338" lon="6.02625">
        <ele>515.109375</ele>
        <time>2013-12-01T15:06:29Z</time>
      </trkpt>
      <trkpt lat="43.3634" lon="6.02625">
        <ele>515.33203125</ele>
        <time>2013-12-01T15:06:30Z</time>
      </trkpt>
      <trkpt lat="43.36341" lon="6.02626">
        <ele>515.515625</ele>
        <time>2013-12-01T15:06:31Z</time>
      </trkpt>
      <trkpt lat="43.36345" lon="6.02629">
        <ele>515.91015625</ele>
        <time>2013-12-01T15:06:33Z</time>
      </trkpt>
      <trkpt lat="43.36347" lon="6.02631">
        <ele>516.140625</ele>
        <time>2013-12-01T15:06:34Z</time>
      </trkpt>
      <trkpt lat="43.36348" lon="6.02635">
        <ele>516.34765625</ele>
        <time>2013-12-01T15:06:35Z</time>
      </trkpt>
      <trkpt lat="43.36349" lon="6.02637">
        <ele>516.515625</ele>
        <time>2013-12-01T15:06:36Z</time>
      </trkpt>
      <trkpt lat="43.36351" lon="6.02639">
        <ele>516.6640625</ele>
        <time>2013-12-01T15:06:37Z</time>
      </trkpt>
      <trkpt lat="43.36352" lon="6.02642">
        <ele>516.78125</ele>
        <time>2013-12-01T15:06:38Z</time>
      </trkpt>
      <trkpt lat="43.36353" lon="6.02643">
        <ele>516.859375</ele>
        <time>2013-12-01T15:06:39Z</time>
      </trkpt>
      <trkpt lat="43.36357" lon="6.0265">
        <ele>516.99609375</ele>
        <time>2013-12-01T15:06:50Z</time>
      </trkpt>
      <trkpt lat="43.36359" lon="6.02651">
        <ele>517.1484375</ele>
        <time>2013-12-01T15:06:52Z</time>
      </trkpt>
      <trkpt lat="43.36361" lon="6.02652">
        <ele>517.25390625</ele>
        <time>2013-12-01T15:06:53Z</time>
      </trkpt>
      <trkpt lat="43.36362" lon="6.02654">
        <ele>517.3359375</ele>
        <time>2013-12-01T15:06:54Z</time>
      </trkpt>
      <trkpt lat="43.36363" lon="6.02655">
        <ele>517.41015625</ele>
        <time>2013-12-01T15:06:55Z</time>
      </trkpt>
      <trkpt lat="43.36364" lon="6.02657">
        <ele>517.48828125</ele>
        <time>2013-12-01T15:06:56Z</time>
      </trkpt>
      <trkpt lat="43.36368" lon="6.02661">
        <ele>517.73828125</ele>
        <time>2013-12-01T15:06:59Z</time>
      </trkpt>
      <trkpt lat="43.36377" lon="6.02676">
        <ele>518.89453125</ele>
        <time>2013-12-01T15:07:07Z</time>
      </trkpt>
      <trkpt lat="43.36378" lon="6.02678">
        <ele>518.9765625</ele>
        <time>2013-12-01T15:07:08Z</time>
      </trkpt>
      <trkpt lat="43.3638" lon="6.02683">
        <ele>519.08203125</ele>
        <time>2013-12-01T15:07:10Z</time>
      </trkpt>
      <trkpt lat="43.3638" lon="6.02688">
        <ele>519.1953125</ele>
        <time>2013-12-01T15:07:20Z</time>
      </trkpt>
      <trkpt lat="43.36382" lon="6.02692">
        <ele>519.4140625</ele>
        <time>2013-12-01T15:07:34Z</time>
      </trkpt>
      <trkpt lat="43.36384" lon="6.027">
        <ele>519.90234375</ele>
        <time>2013-12-01T15:07:52Z</time>
      </trkpt>
      <trkpt lat="43.36384" lon="6.02703">
        <ele>520.125</ele>
        <time>2013-12-01T15:07:54Z</time>
      </trkpt>
      <trkpt lat="43.36384" lon="6.02705">
        <ele>520.25</ele>
        <time>2013-12-01T15:07:55Z</time>
      </trkpt>
      <trkpt lat="43.36384" lon="6.02712">
        <ele>520.75</ele>
        <time>2013-12-01T15:07:59Z</time>
      </trkpt>
      <trkpt lat="43.36383" lon="6.02714">
        <ele>520.90625</ele>
        <time>2013-12-01T15:08:00Z</time>
      </trkpt>
      <trkpt lat="43.36383" lon="6.02719">
        <ele>521.26171875</ele>
        <time>2013-12-01T15:08:11Z</time>
      </trkpt>
      <trkpt lat="43.36382" lon="6.02736">
        <ele>521.9921875</ele>
        <time>2013-12-01T15:08:23Z</time>
      </trkpt>
      <trkpt lat="43.36386" lon="6.02751">
        <ele>522.61328125</ele>
        <time>2013-12-01T15:08:31Z</time>
      </trkpt>
      <trkpt lat="43.36383" lon="6.02746">
        <ele>522.47265625</ele>
        <time>2013-12-01T15:08:44Z</time>
      </trkpt>
      <trkpt lat="43.36383" lon="6.0274">
        <ele>522.16796875</ele>
        <time>2013-12-01T15:08:49Z</time>
      </trkpt>
      <trkpt lat="43.36383" lon="6.02739">
        <ele>522.09375</ele>
        <time>2013-12-01T15:08:50Z</time>
      </trkpt>
      <trkpt lat="43.36382" lon="6.02737">
        <ele>522.0546875</ele>
        <time>2013-12-01T15:08:51Z</time>
      </trkpt>
      <trkpt lat="43.36382" lon="6.02735">
        <ele>521.9921875</ele>
        <time>2013-12-01T15:08:52Z</time>
      </trkpt>
      <trkpt lat="43.36382" lon="6.02733">
        <ele>521.91015625</ele>
        <time>2013-12-01T15:08:53Z</time>
      </trkpt>
      <trkpt lat="43.36384" lon="6.0271">
        <ele>520.625</ele>
        <time>2013-12-01T15:08:59Z</time>
      </trkpt>
      <trkpt lat="43.36385" lon="6.02705">
        <ele>520.21484375</ele>
        <time>2013-12-01T15:09:00Z</time>
      </trkpt>
      <trkpt lat="43.36385" lon="6.027">
        <ele>519.84375</ele>
        <time>2013-12-01T15:09:01Z</time>
      </trkpt>
      <trkpt lat="43.36384" lon="6.02695">
        <ele>519.5390625</ele>
        <time>2013-12-01T15:09:02Z</time>
      </trkpt>
      <trkpt lat="43.36383" lon="6.02692">
        <ele>519.35546875</ele>
        <time>2013-12-01T15:09:03Z</time>
      </trkpt>
      <trkpt lat="43.36383" lon="6.0269">
        <ele>519.22265625</ele>
        <time>2013-12-01T15:09:04Z</time>
      </trkpt>
      <trkpt lat="43.36382" lon="6.02688">
        <ele>519.12109375</ele>
        <time>2013-12-01T15:09:05Z</time>
      </trkpt>
      <trkpt lat="43.36382" lon="6.02686">
        <ele>519.10546875</ele>
        <time>2013-12-01T15:09:06Z</time>
      </trkpt>
      <trkpt lat="43.36381" lon="6.02681">
        <ele>519.04296875</ele>
        <time>2013-12-01T15:09:09Z</time>
      </trkpt>
      <trkpt lat="43.36368" lon="6.0266">
        <ele>517.71484375</ele>
        <time>2013-12-01T15:09:19Z</time>
      </trkpt>
      <trkpt lat="43.36357" lon="6.02646">
        <ele>516.984375</ele>
        <time>2013-12-01T15:09:25Z</time>
      </trkpt>
      <trkpt lat="43.36357" lon="6.02644">
        <ele>516.96875</ele>
        <time>2013-12-01T15:09:26Z</time>
      </trkpt>
      <trkpt lat="43.36357" lon="6.02641">
        <ele>516.95703125</ele>
        <time>2013-12-01T15:09:27Z</time>
      </trkpt>
      <trkpt lat="43.36357" lon="6.02639">
        <ele>516.94140625</ele>
        <time>2013-12-01T15:09:28Z</time>
      </trkpt>
      <trkpt lat="43.36356" lon="6.02636">
        <ele>516.89453125</ele>
        <time>2013-12-01T15:09:29Z</time>
      </trkpt>
      <trkpt lat="43.36355" lon="6.02633">
        <ele>516.796875</ele>
        <time>2013-12-01T15:09:30Z</time>
      </trkpt>
      <trkpt lat="43.36354" lon="6.02631">
        <ele>516.70703125</ele>
        <time>2013-12-01T15:09:31Z</time>
      </trkpt>
      <trkpt lat="43.36351" lon="6.02619">
        <ele>516.25</ele>
        <time>2013-12-01T15:09:38Z</time>
      </trkpt>
      <trkpt lat="43.36351" lon="6.02615">
        <ele>516.1953125</ele>
        <time>2013-12-01T15:09:40Z</time>
      </trkpt>
      <trkpt lat="43.36352" lon="6.02614">
        <ele>516.23046875</ele>
        <time>2013-12-01T15:09:41Z</time>
      </trkpt>
      <trkpt lat="43.36352" lon="6.02612">
        <ele>516.234375</ele>
        <time>2013-12-01T15:09:42Z</time>
      </trkpt>
      <trkpt lat="43.36352" lon="6.0261">
        <ele>516.28125</ele>
        <time>2013-12-01T15:09:43Z</time>
      </trkpt>
      <trkpt lat="43.36353" lon="6.02608">
        <ele>516.3515625</ele>
        <time>2013-12-01T15:09:44Z</time>
      </trkpt>
      <trkpt lat="43.36354" lon="6.02607">
        <ele>516.44140625</ele>
        <time>2013-12-01T15:09:45Z</time>
      </trkpt>
      <trkpt lat="43.36356" lon="6.02596">
        <ele>517.28515625</ele>
        <time>2013-12-01T15:09:51Z</time>
      </trkpt>
      <trkpt lat="43.36356" lon="6.02594">
        <ele>517.46875</ele>
        <time>2013-12-01T15:09:52Z</time>
      </trkpt>
      <trkpt lat="43.36356" lon="6.02592">
        <ele>517.625</ele>
        <time>2013-12-01T15:09:53Z</time>
      </trkpt>
      <trkpt lat="43.36357" lon="6.02591">
        <ele>517.765625</ele>
        <time>2013-12-01T15:09:54Z</time>
      </trkpt>
      <trkpt lat="43.36357" lon="6.02589">
        <ele>518.02734375</ele>
        <time>2013-12-01T15:09:55Z</time>
      </trkpt>
      <trkpt lat="43.36357" lon="6.02586">
        <ele>518.25</ele>
        <time>2013-12-01T15:09:56Z</time>
      </trkpt>
      <trkpt lat="43.36357" lon="6.02584">
        <ele>518.359375</ele>
        <time>2013-12-01T15:09:57Z</time>
      </trkpt>
      <trkpt lat="43.36357" lon="6.0258">
        <ele>518.61328125</ele>
        <time>2013-12-01T15:09:59Z</time>
      </trkpt>
      <trkpt lat="43.36357" lon="6.02543">
        <ele>518.875</ele>
        <time>2013-12-01T15:10:15Z</time>
      </trkpt>
      <trkpt lat="43.36361" lon="6.02531">
        <ele>519.9296875</ele>
        <time>2013-12-01T15:10:22Z</time>
      </trkpt>
      <trkpt lat="43.36361" lon="6.02529">
        <ele>519.8828125</ele>
        <time>2013-12-01T15:10:23Z</time>
      </trkpt>
      <trkpt lat="43.36361" lon="6.02527">
        <ele>520.0078125</ele>
        <time>2013-12-01T15:10:24Z</time>
      </trkpt>
      <trkpt lat="43.36362" lon="6.02526">
        <ele>520.24609375</ele>
        <time>2013-12-01T15:10:25Z</time>
      </trkpt>
      <trkpt lat="43.36363" lon="6.02524">
        <ele>520.63671875</ele>
        <time>2013-12-01T15:10:26Z</time>
      </trkpt>
      <trkpt lat="43.36364" lon="6.02523">
        <ele>521.02734375</ele>
        <time>2013-12-01T15:10:27Z</time>
      </trkpt>
      <trkpt lat="43.36366" lon="6.02518">
        <ele>521.09765625</ele>
        <time>2013-12-01T15:10:30Z</time>
      </trkpt>
      <trkpt lat="43.36369" lon="6.02507">
        <ele>520.34375</ele>
        <time>2013-12-01T15:10:40Z</time>
      </trkpt>
      <trkpt lat="43.36371" lon="6.02505">
        <ele>520.48046875</ele>
        <time>2013-12-01T15:10:41Z</time>
      </trkpt>
      <trkpt lat="43.36372" lon="6.02503">
        <ele>520.6328125</ele>
        <time>2013-12-01T15:10:42Z</time>
      </trkpt>
      <trkpt lat="43.36384" lon="6.02495">
        <ele>521.81640625</ele>
        <time>2013-12-01T15:10:49Z</time>
      </trkpt>
      <trkpt lat="43.36385" lon="6.02493">
        <ele>521.71875</ele>
        <time>2013-12-01T15:10:50Z</time>
      </trkpt>
      <trkpt lat="43.36385" lon="6.0249">
        <ele>521.58203125</ele>
        <time>2013-12-01T15:10:51Z</time>
      </trkpt>
      <trkpt lat="43.36385" lon="6.02488">
        <ele>521.3515625</ele>
        <time>2013-12-01T15:10:52Z</time>
      </trkpt>
      <trkpt lat="43.36384" lon="6.02485">
        <ele>521.0703125</ele>
        <time>2013-12-01T15:10:53Z</time>
      </trkpt>
      <trkpt lat="43.36384" lon="6.02483">
        <ele>520.8125</ele>
        <time>2013-12-01T15:10:54Z</time>
      </trkpt>
      <trkpt lat="43.36383" lon="6.02481">
        <ele>520.5546875</ele>
        <time>2013-12-01T15:10:55Z</time>
      </trkpt>
      <trkpt lat="43.36383" lon="6.02479">
        <ele>520.32421875</ele>
        <time>2013-12-01T15:10:56Z</time>
      </trkpt>
      <trkpt lat="43.36382" lon="6.02477">
        <ele>520.1015625</ele>
        <time>2013-12-01T15:10:57Z</time>
      </trkpt>
      <trkpt lat="43.36382" lon="6.02475">
        <ele>519.80078125</ele>
        <time>2013-12-01T15:10:58Z</time>
      </trkpt>
      <trkpt lat="43.36381" lon="6.02474">
        <ele>519.48046875</ele>
        <time>2013-12-01T15:10:59Z</time>
      </trkpt>
      <trkpt lat="43.36379" lon="6.02474">
        <ele>519.18359375</ele>
        <time>2013-12-01T15:11:00Z</time>
      </trkpt>
      <trkpt lat="43.36378" lon="6.02473">
        <ele>518.921875</ele>
        <time>2013-12-01T15:11:01Z</time>
      </trkpt>
      <trkpt lat="43.36377" lon="6.02472">
        <ele>518.578125</ele>
        <time>2013-12-01T15:11:02Z</time>
      </trkpt>
      <trkpt lat="43.36376" lon="6.0247">
        <ele>518.21875</ele>
        <time>2013-12-01T15:11:03Z</time>
      </trkpt>
      <trkpt lat="43.36375" lon="6.02469">
        <ele>517.890625</ele>
        <time>2013-12-01T15:11:04Z</time>
      </trkpt>
      <trkpt lat="43.36375" lon="6.02466">
        <ele>517.625</ele>
        <time>2013-12-01T15:11:05Z</time>
      </trkpt>
      <trkpt lat="43.36375" lon="6.02464">
        <ele>517.87109375</ele>
        <time>2013-12-01T15:11:06Z</time>
      </trkpt>
      <trkpt lat="43.36374" lon="6.0246">
        <ele>518.3203125</ele>
        <time>2013-12-01T15:11:09Z</time>
      </trkpt>
      <trkpt lat="43.36367" lon="6.02431">
        <ele>519.75390625</ele>
        <time>2013-12-01T15:11:23Z</time>
      </trkpt>
      <trkpt lat="43.36366" lon="6.02383">
        <ele>522.20703125</ele>
        <time>2013-12-01T15:11:36Z</time>
      </trkpt>
      <trkpt lat="43.36366" lon="6.0237">
        <ele>521.93359375</ele>
        <time>2013-12-01T15:11:39Z</time>
      </trkpt>
      <trkpt lat="43.3638" lon="6.02343">
        <ele>524.671875</ele>
        <time>2013-12-01T15:11:47Z</time>
      </trkpt>
      <trkpt lat="43.3638" lon="6.02331">
        <ele>523.8515625</ele>
        <time>2013-12-01T15:11:50Z</time>
      </trkpt>
      <trkpt lat="43.36379" lon="6.02327">
        <ele>523.2265625</ele>
        <time>2013-12-01T15:11:51Z</time>
      </trkpt>
      <trkpt lat="43.36377" lon="6.02325">
        <ele>522.66015625</ele>
        <time>2013-12-01T15:11:52Z</time>
      </trkpt>
      <trkpt lat="43.36376" lon="6.02324">
        <ele>522.1640625</ele>
        <time>2013-12-01T15:11:53Z</time>
      </trkpt>
      <trkpt lat="43.36374" lon="6.02322">
        <ele>521.640625</ele>
        <time>2013-12-01T15:11:54Z</time>
      </trkpt>
      <trkpt lat="43.36373" lon="6.0232">
        <ele>521.17578125</ele>
        <time>2013-12-01T15:11:55Z</time>
      </trkpt>
      <trkpt lat="43.36371" lon="6.02318">
        <ele>520.71875</ele>
        <time>2013-12-01T15:11:56Z</time>
      </trkpt>
      <trkpt lat="43.3637" lon="6.02316">
        <ele>520.37109375</ele>
        <time>2013-12-01T15:11:57Z</time>
      </trkpt>
      <trkpt lat="43.3637" lon="6.02314">
        <ele>520.1015625</ele>
        <time>2013-12-01T15:11:58Z</time>
      </trkpt>
      <trkpt lat="43.36369" lon="6.02312">
        <ele>519.7890625</ele>
        <time>2013-12-01T15:11:59Z</time>
      </trkpt>
      <trkpt lat="43.36354" lon="6.0229">
        <ele>516.88671875</ele>
        <time>2013-12-01T15:12:09Z</time>
      </trkpt>
      <trkpt lat="43.36352" lon="6.02277">
        <ele>517.5546875</ele>
        <time>2013-12-01T15:12:19Z</time>
      </trkpt>
      <trkpt lat="43.36349" lon="6.02243">
        <ele>520.96484375</ele>
        <time>2013-12-01T15:12:33Z</time>
      </trkpt>
      <trkpt lat="43.36355" lon="6.0221">
        <ele>524.484375</ele>
        <time>2013-12-01T15:12:47Z</time>
      </trkpt>
      <trkpt lat="43.36356" lon="6.0221">
        <ele>524.73828125</ele>
        <time>2013-12-01T15:13:04Z</time>
      </trkpt>
      <trkpt lat="43.36356" lon="6.02212">
        <ele>524.59375</ele>
        <time>2013-12-01T15:13:20Z</time>
      </trkpt>
      <trkpt lat="43.36355" lon="6.02212">
        <ele>524.375</ele>
        <time>2013-12-01T15:13:48Z</time>
      </trkpt>
      <trkpt lat="43.36357" lon="6.02211">
        <ele>524.98046875</ele>
        <time>2013-12-01T15:14:15Z</time>
      </trkpt>
      <trkpt lat="43.36359" lon="6.02214">
        <ele>525.328125</ele>
        <time>2013-12-01T15:14:27Z</time>
      </trkpt>
      <trkpt lat="43.3636" lon="6.02213">
        <ele>525.6015625</ele>
        <time>2013-12-01T15:14:28Z</time>
      </trkpt>
      <trkpt lat="43.36368" lon="6.0221">
        <ele>527.37109375</ele>
        <time>2013-12-01T15:14:37Z</time>
      </trkpt>
      <trkpt lat="43.36371" lon="6.02209">
        <ele>528.34765625</ele>
        <time>2013-12-01T15:14:51Z</time>
      </trkpt>
      <trkpt lat="43.36376" lon="6.02208">
        <ele>529.45703125</ele>
        <time>2013-12-01T15:15:08Z</time>
      </trkpt>
      <trkpt lat="43.36387" lon="6.02197">
        <ele>532.828125</ele>
        <time>2013-12-01T15:15:24Z</time>
      </trkpt>
      <trkpt lat="43.36392" lon="6.02188">
        <ele>534.55859375</ele>
        <time>2013-12-01T15:15:36Z</time>
      </trkpt>
      <trkpt lat="43.36393" lon="6.02186">
        <ele>534.7578125</ele>
        <time>2013-12-01T15:15:37Z</time>
      </trkpt>
      <trkpt lat="43.36395" lon="6.02179">
        <ele>535.421875</ele>
        <time>2013-12-01T15:15:41Z</time>
      </trkpt>
      <trkpt lat="43.36393" lon="6.02168">
        <ele>534.86328125</ele>
        <time>2013-12-01T15:15:45Z</time>
      </trkpt>
      <trkpt lat="43.36397" lon="6.0216">
        <ele>535.890625</ele>
        <time>2013-12-01T15:15:57Z</time>
      </trkpt>
      <trkpt lat="43.36399" lon="6.02157">
        <ele>536.41015625</ele>
        <time>2013-12-01T15:15:59Z</time>
      </trkpt>
      <trkpt lat="43.36401" lon="6.02153">
        <ele>536.921875</ele>
        <time>2013-12-01T15:16:02Z</time>
      </trkpt>
      <trkpt lat="43.36402" lon="6.02132">
        <ele>537.15234375</ele>
        <time>2013-12-01T15:16:17Z</time>
      </trkpt>
      <trkpt lat="43.36407" lon="6.02122">
        <ele>538.375</ele>
        <time>2013-12-01T15:16:30Z</time>
      </trkpt>
      <trkpt lat="43.36414" lon="6.0211">
        <ele>540.12890625</ele>
        <time>2013-12-01T15:16:44Z</time>
      </trkpt>
      <trkpt lat="43.36414" lon="6.02103">
        <ele>540.078125</ele>
        <time>2013-12-01T15:16:58Z</time>
      </trkpt>
      <trkpt lat="43.36415" lon="6.02097">
        <ele>539.75</ele>
        <time>2013-12-01T15:17:01Z</time>
      </trkpt>
      <trkpt lat="43.36415" lon="6.02095">
        <ele>539.66015625</ele>
        <time>2013-12-01T15:17:02Z</time>
      </trkpt>
      <trkpt lat="43.36415" lon="6.02093">
        <ele>539.65234375</ele>
        <time>2013-12-01T15:17:03Z</time>
      </trkpt>
      <trkpt lat="43.36416" lon="6.02091">
        <ele>539.6484375</ele>
        <time>2013-12-01T15:17:04Z</time>
      </trkpt>
      <trkpt lat="43.36416" lon="6.02088">
        <ele>539.55859375</ele>
        <time>2013-12-01T15:17:05Z</time>
      </trkpt>
      <trkpt lat="43.36416" lon="6.02086">
        <ele>539.4609375</ele>
        <time>2013-12-01T15:17:06Z</time>
      </trkpt>
      <trkpt lat="43.36417" lon="6.02084">
        <ele>539.515625</ele>
        <time>2013-12-01T15:17:07Z</time>
      </trkpt>
      <trkpt lat="43.36426" lon="6.02071">
        <ele>540.9453125</ele>
        <time>2013-12-01T15:17:18Z</time>
      </trkpt>
      <trkpt lat="43.36427" lon="6.02069">
        <ele>541.0078125</ele>
        <time>2013-12-01T15:17:19Z</time>
      </trkpt>
      <trkpt lat="43.36428" lon="6.02067">
        <ele>541.32421875</ele>
        <time>2013-12-01T15:17:20Z</time>
      </trkpt>
      <trkpt lat="43.3643" lon="6.02066">
        <ele>541.859375</ele>
        <time>2013-12-01T15:17:21Z</time>
      </trkpt>
      <trkpt lat="43.36432" lon="6.02066">
        <ele>542.31640625</ele>
        <time>2013-12-01T15:17:22Z</time>
      </trkpt>
      <trkpt lat="43.36437" lon="6.02065">
        <ele>543.65234375</ele>
        <time>2013-12-01T15:17:32Z</time>
      </trkpt>
      <trkpt lat="43.36443" lon="6.02068">
        <ele>545.58203125</ele>
        <time>2013-12-01T15:17:47Z</time>
      </trkpt>
      <trkpt lat="43.3645" lon="6.02067">
        <ele>547.546875</ele>
        <time>2013-12-01T15:18:03Z</time>
      </trkpt>
      <trkpt lat="43.36454" lon="6.02067">
        <ele>548.55078125</ele>
        <time>2013-12-01T15:18:29Z</time>
      </trkpt>
      <trkpt lat="43.36457" lon="6.0207">
        <ele>549.65234375</ele>
        <time>2013-12-01T15:18:48Z</time>
      </trkpt>
      <trkpt lat="43.36458" lon="6.02073">
        <ele>550.3046875</ele>
        <time>2013-12-01T15:19:01Z</time>
      </trkpt>
      <trkpt lat="43.36461" lon="6.02082">
        <ele>552.01171875</ele>
        <time>2013-12-01T15:19:16Z</time>
      </trkpt>
      <trkpt lat="43.36463" lon="6.02086">
        <ele>553.20703125</ele>
        <time>2013-12-01T15:19:20Z</time>
      </trkpt>
      <trkpt lat="43.36468" lon="6.02094">
        <ele>555.30859375</ele>
        <time>2013-12-01T15:19:35Z</time>
      </trkpt>
      <trkpt lat="43.36474" lon="6.02103">
        <ele>558.27734375</ele>
        <time>2013-12-01T15:19:49Z</time>
      </trkpt>
      <trkpt lat="43.3648" lon="6.02108">
        <ele>560.703125</ele>
        <time>2013-12-01T15:20:06Z</time>
      </trkpt>
      <trkpt lat="43.36489" lon="6.02099">
        <ele>562.90234375</ele>
        <time>2013-12-01T15:20:21Z</time>
      </trkpt>
      <trkpt lat="43.36491" lon="6.02094">
        <ele>562.796875</ele>
        <time>2013-12-01T15:20:37Z</time>
      </trkpt>
      <trkpt lat="43.36494" lon="6.02091">
        <ele>563.7265625</ele>
        <time>2013-12-01T15:20:51Z</time>
      </trkpt>
      <trkpt lat="43.36495" lon="6.0209">
        <ele>563.92578125</ele>
        <time>2013-12-01T15:20:52Z</time>
      </trkpt>
      <trkpt lat="43.36497" lon="6.02088">
        <ele>564.33984375</ele>
        <time>2013-12-01T15:20:54Z</time>
      </trkpt>
      <trkpt lat="43.36498" lon="6.02087">
        <ele>564.4921875</ele>
        <time>2013-12-01T15:20:55Z</time>
      </trkpt>
      <trkpt lat="43.36499" lon="6.02086">
        <ele>564.71484375</ele>
        <time>2013-12-01T15:20:56Z</time>
      </trkpt>
      <trkpt lat="43.36501" lon="6.02085">
        <ele>565.046875</ele>
        <time>2013-12-01T15:20:57Z</time>
      </trkpt>
      <trkpt lat="43.36502" lon="6.02083">
        <ele>565.33984375</ele>
        <time>2013-12-01T15:20:58Z</time>
      </trkpt>
      <trkpt lat="43.36503" lon="6.02083">
        <ele>565.61328125</ele>
        <time>2013-12-01T15:20:59Z</time>
      </trkpt>
      <trkpt lat="43.36504" lon="6.02082">
        <ele>565.93359375</ele>
        <time>2013-12-01T15:21:00Z</time>
      </trkpt>
      <trkpt lat="43.36512" lon="6.02077">
        <ele>568.04296875</ele>
        <time>2013-12-01T15:21:06Z</time>
      </trkpt>
      <trkpt lat="43.36519" lon="6.02072">
        <ele>569.375</ele>
        <time>2013-12-01T15:21:11Z</time>
      </trkpt>
      <trkpt lat="43.3652" lon="6.0207">
        <ele>569.46484375</ele>
        <time>2013-12-01T15:21:12Z</time>
      </trkpt>
      <trkpt lat="43.36521" lon="6.02069">
        <ele>569.7265625</ele>
        <time>2013-12-01T15:21:13Z</time>
      </trkpt>
      <trkpt lat="43.36523" lon="6.02068">
        <ele>570.00390625</ele>
        <time>2013-12-01T15:21:14Z</time>
      </trkpt>
      <trkpt lat="43.36524" lon="6.02067">
        <ele>570.40234375</ele>
        <time>2013-12-01T15:21:15Z</time>
      </trkpt>
      <trkpt lat="43.36526" lon="6.02067">
        <ele>570.87109375</ele>
        <time>2013-12-01T15:21:16Z</time>
      </trkpt>
      <trkpt lat="43.36527" lon="6.02066">
        <ele>571.32421875</ele>
        <time>2013-12-01T15:21:17Z</time>
      </trkpt>
      <trkpt lat="43.36538" lon="6.02052">
        <ele>573.05859375</ele>
        <time>2013-12-01T15:21:25Z</time>
      </trkpt>
      <trkpt lat="43.36538" lon="6.0205">
        <ele>573.08984375</ele>
        <time>2013-12-01T15:21:26Z</time>
      </trkpt>
      <trkpt lat="43.3654" lon="6.02048">
        <ele>573.296875</ele>
        <time>2013-12-01T15:21:27Z</time>
      </trkpt>
      <trkpt lat="43.3654" lon="6.02046">
        <ele>573.25</ele>
        <time>2013-12-01T15:21:28Z</time>
      </trkpt>
      <trkpt lat="43.3654" lon="6.02042">
        <ele>573.0703125</ele>
        <time>2013-12-01T15:21:29Z</time>
      </trkpt>
      <trkpt lat="43.36541" lon="6.02039">
        <ele>572.98828125</ele>
        <time>2013-12-01T15:21:30Z</time>
      </trkpt>
      <trkpt lat="43.36541" lon="6.02037">
        <ele>572.859375</ele>
        <time>2013-12-01T15:21:31Z</time>
      </trkpt>
      <trkpt lat="43.36541" lon="6.02034">
        <ele>572.45703125</ele>
        <time>2013-12-01T15:21:32Z</time>
      </trkpt>
      <trkpt lat="43.3654" lon="6.02031">
        <ele>571.87109375</ele>
        <time>2013-12-01T15:21:33Z</time>
      </trkpt>
      <trkpt lat="43.36539" lon="6.02027">
        <ele>571.43359375</ele>
        <time>2013-12-01T15:21:34Z</time>
      </trkpt>
      <trkpt lat="43.36537" lon="6.02011">
        <ele>569.14453125</ele>
        <time>2013-12-01T15:21:40Z</time>
      </trkpt>
      <trkpt lat="43.36537" lon="6.02008">
        <ele>568.7109375</ele>
        <time>2013-12-01T15:21:41Z</time>
      </trkpt>
      <trkpt lat="43.36537" lon="6.02002">
        <ele>567.90625</ele>
        <time>2013-12-01T15:21:43Z</time>
      </trkpt>
      <trkpt lat="43.36535" lon="6.01998">
        <ele>567.0859375</ele>
        <time>2013-12-01T15:21:44Z</time>
      </trkpt>
      <trkpt lat="43.36535" lon="6.01994">
        <ele>566.5078125</ele>
        <time>2013-12-01T15:21:45Z</time>
      </trkpt>
      <trkpt lat="43.36534" lon="6.01992">
        <ele>566.30078125</ele>
        <time>2013-12-01T15:21:46Z</time>
      </trkpt>
      <trkpt lat="43.36534" lon="6.0199">
        <ele>566.1640625</ele>
        <time>2013-12-01T15:21:47Z</time>
      </trkpt>
      <trkpt lat="43.36532" lon="6.01972">
        <ele>565.046875</ele>
        <time>2013-12-01T15:21:52Z</time>
      </trkpt>
      <trkpt lat="43.36532" lon="6.01969">
        <ele>565.09375</ele>
        <time>2013-12-01T15:21:53Z</time>
      </trkpt>
      <trkpt lat="43.36531" lon="6.01967">
        <ele>564.89453125</ele>
        <time>2013-12-01T15:21:54Z</time>
      </trkpt>
      <trkpt lat="43.3653" lon="6.01965">
        <ele>564.35546875</ele>
        <time>2013-12-01T15:21:55Z</time>
      </trkpt>
      <trkpt lat="43.36529" lon="6.01962">
        <ele>563.8984375</ele>
        <time>2013-12-01T15:21:56Z</time>
      </trkpt>
      <trkpt lat="43.36529" lon="6.0196">
        <ele>563.83203125</ele>
        <time>2013-12-01T15:21:57Z</time>
      </trkpt>
      <trkpt lat="43.36529" lon="6.01957">
        <ele>563.80859375</ele>
        <time>2013-12-01T15:21:58Z</time>
      </trkpt>
      <trkpt lat="43.36529" lon="6.01954">
        <ele>563.82421875</ele>
        <time>2013-12-01T15:21:59Z</time>
      </trkpt>
      <trkpt lat="43.36529" lon="6.01922">
        <ele>564.09765625</ele>
        <time>2013-12-01T15:22:07Z</time>
      </trkpt>
      <trkpt lat="43.3653" lon="6.01919">
        <ele>564.546875</ele>
        <time>2013-12-01T15:22:08Z</time>
      </trkpt>
      <trkpt lat="43.36531" lon="6.01916">
        <ele>564.62890625</ele>
        <time>2013-12-01T15:22:09Z</time>
      </trkpt>
      <trkpt lat="43.3653" lon="6.01913">
        <ele>564.51171875</ele>
        <time>2013-12-01T15:22:10Z</time>
      </trkpt>
      <trkpt lat="43.3653" lon="6.01908">
        <ele>564.2734375</ele>
        <time>2013-12-01T15:22:11Z</time>
      </trkpt>
      <trkpt lat="43.3653" lon="6.01891">
        <ele>564.265625</ele>
        <time>2013-12-01T15:22:15Z</time>
      </trkpt>
      <trkpt lat="43.36514" lon="6.0186">
        <ele>560.48046875</ele>
        <time>2013-12-01T15:22:25Z</time>
      </trkpt>
      <trkpt lat="43.36503" lon="6.01838">
        <ele>560.41015625</ele>
        <time>2013-12-01T15:22:33Z</time>
      </trkpt>
      <trkpt lat="43.36502" lon="6.01835">
        <ele>560.6328125</ele>
        <time>2013-12-01T15:22:34Z</time>
      </trkpt>
      <trkpt lat="43.36502" lon="6.01832">
        <ele>560.74609375</ele>
        <time>2013-12-01T15:22:35Z</time>
      </trkpt>
      <trkpt lat="43.365" lon="6.01829">
        <ele>560.75390625</ele>
        <time>2013-12-01T15:22:36Z</time>
      </trkpt>
      <trkpt lat="43.36499" lon="6.01826">
        <ele>560.796875</ele>
        <time>2013-12-01T15:22:37Z</time>
      </trkpt>
      <trkpt lat="43.36492" lon="6.01797">
        <ele>562.015625</ele>
        <time>2013-12-01T15:22:47Z</time>
      </trkpt>
      <trkpt lat="43.36492" lon="6.01795">
        <ele>562.27734375</ele>
        <time>2013-12-01T15:22:48Z</time>
      </trkpt>
      <trkpt lat="43.36493" lon="6.01793">
        <ele>562.56640625</ele>
        <time>2013-12-01T15:22:49Z</time>
      </trkpt>
      <trkpt lat="43.36494" lon="6.01791">
        <ele>562.8125</ele>
        <time>2013-12-01T15:22:50Z</time>
      </trkpt>
      <trkpt lat="43.36495" lon="6.01788">
        <ele>563.04296875</ele>
        <time>2013-12-01T15:22:51Z</time>
      </trkpt>
      <trkpt lat="43.36495" lon="6.01785">
        <ele>563.16796875</ele>
        <time>2013-12-01T15:22:52Z</time>
      </trkpt>
      <trkpt lat="43.36495" lon="6.01782">
        <ele>563.3046875</ele>
        <time>2013-12-01T15:22:53Z</time>
      </trkpt>
      <trkpt lat="43.36495" lon="6.0178">
        <ele>563.4375</ele>
        <time>2013-12-01T15:22:54Z</time>
      </trkpt>
      <trkpt lat="43.36495" lon="6.01777">
        <ele>563.5234375</ele>
        <time>2013-12-01T15:22:55Z</time>
      </trkpt>
      <trkpt lat="43.36495" lon="6.01774">
        <ele>563.56640625</ele>
        <time>2013-12-01T15:22:56Z</time>
      </trkpt>
      <trkpt lat="43.36494" lon="6.01772">
        <ele>563.59765625</ele>
        <time>2013-12-01T15:22:57Z</time>
      </trkpt>
      <trkpt lat="43.36494" lon="6.01769">
        <ele>563.57421875</ele>
        <time>2013-12-01T15:22:58Z</time>
      </trkpt>
      <trkpt lat="43.36494" lon="6.01766">
        <ele>563.48046875</ele>
        <time>2013-12-01T15:22:59Z</time>
      </trkpt>
      <trkpt lat="43.36494" lon="6.01764">
        <ele>563.42578125</ele>
        <time>2013-12-01T15:23:00Z</time>
      </trkpt>
      <trkpt lat="43.36494" lon="6.01762">
        <ele>563.4921875</ele>
        <time>2013-12-01T15:23:01Z</time>
      </trkpt>
      <trkpt lat="43.36495" lon="6.0176">
        <ele>563.61328125</ele>
        <time>2013-12-01T15:23:02Z</time>
      </trkpt>
      <trkpt lat="43.36495" lon="6.01757">
        <ele>563.64453125</ele>
        <time>2013-12-01T15:23:03Z</time>
      </trkpt>
      <trkpt lat="43.36495" lon="6.01754">
        <ele>563.63671875</ele>
        <time>2013-12-01T15:23:04Z</time>
      </trkpt>
      <trkpt lat="43.36495" lon="6.01751">
        <ele>563.6875</ele>
        <time>2013-12-01T15:23:05Z</time>
      </trkpt>
      <trkpt lat="43.36495" lon="6.01748">
        <ele>563.71484375</ele>
        <time>2013-12-01T15:23:06Z</time>
      </trkpt>
      <trkpt lat="43.36496" lon="6.01745">
        <ele>563.78515625</ele>
        <time>2013-12-01T15:23:07Z</time>
      </trkpt>
      <trkpt lat="43.36496" lon="6.01742">
        <ele>563.921875</ele>
        <time>2013-12-01T15:23:08Z</time>
      </trkpt>
      <trkpt lat="43.36498" lon="6.01739">
        <ele>564.20703125</ele>
        <time>2013-12-01T15:23:09Z</time>
      </trkpt>
      <trkpt lat="43.365" lon="6.01737">
        <ele>564.60546875</ele>
        <time>2013-12-01T15:23:10Z</time>
      </trkpt>
      <trkpt lat="43.36502" lon="6.01736">
        <ele>565.00390625</ele>
        <time>2013-12-01T15:23:11Z</time>
      </trkpt>
      <trkpt lat="43.36504" lon="6.01735">
        <ele>565.40234375</ele>
        <time>2013-12-01T15:23:12Z</time>
      </trkpt>
      <trkpt lat="43.36505" lon="6.01734">
        <ele>565.75</ele>
        <time>2013-12-01T15:23:13Z</time>
      </trkpt>
      <trkpt lat="43.36507" lon="6.01732">
        <ele>566.109375</ele>
        <time>2013-12-01T15:23:14Z</time>
      </trkpt>
      <trkpt lat="43.36509" lon="6.01731">
        <ele>566.421875</ele>
        <time>2013-12-01T15:23:15Z</time>
      </trkpt>
      <trkpt lat="43.3651" lon="6.01729">
        <ele>566.6953125</ele>
        <time>2013-12-01T15:23:16Z</time>
      </trkpt>
      <trkpt lat="43.36512" lon="6.01728">
        <ele>566.99609375</ele>
        <time>2013-12-01T15:23:17Z</time>
      </trkpt>
      <trkpt lat="43.36513" lon="6.01726">
        <ele>567.14453125</ele>
        <time>2013-12-01T15:23:18Z</time>
      </trkpt>
      <trkpt lat="43.36514" lon="6.01724">
        <ele>567.2265625</ele>
        <time>2013-12-01T15:23:19Z</time>
      </trkpt>
      <trkpt lat="43.36515" lon="6.01722">
        <ele>567.375</ele>
        <time>2013-12-01T15:23:20Z</time>
      </trkpt>
      <trkpt lat="43.36516" lon="6.0172">
        <ele>567.546875</ele>
        <time>2013-12-01T15:23:21Z</time>
      </trkpt>
      <trkpt lat="43.36517" lon="6.01718">
        <ele>567.73828125</ele>
        <time>2013-12-01T15:23:22Z</time>
      </trkpt>
      <trkpt lat="43.36526" lon="6.01709">
        <ele>568.296875</ele>
        <time>2013-12-01T15:23:27Z</time>
      </trkpt>
      <trkpt lat="43.36527" lon="6.01708">
        <ele>568.390625</ele>
        <time>2013-12-01T15:23:28Z</time>
      </trkpt>
      <trkpt lat="43.36536" lon="6.01704">
        <ele>569.921875</ele>
        <time>2013-12-01T15:23:35Z</time>
      </trkpt>
      <trkpt lat="43.36538" lon="6.01702">
        <ele>570.20703125</ele>
        <time>2013-12-01T15:23:37Z</time>
      </trkpt>
      <trkpt lat="43.36542" lon="6.01698">
        <ele>570.6796875</ele>
        <time>2013-12-01T15:23:41Z</time>
      </trkpt>
      <trkpt lat="43.36548" lon="6.01692">
        <ele>571.2578125</ele>
        <time>2013-12-01T15:23:46Z</time>
      </trkpt>
      <trkpt lat="43.36549" lon="6.0169">
        <ele>571.27734375</ele>
        <time>2013-12-01T15:23:47Z</time>
      </trkpt>
      <trkpt lat="43.3655" lon="6.01688">
        <ele>571.296875</ele>
        <time>2013-12-01T15:23:48Z</time>
      </trkpt>
      <trkpt lat="43.36576" lon="6.01664">
        <ele>572.7421875</ele>
        <time>2013-12-01T15:24:01Z</time>
      </trkpt>
      <trkpt lat="43.36584" lon="6.01662">
        <ele>573.79296875</ele>
        <time>2013-12-01T15:24:05Z</time>
      </trkpt>
      <trkpt lat="43.36585" lon="6.0166">
        <ele>573.60546875</ele>
        <time>2013-12-01T15:24:06Z</time>
      </trkpt>
      <trkpt lat="43.36587" lon="6.01658">
        <ele>573.453125</ele>
        <time>2013-12-01T15:24:07Z</time>
      </trkpt>
      <trkpt lat="43.36589" lon="6.01656">
        <ele>573.375</ele>
        <time>2013-12-01T15:24:08Z</time>
      </trkpt>
      <trkpt lat="43.36591" lon="6.01655">
        <ele>573.4375</ele>
        <time>2013-12-01T15:24:09Z</time>
      </trkpt>
      <trkpt lat="43.36596" lon="6.01653">
        <ele>573.921875</ele>
        <time>2013-12-01T15:24:11Z</time>
      </trkpt>
      <trkpt lat="43.3662" lon="6.01631">
        <ele>574.15234375</ele>
        <time>2013-12-01T15:24:24Z</time>
      </trkpt>
      <trkpt lat="43.36621" lon="6.01629">
        <ele>573.9375</ele>
        <time>2013-12-01T15:24:25Z</time>
      </trkpt>
      <trkpt lat="43.36622" lon="6.01627">
        <ele>573.77734375</ele>
        <time>2013-12-01T15:24:26Z</time>
      </trkpt>
      <trkpt lat="43.36623" lon="6.01625">
        <ele>573.6640625</ele>
        <time>2013-12-01T15:24:27Z</time>
      </trkpt>
      <trkpt lat="43.36624" lon="6.01622">
        <ele>573.62109375</ele>
        <time>2013-12-01T15:24:28Z</time>
      </trkpt>
      <trkpt lat="43.36626" lon="6.0162">
        <ele>573.5859375</ele>
        <time>2013-12-01T15:24:29Z</time>
      </trkpt>
      <trkpt lat="43.36627" lon="6.01618">
        <ele>573.4609375</ele>
        <time>2013-12-01T15:24:30Z</time>
      </trkpt>
      <trkpt lat="43.36629" lon="6.01616">
        <ele>573.4921875</ele>
        <time>2013-12-01T15:24:31Z</time>
      </trkpt>
      <trkpt lat="43.36631" lon="6.01615">
        <ele>573.60546875</ele>
        <time>2013-12-01T15:24:32Z</time>
      </trkpt>
      <trkpt lat="43.36632" lon="6.01613">
        <ele>573.44140625</ele>
        <time>2013-12-01T15:24:33Z</time>
      </trkpt>
      <trkpt lat="43.36632" lon="6.0161">
        <ele>573.1015625</ele>
        <time>2013-12-01T15:24:34Z</time>
      </trkpt>
      <trkpt lat="43.36633" lon="6.01607">
        <ele>572.68359375</ele>
        <time>2013-12-01T15:24:35Z</time>
      </trkpt>
      <trkpt lat="43.36633" lon="6.01605">
        <ele>572.296875</ele>
        <time>2013-12-01T15:24:36Z</time>
      </trkpt>
      <trkpt lat="43.36635" lon="6.01601">
        <ele>572.14453125</ele>
        <time>2013-12-01T15:24:37Z</time>
      </trkpt>
      <trkpt lat="43.36636" lon="6.01598">
        <ele>572.1171875</ele>
        <time>2013-12-01T15:24:38Z</time>
      </trkpt>
      <trkpt lat="43.36637" lon="6.01596">
        <ele>572.10546875</ele>
        <time>2013-12-01T15:24:39Z</time>
      </trkpt>
      <trkpt lat="43.36639" lon="6.01593">
        <ele>571.94140625</ele>
        <time>2013-12-01T15:24:40Z</time>
      </trkpt>
      <trkpt lat="43.3664" lon="6.01589">
        <ele>571.74609375</ele>
        <time>2013-12-01T15:24:41Z</time>
      </trkpt>
      <trkpt lat="43.36641" lon="6.01587">
        <ele>571.60546875</ele>
        <time>2013-12-01T15:24:42Z</time>
      </trkpt>
      <trkpt lat="43.36642" lon="6.01584">
        <ele>571.703125</ele>
        <time>2013-12-01T15:24:43Z</time>
      </trkpt>
      <trkpt lat="43.36644" lon="6.01582">
        <ele>571.8203125</ele>
        <time>2013-12-01T15:24:44Z</time>
      </trkpt>
      <trkpt lat="43.36646" lon="6.0158">
        <ele>571.828125</ele>
        <time>2013-12-01T15:24:45Z</time>
      </trkpt>
      <trkpt lat="43.36647" lon="6.01578">
        <ele>571.8125</ele>
        <time>2013-12-01T15:24:46Z</time>
      </trkpt>
      <trkpt lat="43.36647" lon="6.01576">
        <ele>571.72265625</ele>
        <time>2013-12-01T15:24:47Z</time>
      </trkpt>
      <trkpt lat="43.36649" lon="6.01573">
        <ele>571.6875</ele>
        <time>2013-12-01T15:24:48Z</time>
      </trkpt>
      <trkpt lat="43.3665" lon="6.0157">
        <ele>571.78125</ele>
        <time>2013-12-01T15:24:49Z</time>
      </trkpt>
      <trkpt lat="43.36652" lon="6.01568">
        <ele>571.87109375</ele>
        <time>2013-12-01T15:24:50Z</time>
      </trkpt>
      <trkpt lat="43.36662" lon="6.01553">
        <ele>572.0859375</ele>
        <time>2013-12-01T15:24:57Z</time>
      </trkpt>
      <trkpt lat="43.36664" lon="6.01551">
        <ele>572.2109375</ele>
        <time>2013-12-01T15:24:58Z</time>
      </trkpt>
      <trkpt lat="43.36665" lon="6.01549">
        <ele>572.265625</ele>
        <time>2013-12-01T15:24:59Z</time>
      </trkpt>
      <trkpt lat="43.36677" lon="6.01535">
        <ele>572.11328125</ele>
        <time>2013-12-01T15:25:08Z</time>
      </trkpt>
      <trkpt lat="43.36679" lon="6.01534">
        <ele>572.2578125</ele>
        <time>2013-12-01T15:25:09Z</time>
      </trkpt>
      <trkpt lat="43.36681" lon="6.01533">
        <ele>572.34375</ele>
        <time>2013-12-01T15:25:10Z</time>
      </trkpt>
      <trkpt lat="43.36682" lon="6.01532">
        <ele>572.40234375</ele>
        <time>2013-12-01T15:25:11Z</time>
      </trkpt>
      <trkpt lat="43.36684" lon="6.01531">
        <ele>572.4609375</ele>
        <time>2013-12-01T15:25:12Z</time>
      </trkpt>
      <trkpt lat="43.36685" lon="6.0153">
        <ele>572.37109375</ele>
        <time>2013-12-01T15:25:13Z</time>
      </trkpt>
      <trkpt lat="43.36686" lon="6.01528">
        <ele>572.17578125</ele>
        <time>2013-12-01T15:25:14Z</time>
      </trkpt>
      <trkpt lat="43.36687" lon="6.01526">
        <ele>572.04296875</ele>
        <time>2013-12-01T15:25:15Z</time>
      </trkpt>
      <trkpt lat="43.36689" lon="6.01524">
        <ele>571.890625</ele>
        <time>2013-12-01T15:25:16Z</time>
      </trkpt>
      <trkpt lat="43.3669" lon="6.01521">
        <ele>571.65234375</ele>
        <time>2013-12-01T15:25:17Z</time>
      </trkpt>
      <trkpt lat="43.36691" lon="6.01519">
        <ele>571.36328125</ele>
        <time>2013-12-01T15:25:18Z</time>
      </trkpt>
      <trkpt lat="43.36693" lon="6.01516">
        <ele>571.07421875</ele>
        <time>2013-12-01T15:25:19Z</time>
      </trkpt>
      <trkpt lat="43.36694" lon="6.01514">
        <ele>570.76953125</ele>
        <time>2013-12-01T15:25:20Z</time>
      </trkpt>
      <trkpt lat="43.36697" lon="6.01508">
        <ele>570.05078125</ele>
        <time>2013-12-01T15:25:22Z</time>
      </trkpt>
      <trkpt lat="43.36699" lon="6.01506">
        <ele>569.87109375</ele>
        <time>2013-12-01T15:25:23Z</time>
      </trkpt>
      <trkpt lat="43.36701" lon="6.01504">
        <ele>569.7578125</ele>
        <time>2013-12-01T15:25:24Z</time>
      </trkpt>
      <trkpt lat="43.36702" lon="6.01503">
        <ele>569.67578125</ele>
        <time>2013-12-01T15:25:25Z</time>
      </trkpt>
      <trkpt lat="43.36704" lon="6.01502">
        <ele>569.625</ele>
        <time>2013-12-01T15:25:26Z</time>
      </trkpt>
      <trkpt lat="43.36705" lon="6.015">
        <ele>569.52734375</ele>
        <time>2013-12-01T15:25:27Z</time>
      </trkpt>
      <trkpt lat="43.36706" lon="6.01499">
        <ele>569.421875</ele>
        <time>2013-12-01T15:25:28Z</time>
      </trkpt>
      <trkpt lat="43.36708" lon="6.01497">
        <ele>569.33203125</ele>
        <time>2013-12-01T15:25:29Z</time>
      </trkpt>
      <trkpt lat="43.3671" lon="6.01496">
        <ele>569.2421875</ele>
        <time>2013-12-01T15:25:30Z</time>
      </trkpt>
      <trkpt lat="43.36714" lon="6.01492">
        <ele>569.09765625</ele>
        <time>2013-12-01T15:25:32Z</time>
      </trkpt>
      <trkpt lat="43.36716" lon="6.01489">
        <ele>568.74609375</ele>
        <time>2013-12-01T15:25:33Z</time>
      </trkpt>
      <trkpt lat="43.36718" lon="6.01487">
        <ele>568.50390625</ele>
        <time>2013-12-01T15:25:34Z</time>
      </trkpt>
      <trkpt lat="43.36721" lon="6.01485">
        <ele>568.39453125</ele>
        <time>2013-12-01T15:25:35Z</time>
      </trkpt>
      <trkpt lat="43.36724" lon="6.01484">
        <ele>568.4921875</ele>
        <time>2013-12-01T15:25:36Z</time>
      </trkpt>
      <trkpt lat="43.36728" lon="6.01483">
        <ele>568.73828125</ele>
        <time>2013-12-01T15:25:37Z</time>
      </trkpt>
      <trkpt lat="43.36742" lon="6.01482">
        <ele>569.74609375</ele>
        <time>2013-12-01T15:25:41Z</time>
      </trkpt>
      <trkpt lat="43.36745" lon="6.01479">
        <ele>569.62109375</ele>
        <time>2013-12-01T15:25:42Z</time>
      </trkpt>
      <trkpt lat="43.36748" lon="6.01476">
        <ele>569.78125</ele>
        <time>2013-12-01T15:25:43Z</time>
      </trkpt>
      <trkpt lat="43.36752" lon="6.01474">
        <ele>570.31640625</ele>
        <time>2013-12-01T15:25:44Z</time>
      </trkpt>
      <trkpt lat="43.36756" lon="6.01471">
        <ele>570.9296875</ele>
        <time>2013-12-01T15:25:45Z</time>
      </trkpt>
      <trkpt lat="43.3676" lon="6.01469">
        <ele>571.5078125</ele>
        <time>2013-12-01T15:25:46Z</time>
      </trkpt>
      <trkpt lat="43.36765" lon="6.01465">
        <ele>572.3515625</ele>
        <time>2013-12-01T15:25:48Z</time>
      </trkpt>
      <trkpt lat="43.36766" lon="6.01462">
        <ele>572.17578125</ele>
        <time>2013-12-01T15:25:49Z</time>
      </trkpt>
      <trkpt lat="43.36767" lon="6.01457">
        <ele>571.7578125</ele>
        <time>2013-12-01T15:25:50Z</time>
      </trkpt>
      <trkpt lat="43.36767" lon="6.01454">
        <ele>571.30859375</ele>
        <time>2013-12-01T15:25:51Z</time>
      </trkpt>
      <trkpt lat="43.36768" lon="6.0145">
        <ele>570.9140625</ele>
        <time>2013-12-01T15:25:52Z</time>
      </trkpt>
      <trkpt lat="43.36769" lon="6.01437">
        <ele>569.1875</ele>
        <time>2013-12-01T15:25:58Z</time>
      </trkpt>
      <trkpt lat="43.3677" lon="6.01434">
        <ele>568.97265625</ele>
        <time>2013-12-01T15:25:59Z</time>
      </trkpt>
      <trkpt lat="43.36771" lon="6.01432">
        <ele>568.828125</ele>
        <time>2013-12-01T15:26:00Z</time>
      </trkpt>
      <trkpt lat="43.36772" lon="6.01429">
        <ele>568.76171875</ele>
        <time>2013-12-01T15:26:01Z</time>
      </trkpt>
      <trkpt lat="43.36774" lon="6.01427">
        <ele>568.66015625</ele>
        <time>2013-12-01T15:26:02Z</time>
      </trkpt>
      <trkpt lat="43.36775" lon="6.01425">
        <ele>568.5859375</ele>
        <time>2013-12-01T15:26:03Z</time>
      </trkpt>
      <trkpt lat="43.36776" lon="6.01422">
        <ele>568.62890625</ele>
        <time>2013-12-01T15:26:04Z</time>
      </trkpt>
      <trkpt lat="43.36778" lon="6.0142">
        <ele>568.89453125</ele>
        <time>2013-12-01T15:26:05Z</time>
      </trkpt>
      <trkpt lat="43.36781" lon="6.01418">
        <ele>569.40234375</ele>
        <time>2013-12-01T15:26:06Z</time>
      </trkpt>
      <trkpt lat="43.36789" lon="6.0141">
        <ele>571.0078125</ele>
        <time>2013-12-01T15:26:09Z</time>
      </trkpt>
      <trkpt lat="43.36789" lon="6.01407">
        <ele>570.609375</ele>
        <time>2013-12-01T15:26:10Z</time>
      </trkpt>
      <trkpt lat="43.36782" lon="6.01368">
        <ele>565.4921875</ele>
        <time>2013-12-01T15:26:22Z</time>
      </trkpt>
      <trkpt lat="43.36784" lon="6.01348">
        <ele>566.4140625</ele>
        <time>2013-12-01T15:26:29Z</time>
      </trkpt>
      <trkpt lat="43.36784" lon="6.01345">
        <ele>566.66796875</ele>
        <time>2013-12-01T15:26:30Z</time>
      </trkpt>
      <trkpt lat="43.36785" lon="6.01343">
        <ele>567.0859375</ele>
        <time>2013-12-01T15:26:31Z</time>
      </trkpt>
      <trkpt lat="43.36787" lon="6.01342">
        <ele>567.62890625</ele>
        <time>2013-12-01T15:26:32Z</time>
      </trkpt>
      <trkpt lat="43.36788" lon="6.0134">
        <ele>568.1640625</ele>
        <time>2013-12-01T15:26:33Z</time>
      </trkpt>
      <trkpt lat="43.36789" lon="6.01338">
        <ele>568.6015625</ele>
        <time>2013-12-01T15:26:34Z</time>
      </trkpt>
      <trkpt lat="43.36793" lon="6.01331">
        <ele>570.42578125</ele>
        <time>2013-12-01T15:26:38Z</time>
      </trkpt>
      <trkpt lat="43.36793" lon="6.01329">
        <ele>570.57421875</ele>
        <time>2013-12-01T15:26:39Z</time>
      </trkpt>
      <trkpt lat="43.36793" lon="6.01327">
        <ele>570.4765625</ele>
        <time>2013-12-01T15:26:40Z</time>
      </trkpt>
      <trkpt lat="43.368" lon="6.01291">
        <ele>570.73046875</ele>
        <time>2013-12-01T15:26:50Z</time>
      </trkpt>
      <trkpt lat="43.36816" lon="6.01253">
        <ele>573.43359375</ele>
        <time>2013-12-01T15:27:02Z</time>
      </trkpt>
      <trkpt lat="43.36821" lon="6.01242">
        <ele>574.0625</ele>
        <time>2013-12-01T15:27:06Z</time>
      </trkpt>
      <trkpt lat="43.36822" lon="6.0124">
        <ele>573.95703125</ele>
        <time>2013-12-01T15:27:07Z</time>
      </trkpt>
      <trkpt lat="43.36822" lon="6.01238">
        <ele>573.88671875</ele>
        <time>2013-12-01T15:27:08Z</time>
      </trkpt>
      <trkpt lat="43.36823" lon="6.01236">
        <ele>573.94140625</ele>
        <time>2013-12-01T15:27:09Z</time>
      </trkpt>
      <trkpt lat="43.36824" lon="6.01234">
        <ele>574.00390625</ele>
        <time>2013-12-01T15:27:10Z</time>
      </trkpt>
      <trkpt lat="43.36844" lon="6.01205">
        <ele>576.67578125</ele>
        <time>2013-12-01T15:27:27Z</time>
      </trkpt>
      <trkpt lat="43.3685" lon="6.01197">
        <ele>577.61328125</ele>
        <time>2013-12-01T15:27:39Z</time>
      </trkpt>
      <trkpt lat="43.36852" lon="6.01194">
        <ele>577.8984375</ele>
        <time>2013-12-01T15:27:53Z</time>
      </trkpt>
      <trkpt lat="43.36855" lon="6.0119">
        <ele>578.21875</ele>
        <time>2013-12-01T15:28:03Z</time>
      </trkpt>
      <trkpt lat="43.36857" lon="6.01189">
        <ele>578.53125</ele>
        <time>2013-12-01T15:28:04Z</time>
      </trkpt>
      <trkpt lat="43.36858" lon="6.01188">
        <ele>578.91796875</ele>
        <time>2013-12-01T15:28:05Z</time>
      </trkpt>
      <trkpt lat="43.36864" lon="6.01183">
        <ele>580.44140625</ele>
        <time>2013-12-01T15:28:10Z</time>
      </trkpt>
      <trkpt lat="43.36865" lon="6.01182">
        <ele>580.51953125</ele>
        <time>2013-12-01T15:28:11Z</time>
      </trkpt>
      <trkpt lat="43.36866" lon="6.0118">
        <ele>580.69140625</ele>
        <time>2013-12-01T15:28:12Z</time>
      </trkpt>
      <trkpt lat="43.36877" lon="6.01161">
        <ele>581.703125</ele>
        <time>2013-12-01T15:28:24Z</time>
      </trkpt>
      <trkpt lat="43.36881" lon="6.01155">
        <ele>582.1484375</ele>
        <time>2013-12-01T15:28:28Z</time>
      </trkpt>
      <trkpt lat="43.36882" lon="6.01153">
        <ele>582.0078125</ele>
        <time>2013-12-01T15:28:29Z</time>
      </trkpt>
      <trkpt lat="43.36882" lon="6.0115">
        <ele>581.9296875</ele>
        <time>2013-12-01T15:28:30Z</time>
      </trkpt>
      <trkpt lat="43.36884" lon="6.01148">
        <ele>582.21484375</ele>
        <time>2013-12-01T15:28:43Z</time>
      </trkpt>
      <trkpt lat="43.36888" lon="6.01142">
        <ele>582.00390625</ele>
        <time>2013-12-01T15:28:57Z</time>
      </trkpt>
      <trkpt lat="43.3689" lon="6.0114">
        <ele>581.9609375</ele>
        <time>2013-12-01T15:29:06Z</time>
      </trkpt>
      <trkpt lat="43.36897" lon="6.01127">
        <ele>580.8046875</ele>
        <time>2013-12-01T15:29:16Z</time>
      </trkpt>
      <trkpt lat="43.36903" lon="6.01118">
        <ele>580.30859375</ele>
        <time>2013-12-01T15:29:20Z</time>
      </trkpt>
      <trkpt lat="43.3691" lon="6.01095">
        <ele>578.19140625</ele>
        <time>2013-12-01T15:29:28Z</time>
      </trkpt>
      <trkpt lat="43.36911" lon="6.01092">
        <ele>578.08984375</ele>
        <time>2013-12-01T15:29:29Z</time>
      </trkpt>
      <trkpt lat="43.36913" lon="6.0109">
        <ele>578.12890625</ele>
        <time>2013-12-01T15:29:30Z</time>
      </trkpt>
      <trkpt lat="43.36928" lon="6.01062">
        <ele>575.22265625</ele>
        <time>2013-12-01T15:29:44Z</time>
      </trkpt>
      <trkpt lat="43.36929" lon="6.0106">
        <ele>575.08203125</ele>
        <time>2013-12-01T15:29:45Z</time>
      </trkpt>
      <trkpt lat="43.3693" lon="6.0106">
        <ele>575.0625</ele>
        <time>2013-12-01T15:29:46Z</time>
      </trkpt>
      <trkpt lat="43.36931" lon="6.0106">
        <ele>575.04296875</ele>
        <time>2013-12-01T15:29:47Z</time>
      </trkpt>
      <trkpt lat="43.36932" lon="6.01059">
        <ele>574.91015625</ele>
        <time>2013-12-01T15:29:48Z</time>
      </trkpt>
      <trkpt lat="43.36933" lon="6.01057">
        <ele>574.7265625</ele>
        <time>2013-12-01T15:29:49Z</time>
      </trkpt>
      <trkpt lat="43.36935" lon="6.01051">
        <ele>574.046875</ele>
        <time>2013-12-01T15:29:53Z</time>
      </trkpt>
      <trkpt lat="43.36936" lon="6.01049">
        <ele>573.83984375</ele>
        <time>2013-12-01T15:29:55Z</time>
      </trkpt>
      <trkpt lat="43.36936" lon="6.01047">
        <ele>573.66796875</ele>
        <time>2013-12-01T15:29:56Z</time>
      </trkpt>
      <trkpt lat="43.36937" lon="6.01046">
        <ele>573.48046875</ele>
        <time>2013-12-01T15:29:57Z</time>
      </trkpt>
      <trkpt lat="43.36937" lon="6.01044">
        <ele>573.296875</ele>
        <time>2013-12-01T15:29:58Z</time>
      </trkpt>
      <trkpt lat="43.36938" lon="6.01042">
        <ele>573.1015625</ele>
        <time>2013-12-01T15:29:59Z</time>
      </trkpt>
      <trkpt lat="43.36938" lon="6.0104">
        <ele>572.91015625</ele>
        <time>2013-12-01T15:30:00Z</time>
      </trkpt>
      <trkpt lat="43.36936" lon="6.01028">
        <ele>571.59375</ele>
        <time>2013-12-01T15:30:12Z</time>
      </trkpt>
      <trkpt lat="43.36935" lon="6.01026">
        <ele>571.30859375</ele>
        <time>2013-12-01T15:30:46Z</time>
      </trkpt>
      <trkpt lat="43.36935" lon="6.01025">
        <ele>571.234375</ele>
        <time>2013-12-01T15:31:13Z</time>
      </trkpt>
      <trkpt lat="43.36933" lon="6.01025">
        <ele>571.2890625</ele>
        <time>2013-12-01T15:31:39Z</time>
      </trkpt>
      <trkpt lat="43.36932" lon="6.01025">
        <ele>571.26953125</ele>
        <time>2013-12-01T15:31:40Z</time>
      </trkpt>
      <trkpt lat="43.3693" lon="6.01025">
        <ele>571.2734375</ele>
        <time>2013-12-01T15:31:41Z</time>
      </trkpt>
      <trkpt lat="43.36911" lon="6.01036">
        <ele>572.15625</ele>
        <time>2013-12-01T15:31:49Z</time>
      </trkpt>
      <trkpt lat="43.36908" lon="6.01037">
        <ele>571.69921875</ele>
        <time>2013-12-01T15:31:51Z</time>
      </trkpt>
      <trkpt lat="43.36903" lon="6.01037">
        <ele>570.8359375</ele>
        <time>2013-12-01T15:31:54Z</time>
      </trkpt>
      <trkpt lat="43.36901" lon="6.01036">
        <ele>570.4765625</ele>
        <time>2013-12-01T15:31:56Z</time>
      </trkpt>
      <trkpt lat="43.369" lon="6.01034">
        <ele>570.203125</ele>
        <time>2013-12-01T15:31:57Z</time>
      </trkpt>
      <trkpt lat="43.36899" lon="6.01033">
        <ele>569.921875</ele>
        <time>2013-12-01T15:31:58Z</time>
      </trkpt>
      <trkpt lat="43.36894" lon="6.0103">
        <ele>568.8203125</ele>
        <time>2013-12-01T15:32:02Z</time>
      </trkpt>
      <trkpt lat="43.36892" lon="6.01029">
        <ele>568.46875</ele>
        <time>2013-12-01T15:32:03Z</time>
      </trkpt>
      <trkpt lat="43.36891" lon="6.01027">
        <ele>568.125</ele>
        <time>2013-12-01T15:32:04Z</time>
      </trkpt>
      <trkpt lat="43.36889" lon="6.01025">
        <ele>567.75390625</ele>
        <time>2013-12-01T15:32:05Z</time>
      </trkpt>
      <trkpt lat="43.36888" lon="6.01024">
        <ele>567.4296875</ele>
        <time>2013-12-01T15:32:06Z</time>
      </trkpt>
      <trkpt lat="43.36886" lon="6.01023">
        <ele>567.13671875</ele>
        <time>2013-12-01T15:32:07Z</time>
      </trkpt>
      <trkpt lat="43.36885" lon="6.01022">
        <ele>566.86328125</ele>
        <time>2013-12-01T15:32:08Z</time>
      </trkpt>
      <trkpt lat="43.36883" lon="6.0102">
        <ele>566.50390625</ele>
        <time>2013-12-01T15:32:09Z</time>
      </trkpt>
      <trkpt lat="43.36872" lon="6.01013">
        <ele>564.234375</ele>
        <time>2013-12-01T15:32:13Z</time>
      </trkpt>
      <trkpt lat="43.36863" lon="6.01007">
        <ele>562.5078125</ele>
        <time>2013-12-01T15:32:16Z</time>
      </trkpt>
      <trkpt lat="43.36855" lon="6.00998">
        <ele>560.92578125</ele>
        <time>2013-12-01T15:32:19Z</time>
      </trkpt>
      <trkpt lat="43.36847" lon="6.00995">
        <ele>558.65625</ele>
        <time>2013-12-01T15:32:22Z</time>
      </trkpt>
      <trkpt lat="43.36845" lon="6.00993">
        <ele>558.21875</ele>
        <time>2013-12-01T15:32:23Z</time>
      </trkpt>
      <trkpt lat="43.36843" lon="6.00991">
        <ele>557.7890625</ele>
        <time>2013-12-01T15:32:24Z</time>
      </trkpt>
      <trkpt lat="43.36838" lon="6.00989">
        <ele>556.5078125</ele>
        <time>2013-12-01T15:32:27Z</time>
      </trkpt>
      <trkpt lat="43.36836" lon="6.00989">
        <ele>555.9609375</ele>
        <time>2013-12-01T15:32:28Z</time>
      </trkpt>
      <trkpt lat="43.36834" lon="6.00988">
        <ele>555.5625</ele>
        <time>2013-12-01T15:32:29Z</time>
      </trkpt>
      <trkpt lat="43.36832" lon="6.00986">
        <ele>555.24609375</ele>
        <time>2013-12-01T15:32:30Z</time>
      </trkpt>
      <trkpt lat="43.3683" lon="6.00985">
        <ele>554.75</ele>
        <time>2013-12-01T15:32:31Z</time>
      </trkpt>
      <trkpt lat="43.36827" lon="6.00984">
        <ele>554.234375</ele>
        <time>2013-12-01T15:32:32Z</time>
      </trkpt>
      <trkpt lat="43.36825" lon="6.00982">
        <ele>553.8359375</ele>
        <time>2013-12-01T15:32:33Z</time>
      </trkpt>
      <trkpt lat="43.36822" lon="6.0098">
        <ele>553.5625</ele>
        <time>2013-12-01T15:32:34Z</time>
      </trkpt>
      <trkpt lat="43.3682" lon="6.00977">
        <ele>553.421875</ele>
        <time>2013-12-01T15:32:35Z</time>
      </trkpt>
      <trkpt lat="43.36818" lon="6.00974">
        <ele>553.3515625</ele>
        <time>2013-12-01T15:32:36Z</time>
      </trkpt>
      <trkpt lat="43.36798" lon="6.00953">
        <ele>552.6875</ele>
        <time>2013-12-01T15:32:44Z</time>
      </trkpt>
      <trkpt lat="43.36796" lon="6.0095">
        <ele>552.8984375</ele>
        <time>2013-12-01T15:32:45Z</time>
      </trkpt>
      <trkpt lat="43.36794" lon="6.00947">
        <ele>553.2265625</ele>
        <time>2013-12-01T15:32:46Z</time>
      </trkpt>
      <trkpt lat="43.36792" lon="6.00945">
        <ele>553.609375</ele>
        <time>2013-12-01T15:32:47Z</time>
      </trkpt>
      <trkpt lat="43.36791" lon="6.00943">
        <ele>553.66015625</ele>
        <time>2013-12-01T15:32:48Z</time>
      </trkpt>
      <trkpt lat="43.36788" lon="6.00942">
        <ele>553.5078125</ele>
        <time>2013-12-01T15:32:49Z</time>
      </trkpt>
      <trkpt lat="43.36768" lon="6.00919">
        <ele>554.79296875</ele>
        <time>2013-12-01T15:32:57Z</time>
      </trkpt>
      <trkpt lat="43.36766" lon="6.00917">
        <ele>554.80859375</ele>
        <time>2013-12-01T15:32:58Z</time>
      </trkpt>
      <trkpt lat="43.36734" lon="6.00888">
        <ele>553.953125</ele>
        <time>2013-12-01T15:33:09Z</time>
      </trkpt>
      <trkpt lat="43.36721" lon="6.00877">
        <ele>552.734375</ele>
        <time>2013-12-01T15:33:13Z</time>
      </trkpt>
      <trkpt lat="43.36711" lon="6.00868">
        <ele>552.046875</ele>
        <time>2013-12-01T15:33:16Z</time>
      </trkpt>
      <trkpt lat="43.3671" lon="6.00864">
        <ele>552.30859375</ele>
        <time>2013-12-01T15:33:17Z</time>
      </trkpt>
      <trkpt lat="43.36709" lon="6.00859">
        <ele>552.94921875</ele>
        <time>2013-12-01T15:33:18Z</time>
      </trkpt>
      <trkpt lat="43.36708" lon="6.00842">
        <ele>555.54296875</ele>
        <time>2013-12-01T15:33:21Z</time>
      </trkpt>
      <trkpt lat="43.36704" lon="6.00823">
        <ele>557.515625</ele>
        <time>2013-12-01T15:33:25Z</time>
      </trkpt>
      <trkpt lat="43.36701" lon="6.00822">
        <ele>557.03515625</ele>
        <time>2013-12-01T15:33:26Z</time>
      </trkpt>
      <trkpt lat="43.36692" lon="6.00822">
        <ele>554.41796875</ele>
        <time>2013-12-01T15:33:30Z</time>
      </trkpt>
      <trkpt lat="43.3669" lon="6.00824">
        <ele>553.5546875</ele>
        <time>2013-12-01T15:33:31Z</time>
      </trkpt>
      <trkpt lat="43.36656" lon="6.00851">
        <ele>544.46875</ele>
        <time>2013-12-01T15:33:44Z</time>
      </trkpt>
      <trkpt lat="43.36625" lon="6.00876">
        <ele>542.609375</ele>
        <time>2013-12-01T15:33:56Z</time>
      </trkpt>
      <trkpt lat="43.36622" lon="6.00878">
        <ele>542.3515625</ele>
        <time>2013-12-01T15:33:57Z</time>
      </trkpt>
      <trkpt lat="43.3662" lon="6.00881">
        <ele>541.91015625</ele>
        <time>2013-12-01T15:33:58Z</time>
      </trkpt>
      <trkpt lat="43.36617" lon="6.00883">
        <ele>541.48046875</ele>
        <time>2013-12-01T15:33:59Z</time>
      </trkpt>
      <trkpt lat="43.36615" lon="6.00886">
        <ele>541.1328125</ele>
        <time>2013-12-01T15:34:00Z</time>
      </trkpt>
      <trkpt lat="43.36612" lon="6.00888">
        <ele>540.91796875</ele>
        <time>2013-12-01T15:34:01Z</time>
      </trkpt>
      <trkpt lat="43.36609" lon="6.00889">
        <ele>540.89453125</ele>
        <time>2013-12-01T15:34:02Z</time>
      </trkpt>
      <trkpt lat="43.36606" lon="6.00889">
        <ele>541.109375</ele>
        <time>2013-12-01T15:34:03Z</time>
      </trkpt>
      <trkpt lat="43.36568" lon="6.00888">
        <ele>546.40625</ele>
        <time>2013-12-01T15:34:14Z</time>
      </trkpt>
      <trkpt lat="43.36549" lon="6.00882">
        <ele>548.33203125</ele>
        <time>2013-12-01T15:34:19Z</time>
      </trkpt>
      <trkpt lat="43.36541" lon="6.00876">
        <ele>549.15625</ele>
        <time>2013-12-01T15:34:21Z</time>
      </trkpt>
      <trkpt lat="43.36534" lon="6.00868">
        <ele>550.15625</ele>
        <time>2013-12-01T15:34:23Z</time>
      </trkpt>
      <trkpt lat="43.3652" lon="6.00841">
        <ele>552.0078125</ele>
        <time>2013-12-01T15:34:29Z</time>
      </trkpt>
      <trkpt lat="43.36519" lon="6.00836">
        <ele>552.31640625</ele>
        <time>2013-12-01T15:34:30Z</time>
      </trkpt>
      <trkpt lat="43.36518" lon="6.0083">
        <ele>552.6640625</ele>
        <time>2013-12-01T15:34:31Z</time>
      </trkpt>
      <trkpt lat="43.36516" lon="6.00819">
        <ele>552.578125</ele>
        <time>2013-12-01T15:34:33Z</time>
      </trkpt>
      <trkpt lat="43.36516" lon="6.00815">
        <ele>552.73046875</ele>
        <time>2013-12-01T15:34:34Z</time>
      </trkpt>
      <trkpt lat="43.36519" lon="6.00792">
        <ele>553.5546875</ele>
        <time>2013-12-01T15:34:38Z</time>
      </trkpt>
      <trkpt lat="43.3652" lon="6.00786">
        <ele>553.74609375</ele>
        <time>2013-12-01T15:34:39Z</time>
      </trkpt>
      <trkpt lat="43.36522" lon="6.00782">
        <ele>554.265625</ele>
        <time>2013-12-01T15:34:40Z</time>
      </trkpt>
      <trkpt lat="43.36523" lon="6.00778">
        <ele>554.703125</ele>
        <time>2013-12-01T15:34:41Z</time>
      </trkpt>
      <trkpt lat="43.36524" lon="6.00773">
        <ele>554.7265625</ele>
        <time>2013-12-01T15:34:42Z</time>
      </trkpt>
      <trkpt lat="43.36523" lon="6.00768">
        <ele>554.25</ele>
        <time>2013-12-01T15:34:43Z</time>
      </trkpt>
      <trkpt lat="43.36522" lon="6.00763">
        <ele>553.69140625</ele>
        <time>2013-12-01T15:34:44Z</time>
      </trkpt>
      <trkpt lat="43.36523" lon="6.00757">
        <ele>553.3984375</ele>
        <time>2013-12-01T15:34:45Z</time>
      </trkpt>
      <trkpt lat="43.36524" lon="6.00752">
        <ele>553.390625</ele>
        <time>2013-12-01T15:34:46Z</time>
      </trkpt>
      <trkpt lat="43.36525" lon="6.00748">
        <ele>553.421875</ele>
        <time>2013-12-01T15:34:47Z</time>
      </trkpt>
      <trkpt lat="43.36526" lon="6.00744">
        <ele>553.40625</ele>
        <time>2013-12-01T15:34:48Z</time>
      </trkpt>
      <trkpt lat="43.36526" lon="6.00739">
        <ele>553.37109375</ele>
        <time>2013-12-01T15:34:49Z</time>
      </trkpt>
      <trkpt lat="43.36527" lon="6.00735">
        <ele>553.33984375</ele>
        <time>2013-12-01T15:34:50Z</time>
      </trkpt>
      <trkpt lat="43.36527" lon="6.00731">
        <ele>553.21484375</ele>
        <time>2013-12-01T15:34:51Z</time>
      </trkpt>
      <trkpt lat="43.36527" lon="6.00726">
        <ele>553.01953125</ele>
        <time>2013-12-01T15:34:52Z</time>
      </trkpt>
      <trkpt lat="43.36527" lon="6.0072">
        <ele>552.95703125</ele>
        <time>2013-12-01T15:34:53Z</time>
      </trkpt>
      <trkpt lat="43.36528" lon="6.00703">
        <ele>552.1640625</ele>
        <time>2013-12-01T15:34:56Z</time>
      </trkpt>
      <trkpt lat="43.36527" lon="6.00697">
        <ele>551.38671875</ele>
        <time>2013-12-01T15:34:57Z</time>
      </trkpt>
      <trkpt lat="43.36526" lon="6.00691">
        <ele>550.54296875</ele>
        <time>2013-12-01T15:34:58Z</time>
      </trkpt>
      <trkpt lat="43.36519" lon="6.00672">
        <ele>547.8515625</ele>
        <time>2013-12-01T15:35:02Z</time>
      </trkpt>
      <trkpt lat="43.36517" lon="6.00668">
        <ele>547.0546875</ele>
        <time>2013-12-01T15:35:03Z</time>
      </trkpt>
      <trkpt lat="43.36516" lon="6.00664">
        <ele>546.58203125</ele>
        <time>2013-12-01T15:35:04Z</time>
      </trkpt>
      <trkpt lat="43.36515" lon="6.0066">
        <ele>546.34765625</ele>
        <time>2013-12-01T15:35:05Z</time>
      </trkpt>
      <trkpt lat="43.36514" lon="6.00657">
        <ele>545.9296875</ele>
        <time>2013-12-01T15:35:06Z</time>
      </trkpt>
      <trkpt lat="43.36511" lon="6.00654">
        <ele>545.32421875</ele>
        <time>2013-12-01T15:35:07Z</time>
      </trkpt>
      <trkpt lat="43.36509" lon="6.00651">
        <ele>544.79296875</ele>
        <time>2013-12-01T15:35:08Z</time>
      </trkpt>
      <trkpt lat="43.36508" lon="6.00647">
        <ele>544.52734375</ele>
        <time>2013-12-01T15:35:09Z</time>
      </trkpt>
      <trkpt lat="43.36507" lon="6.00643">
        <ele>544.39453125</ele>
        <time>2013-12-01T15:35:10Z</time>
      </trkpt>
      <trkpt lat="43.36506" lon="6.00638">
        <ele>544.31640625</ele>
        <time>2013-12-01T15:35:11Z</time>
      </trkpt>
      <trkpt lat="43.36505" lon="6.00633">
        <ele>544.0234375</ele>
        <time>2013-12-01T15:35:12Z</time>
      </trkpt>
      <trkpt lat="43.36503" lon="6.00631">
        <ele>543.6171875</ele>
        <time>2013-12-01T15:35:13Z</time>
      </trkpt>
      <trkpt lat="43.36497" lon="6.00626">
        <ele>542.1171875</ele>
        <time>2013-12-01T15:35:23Z</time>
      </trkpt>
      <trkpt lat="43.36489" lon="6.00621">
        <ele>540.66796875</ele>
        <time>2013-12-01T15:35:38Z</time>
      </trkpt>
      <trkpt lat="43.36487" lon="6.00618">
        <ele>540.2890625</ele>
        <time>2013-12-01T15:35:42Z</time>
      </trkpt>
      <trkpt lat="43.36486" lon="6.00616">
        <ele>540.21484375</ele>
        <time>2013-12-01T15:35:43Z</time>
      </trkpt>
      <trkpt lat="43.36485" lon="6.00614">
        <ele>540.1328125</ele>
        <time>2013-12-01T15:35:44Z</time>
      </trkpt>
      <trkpt lat="43.36484" lon="6.00613">
        <ele>539.921875</ele>
        <time>2013-12-01T15:35:45Z</time>
      </trkpt>
      <trkpt lat="43.36482" lon="6.00612">
        <ele>539.6796875</ele>
        <time>2013-12-01T15:35:46Z</time>
      </trkpt>
      <trkpt lat="43.36481" lon="6.00611">
        <ele>539.54296875</ele>
        <time>2013-12-01T15:35:47Z</time>
      </trkpt>
      <trkpt lat="43.3648" lon="6.00609">
        <ele>539.46875</ele>
        <time>2013-12-01T15:35:48Z</time>
      </trkpt>
      <trkpt lat="43.36479" lon="6.00608">
        <ele>539.34765625</ele>
        <time>2013-12-01T15:35:49Z</time>
      </trkpt>
      <trkpt lat="43.36477" lon="6.00606">
        <ele>539.23046875</ele>
        <time>2013-12-01T15:35:50Z</time>
      </trkpt>
      <trkpt lat="43.36476" lon="6.00604">
        <ele>539.2109375</ele>
        <time>2013-12-01T15:35:51Z</time>
      </trkpt>
      <trkpt lat="43.36465" lon="6.00582">
        <ele>540.62109375</ele>
        <time>2013-12-01T15:36:02Z</time>
      </trkpt>
      <trkpt lat="43.36466" lon="6.00579">
        <ele>540.94140625</ele>
        <time>2013-12-01T15:36:04Z</time>
      </trkpt>
      <trkpt lat="43.36469" lon="6.00569">
        <ele>542.7578125</ele>
        <time>2013-12-01T15:36:15Z</time>
      </trkpt>
      <trkpt lat="43.36468" lon="6.00564">
        <ele>543.640625</ele>
        <time>2013-12-01T15:36:32Z</time>
      </trkpt>
      <trkpt lat="43.36465" lon="6.00552">
        <ele>545.3984375</ele>
        <time>2013-12-01T15:36:41Z</time>
      </trkpt>
      <trkpt lat="43.3646" lon="6.00533">
        <ele>547.8828125</ele>
        <time>2013-12-01T15:36:57Z</time>
      </trkpt>
      <trkpt lat="43.3646" lon="6.00519">
        <ele>550.046875</ele>
        <time>2013-12-01T15:37:14Z</time>
      </trkpt>
      <trkpt lat="43.36454" lon="6.00507">
        <ele>551.15625</ele>
        <time>2013-12-01T15:37:27Z</time>
      </trkpt>
      <trkpt lat="43.36445" lon="6.0049">
        <ele>551.9765625</ele>
        <time>2013-12-01T15:37:38Z</time>
      </trkpt>
      <trkpt lat="43.36445" lon="6.00487">
        <ele>552.125</ele>
        <time>2013-12-01T15:37:39Z</time>
      </trkpt>
      <trkpt lat="43.36445" lon="6.00485">
        <ele>552.28515625</ele>
        <time>2013-12-01T15:37:40Z</time>
      </trkpt>
      <trkpt lat="43.36444" lon="6.00483">
        <ele>552.38671875</ele>
        <time>2013-12-01T15:37:41Z</time>
      </trkpt>
      <trkpt lat="43.36444" lon="6.00481">
        <ele>552.5390625</ele>
        <time>2013-12-01T15:37:42Z</time>
      </trkpt>
      <trkpt lat="43.36445" lon="6.00479">
        <ele>552.73828125</ele>
        <time>2013-12-01T15:37:43Z</time>
      </trkpt>
      <trkpt lat="43.36445" lon="6.00477">
        <ele>552.95703125</ele>
        <time>2013-12-01T15:37:44Z</time>
      </trkpt>
      <trkpt lat="43.36445" lon="6.00474">
        <ele>553.23828125</ele>
        <time>2013-12-01T15:37:45Z</time>
      </trkpt>
      <trkpt lat="43.36447" lon="6.00467">
        <ele>554.08984375</ele>
        <time>2013-12-01T15:37:48Z</time>
      </trkpt>
      <trkpt lat="43.36448" lon="6.00464">
        <ele>554.3515625</ele>
        <time>2013-12-01T15:37:49Z</time>
      </trkpt>
      <trkpt lat="43.36448" lon="6.00462">
        <ele>554.5546875</ele>
        <time>2013-12-01T15:37:50Z</time>
      </trkpt>
      <trkpt lat="43.36449" lon="6.00459">
        <ele>554.75</ele>
        <time>2013-12-01T15:37:51Z</time>
      </trkpt>
      <trkpt lat="43.36449" lon="6.00456">
        <ele>554.98828125</ele>
        <time>2013-12-01T15:37:52Z</time>
      </trkpt>
      <trkpt lat="43.3645" lon="6.00454">
        <ele>555.25390625</ele>
        <time>2013-12-01T15:37:53Z</time>
      </trkpt>
      <trkpt lat="43.36451" lon="6.00451">
        <ele>555.53125</ele>
        <time>2013-12-01T15:37:54Z</time>
      </trkpt>
      <trkpt lat="43.36451" lon="6.00448">
        <ele>555.8046875</ele>
        <time>2013-12-01T15:37:55Z</time>
      </trkpt>
      <trkpt lat="43.36459" lon="6.00418">
        <ele>556.3515625</ele>
        <time>2013-12-01T15:38:02Z</time>
      </trkpt>
      <trkpt lat="43.3646" lon="6.00413">
        <ele>556.1875</ele>
        <time>2013-12-01T15:38:03Z</time>
      </trkpt>
      <trkpt lat="43.36462" lon="6.00408">
        <ele>556.15234375</ele>
        <time>2013-12-01T15:38:04Z</time>
      </trkpt>
      <trkpt lat="43.36465" lon="6.00403">
        <ele>556.20703125</ele>
        <time>2013-12-01T15:38:05Z</time>
      </trkpt>
      <trkpt lat="43.36467" lon="6.00398">
        <ele>556.08203125</ele>
        <time>2013-12-01T15:38:06Z</time>
      </trkpt>
      <trkpt lat="43.3647" lon="6.00393">
        <ele>556.0625</ele>
        <time>2013-12-01T15:38:07Z</time>
      </trkpt>
      <trkpt lat="43.36472" lon="6.00387">
        <ele>556.19921875</ele>
        <time>2013-12-01T15:38:08Z</time>
      </trkpt>
      <trkpt lat="43.36475" lon="6.00381">
        <ele>555.89453125</ele>
        <time>2013-12-01T15:38:09Z</time>
      </trkpt>
      <trkpt lat="43.36476" lon="6.00375">
        <ele>555.34765625</ele>
        <time>2013-12-01T15:38:10Z</time>
      </trkpt>
      <trkpt lat="43.36479" lon="6.0037">
        <ele>555.11328125</ele>
        <time>2013-12-01T15:38:11Z</time>
      </trkpt>
      <trkpt lat="43.36481" lon="6.00365">
        <ele>554.734375</ele>
        <time>2013-12-01T15:38:12Z</time>
      </trkpt>
      <trkpt lat="43.36482" lon="6.0036">
        <ele>554.359375</ele>
        <time>2013-12-01T15:38:13Z</time>
      </trkpt>
      <trkpt lat="43.36488" lon="6.00343">
        <ele>553.99609375</ele>
        <time>2013-12-01T15:38:16Z</time>
      </trkpt>
      <trkpt lat="43.36489" lon="6.00339">
        <ele>553.8671875</ele>
        <time>2013-12-01T15:38:17Z</time>
      </trkpt>
      <trkpt lat="43.3649" lon="6.00335">
        <ele>553.62890625</ele>
        <time>2013-12-01T15:38:18Z</time>
      </trkpt>
      <trkpt lat="43.3649" lon="6.00331">
        <ele>553.15234375</ele>
        <time>2013-12-01T15:38:19Z</time>
      </trkpt>
      <trkpt lat="43.36488" lon="6.00327">
        <ele>552.44140625</ele>
        <time>2013-12-01T15:38:20Z</time>
      </trkpt>
      <trkpt lat="43.36487" lon="6.00324">
        <ele>551.6640625</ele>
        <time>2013-12-01T15:38:21Z</time>
      </trkpt>
      <trkpt lat="43.36486" lon="6.0032">
        <ele>550.91796875</ele>
        <time>2013-12-01T15:38:22Z</time>
      </trkpt>
      <trkpt lat="43.36482" lon="6.00314">
        <ele>549.22265625</ele>
        <time>2013-12-01T15:38:24Z</time>
      </trkpt>
      <trkpt lat="43.3648" lon="6.00311">
        <ele>548.23828125</ele>
        <time>2013-12-01T15:38:25Z</time>
      </trkpt>
      <trkpt lat="43.36477" lon="6.00308">
        <ele>547.2578125</ele>
        <time>2013-12-01T15:38:26Z</time>
      </trkpt>
      <trkpt lat="43.36475" lon="6.00307">
        <ele>546.3203125</ele>
        <time>2013-12-01T15:38:27Z</time>
      </trkpt>
      <trkpt lat="43.36472" lon="6.00305">
        <ele>545.4140625</ele>
        <time>2013-12-01T15:38:28Z</time>
      </trkpt>
      <trkpt lat="43.3647" lon="6.00304">
        <ele>544.5546875</ele>
        <time>2013-12-01T15:38:29Z</time>
      </trkpt>
      <trkpt lat="43.36467" lon="6.00302">
        <ele>543.73828125</ele>
        <time>2013-12-01T15:38:30Z</time>
      </trkpt>
      <trkpt lat="43.36465" lon="6.00299">
        <ele>543.3203125</ele>
        <time>2013-12-01T15:38:31Z</time>
      </trkpt>
      <trkpt lat="43.36464" lon="6.00297">
        <ele>543.0078125</ele>
        <time>2013-12-01T15:38:32Z</time>
      </trkpt>
      <trkpt lat="43.36461" lon="6.00296">
        <ele>542.60546875</ele>
        <time>2013-12-01T15:38:33Z</time>
      </trkpt>
      <trkpt lat="43.36459" lon="6.00294">
        <ele>542.1796875</ele>
        <time>2013-12-01T15:38:34Z</time>
      </trkpt>
      <trkpt lat="43.36457" lon="6.00292">
        <ele>541.88671875</ele>
        <time>2013-12-01T15:38:35Z</time>
      </trkpt>
      <trkpt lat="43.36455" lon="6.00289">
        <ele>541.66796875</ele>
        <time>2013-12-01T15:38:36Z</time>
      </trkpt>
      <trkpt lat="43.36453" lon="6.00286">
        <ele>541.45703125</ele>
        <time>2013-12-01T15:38:37Z</time>
      </trkpt>
      <trkpt lat="43.36452" lon="6.00284">
        <ele>541.2578125</ele>
        <time>2013-12-01T15:38:38Z</time>
      </trkpt>
      <trkpt lat="43.3645" lon="6.00282">
        <ele>541.0234375</ele>
        <time>2013-12-01T15:38:39Z</time>
      </trkpt>
      <trkpt lat="43.36448" lon="6.00281">
        <ele>540.77734375</ele>
        <time>2013-12-01T15:38:40Z</time>
      </trkpt>
      <trkpt lat="43.36446" lon="6.00278">
        <ele>540.5546875</ele>
        <time>2013-12-01T15:38:41Z</time>
      </trkpt>
      <trkpt lat="43.36445" lon="6.00276">
        <ele>540.50390625</ele>
        <time>2013-12-01T15:38:42Z</time>
      </trkpt>
      <trkpt lat="43.36445" lon="6.00274">
        <ele>540.57421875</ele>
        <time>2013-12-01T15:38:43Z</time>
      </trkpt>
      <trkpt lat="43.36444" lon="6.00271">
        <ele>540.78125</ele>
        <time>2013-12-01T15:38:44Z</time>
      </trkpt>
      <trkpt lat="43.36444" lon="6.00268">
        <ele>541.015625</ele>
        <time>2013-12-01T15:38:45Z</time>
      </trkpt>
      <trkpt lat="43.36444" lon="6.00265">
        <ele>541.3125</ele>
        <time>2013-12-01T15:38:46Z</time>
      </trkpt>
      <trkpt lat="43.36444" lon="6.00262">
        <ele>541.68359375</ele>
        <time>2013-12-01T15:38:47Z</time>
      </trkpt>
      <trkpt lat="43.36445" lon="6.00259">
        <ele>542.0859375</ele>
        <time>2013-12-01T15:38:48Z</time>
      </trkpt>
      <trkpt lat="43.36445" lon="6.00256">
        <ele>542.43359375</ele>
        <time>2013-12-01T15:38:49Z</time>
      </trkpt>
      <trkpt lat="43.36445" lon="6.00253">
        <ele>542.69921875</ele>
        <time>2013-12-01T15:38:50Z</time>
      </trkpt>
      <trkpt lat="43.36444" lon="6.00251">
        <ele>542.8359375</ele>
        <time>2013-12-01T15:38:51Z</time>
      </trkpt>
      <trkpt lat="43.36443" lon="6.00245">
        <ele>543.21484375</ele>
        <time>2013-12-01T15:39:00Z</time>
      </trkpt>
      <trkpt lat="43.36435" lon="6.00217">
        <ele>544.4140625</ele>
        <time>2013-12-01T15:39:10Z</time>
      </trkpt>
      <trkpt lat="43.36433" lon="6.00201">
        <ele>545.33203125</ele>
        <time>2013-12-01T15:39:13Z</time>
      </trkpt>
      <trkpt lat="43.36431" lon="6.00197">
        <ele>545.4453125</ele>
        <time>2013-12-01T15:39:14Z</time>
      </trkpt>
      <trkpt lat="43.36429" lon="6.00193">
        <ele>545.4375</ele>
        <time>2013-12-01T15:39:15Z</time>
      </trkpt>
      <trkpt lat="43.36406" lon="6.00173">
        <ele>543.82421875</ele>
        <time>2013-12-01T15:39:24Z</time>
      </trkpt>
      <trkpt lat="43.364" lon="6.00182">
        <ele>542.875</ele>
        <time>2013-12-01T15:39:29Z</time>
      </trkpt>
      <trkpt lat="43.36396" lon="6.00195">
        <ele>541.80078125</ele>
        <time>2013-12-01T15:39:45Z</time>
      </trkpt>
      <trkpt lat="43.36392" lon="6.00194">
        <ele>541.39453125</ele>
        <time>2013-12-01T15:40:01Z</time>
      </trkpt>
      <trkpt lat="43.36385" lon="6.00195">
        <ele>540.67578125</ele>
        <time>2013-12-01T15:40:30Z</time>
      </trkpt>
      <trkpt lat="43.36392" lon="6.00197">
        <ele>541.12109375</ele>
        <time>2013-12-01T15:40:59Z</time>
      </trkpt>
      <trkpt lat="43.36389" lon="6.00196">
        <ele>540.95703125</ele>
        <time>2013-12-01T15:41:25Z</time>
      </trkpt>
      <trkpt lat="43.36396" lon="6.00194">
        <ele>541.7578125</ele>
        <time>2013-12-01T15:41:47Z</time>
      </trkpt>
      <trkpt lat="43.36388" lon="6.00198">
        <ele>540.6796875</ele>
        <time>2013-12-01T15:42:18Z</time>
      </trkpt>
      <trkpt lat="43.36389" lon="6.00194">
        <ele>541.07421875</ele>
        <time>2013-12-01T15:42:40Z</time>
      </trkpt>
      <trkpt lat="43.36392" lon="6.00193">
        <ele>541.4140625</ele>
        <time>2013-12-01T15:42:57Z</time>
      </trkpt>
      <trkpt lat="43.36392" lon="6.00193">
        <ele>541.47265625</ele>
        <time>2013-12-01T15:43:21Z</time>
      </trkpt>
      <trkpt lat="43.36392" lon="6.00194">
        <ele>541.41015625</ele>
        <time>2013-12-01T15:43:27Z</time>
      </trkpt>
      <trkpt lat="43.36395" lon="6.00196">
        <ele>541.55859375</ele>
        <time>2013-12-01T15:43:29Z</time>
      </trkpt>
      <trkpt lat="43.36396" lon="6.00199">
        <ele>541.41796875</ele>
        <time>2013-12-01T15:43:30Z</time>
      </trkpt>
      <trkpt lat="43.36396" lon="6.00213">
        <ele>540.4453125</ele>
        <time>2013-12-01T15:43:36Z</time>
      </trkpt>
      <trkpt lat="43.36397" lon="6.00222">
        <ele>539.91796875</ele>
        <time>2013-12-01T15:43:49Z</time>
      </trkpt>
      <trkpt lat="43.36398" lon="6.00225">
        <ele>539.64453125</ele>
        <time>2013-12-01T15:44:04Z</time>
      </trkpt>
      <trkpt lat="43.36397" lon="6.00253">
        <ele>537.12109375</ele>
        <time>2013-12-01T15:44:12Z</time>
      </trkpt>
      <trkpt lat="43.36397" lon="6.00255">
        <ele>536.92578125</ele>
        <time>2013-12-01T15:44:13Z</time>
      </trkpt>
      <trkpt lat="43.36398" lon="6.00265">
        <ele>536.109375</ele>
        <time>2013-12-01T15:44:17Z</time>
      </trkpt>
      <trkpt lat="43.36393" lon="6.00283">
        <ele>533.92578125</ele>
        <time>2013-12-01T15:44:21Z</time>
      </trkpt>
      <trkpt lat="43.36392" lon="6.00293">
        <ele>533.06640625</ele>
        <time>2013-12-01T15:44:23Z</time>
      </trkpt>
      <trkpt lat="43.36388" lon="6.00324">
        <ele>532.33984375</ele>
        <time>2013-12-01T15:44:28Z</time>
      </trkpt>
      <trkpt lat="43.36385" lon="6.00358">
        <ele>532.1484375</ele>
        <time>2013-12-01T15:44:35Z</time>
      </trkpt>
      <trkpt lat="43.3637" lon="6.0038">
        <ele>531.33203125</ele>
        <time>2013-12-01T15:44:46Z</time>
      </trkpt>
      <trkpt lat="43.36363" lon="6.00388">
        <ele>530.37890625</ele>
        <time>2013-12-01T15:44:59Z</time>
      </trkpt>
      <trkpt lat="43.3636" lon="6.00393">
        <ele>529.86328125</ele>
        <time>2013-12-01T15:45:06Z</time>
      </trkpt>
      <trkpt lat="43.36349" lon="6.00406">
        <ele>528.38671875</ele>
        <time>2013-12-01T15:45:12Z</time>
      </trkpt>
      <trkpt lat="43.36345" lon="6.00408">
        <ele>527.734375</ele>
        <time>2013-12-01T15:45:14Z</time>
      </trkpt>
      <trkpt lat="43.36341" lon="6.00422">
        <ele>527.0625</ele>
        <time>2013-12-01T15:45:19Z</time>
      </trkpt>
      <trkpt lat="43.36342" lon="6.00432">
        <ele>527.23046875</ele>
        <time>2013-12-01T15:45:21Z</time>
      </trkpt>
      <trkpt lat="43.36344" lon="6.0045">
        <ele>528.04296875</ele>
        <time>2013-12-01T15:45:24Z</time>
      </trkpt>
      <trkpt lat="43.36336" lon="6.0048">
        <ele>525.96875</ele>
        <time>2013-12-01T15:45:29Z</time>
      </trkpt>
      <trkpt lat="43.36335" lon="6.0049">
        <ele>525.6640625</ele>
        <time>2013-12-01T15:45:32Z</time>
      </trkpt>
      <trkpt lat="43.36329" lon="6.00507">
        <ele>524.59765625</ele>
        <time>2013-12-01T15:45:41Z</time>
      </trkpt>
      <trkpt lat="43.36328" lon="6.00513">
        <ele>524.72265625</ele>
        <time>2013-12-01T15:45:49Z</time>
      </trkpt>
      <trkpt lat="43.36323" lon="6.00526">
        <ele>524.5</ele>
        <time>2013-12-01T15:45:54Z</time>
      </trkpt>
      <trkpt lat="43.3631" lon="6.00557">
        <ele>522.92578125</ele>
        <time>2013-12-01T15:46:03Z</time>
      </trkpt>
      <trkpt lat="43.36309" lon="6.00561">
        <ele>522.60546875</ele>
        <time>2013-12-01T15:46:04Z</time>
      </trkpt>
      <trkpt lat="43.36293" lon="6.00585">
        <ele>519.125</ele>
        <time>2013-12-01T15:46:10Z</time>
      </trkpt>
      <trkpt lat="43.36283" lon="6.00595">
        <ele>516.875</ele>
        <time>2013-12-01T15:46:13Z</time>
      </trkpt>
      <trkpt lat="43.36266" lon="6.00618">
        <ele>514.16015625</ele>
        <time>2013-12-01T15:46:19Z</time>
      </trkpt>
      <trkpt lat="43.3626" lon="6.00626">
        <ele>512.625</ele>
        <time>2013-12-01T15:46:21Z</time>
      </trkpt>
      <trkpt lat="43.36233" lon="6.00635">
        <ele>505.4921875</ele>
        <time>2013-12-01T15:46:30Z</time>
      </trkpt>
      <trkpt lat="43.36211" lon="6.00647">
        <ele>501.5546875</ele>
        <time>2013-12-01T15:46:40Z</time>
      </trkpt>
      <trkpt lat="43.36209" lon="6.00651">
        <ele>501.09375</ele>
        <time>2013-12-01T15:46:42Z</time>
      </trkpt>
      <trkpt lat="43.36209" lon="6.00655">
        <ele>500.91796875</ele>
        <time>2013-12-01T15:46:43Z</time>
      </trkpt>
      <trkpt lat="43.36209" lon="6.00659">
        <ele>500.80859375</ele>
        <time>2013-12-01T15:46:44Z</time>
      </trkpt>
      <trkpt lat="43.36208" lon="6.00663">
        <ele>500.6953125</ele>
        <time>2013-12-01T15:46:45Z</time>
      </trkpt>
      <trkpt lat="43.36208" lon="6.00666">
        <ele>500.66796875</ele>
        <time>2013-12-01T15:46:46Z</time>
      </trkpt>
      <trkpt lat="43.36202" lon="6.00688">
        <ele>499.13671875</ele>
        <time>2013-12-01T15:46:52Z</time>
      </trkpt>
      <trkpt lat="43.362" lon="6.00701">
        <ele>497.9375</ele>
        <time>2013-12-01T15:46:54Z</time>
      </trkpt>
      <trkpt lat="43.362" lon="6.00707">
        <ele>497.33203125</ele>
        <time>2013-12-01T15:46:55Z</time>
      </trkpt>
      <trkpt lat="43.36198" lon="6.00713">
        <ele>496.4375</ele>
        <time>2013-12-01T15:46:56Z</time>
      </trkpt>
      <trkpt lat="43.36197" lon="6.00719">
        <ele>495.80078125</ele>
        <time>2013-12-01T15:46:57Z</time>
      </trkpt>
      <trkpt lat="43.36196" lon="6.00725">
        <ele>495.4609375</ele>
        <time>2013-12-01T15:46:58Z</time>
      </trkpt>
      <trkpt lat="43.36196" lon="6.00731">
        <ele>494.96875</ele>
        <time>2013-12-01T15:46:59Z</time>
      </trkpt>
      <trkpt lat="43.36195" lon="6.00744">
        <ele>494.19140625</ele>
        <time>2013-12-01T15:47:01Z</time>
      </trkpt>
      <trkpt lat="43.36193" lon="6.00765">
        <ele>493.43359375</ele>
        <time>2013-12-01T15:47:05Z</time>
      </trkpt>
      <trkpt lat="43.3619" lon="6.00768">
        <ele>492.7109375</ele>
        <time>2013-12-01T15:47:06Z</time>
      </trkpt>
      <trkpt lat="43.36186" lon="6.00771">
        <ele>492.13671875</ele>
        <time>2013-12-01T15:47:07Z</time>
      </trkpt>
      <trkpt lat="43.36184" lon="6.00773">
        <ele>491.63671875</ele>
        <time>2013-12-01T15:47:08Z</time>
      </trkpt>
      <trkpt lat="43.36181" lon="6.00776">
        <ele>491.1796875</ele>
        <time>2013-12-01T15:47:09Z</time>
      </trkpt>
      <trkpt lat="43.3618" lon="6.0078">
        <ele>490.84765625</ele>
        <time>2013-12-01T15:47:10Z</time>
      </trkpt>
      <trkpt lat="43.3618" lon="6.00783">
        <ele>490.734375</ele>
        <time>2013-12-01T15:47:11Z</time>
      </trkpt>
      <trkpt lat="43.3618" lon="6.00786">
        <ele>490.7578125</ele>
        <time>2013-12-01T15:47:12Z</time>
      </trkpt>
      <trkpt lat="43.3618" lon="6.0079">
        <ele>490.69921875</ele>
        <time>2013-12-01T15:47:13Z</time>
      </trkpt>
      <trkpt lat="43.36179" lon="6.00794">
        <ele>490.44921875</ele>
        <time>2013-12-01T15:47:14Z</time>
      </trkpt>
      <trkpt lat="43.36179" lon="6.00797">
        <ele>490.296875</ele>
        <time>2013-12-01T15:47:15Z</time>
      </trkpt>
      <trkpt lat="43.36179" lon="6.008">
        <ele>490.3984375</ele>
        <time>2013-12-01T15:47:16Z</time>
      </trkpt>
      <trkpt lat="43.36184" lon="6.00803">
        <ele>491.421875</ele>
        <time>2013-12-01T15:47:18Z</time>
      </trkpt>
      <trkpt lat="43.36188" lon="6.00803">
        <ele>492.21875</ele>
        <time>2013-12-01T15:47:19Z</time>
      </trkpt>
      <trkpt lat="43.36192" lon="6.00803">
        <ele>493.046875</ele>
        <time>2013-12-01T15:47:20Z</time>
      </trkpt>
      <trkpt lat="43.36195" lon="6.00804">
        <ele>493.90234375</ele>
        <time>2013-12-01T15:47:21Z</time>
      </trkpt>
      <trkpt lat="43.36198" lon="6.00819">
        <ele>494.140625</ele>
        <time>2013-12-01T15:47:25Z</time>
      </trkpt>
      <trkpt lat="43.36196" lon="6.00822">
        <ele>493.49609375</ele>
        <time>2013-12-01T15:47:26Z</time>
      </trkpt>
      <trkpt lat="43.36194" lon="6.00825">
        <ele>492.75</ele>
        <time>2013-12-01T15:47:27Z</time>
      </trkpt>
      <trkpt lat="43.36178" lon="6.00863">
        <ele>486.15234375</ele>
        <time>2013-12-01T15:47:36Z</time>
      </trkpt>
      <trkpt lat="43.36175" lon="6.00888">
        <ele>481.84765625</ele>
        <time>2013-12-01T15:47:41Z</time>
      </trkpt>
      <trkpt lat="43.36173" lon="6.00894">
        <ele>480.73828125</ele>
        <time>2013-12-01T15:47:42Z</time>
      </trkpt>
      <trkpt lat="43.3617" lon="6.00905">
        <ele>478.47265625</ele>
        <time>2013-12-01T15:47:44Z</time>
      </trkpt>
      <trkpt lat="43.36166" lon="6.00925">
        <ele>476.65625</ele>
        <time>2013-12-01T15:47:48Z</time>
      </trkpt>
      <trkpt lat="43.36166" lon="6.00936">
        <ele>476.2265625</ele>
        <time>2013-12-01T15:47:50Z</time>
      </trkpt>
      <trkpt lat="43.36168" lon="6.00941">
        <ele>476.2109375</ele>
        <time>2013-12-01T15:47:51Z</time>
      </trkpt>
      <trkpt lat="43.36171" lon="6.00945">
        <ele>476.37109375</ele>
        <time>2013-12-01T15:47:52Z</time>
      </trkpt>
      <trkpt lat="43.36174" lon="6.00949">
        <ele>476.4609375</ele>
        <time>2013-12-01T15:47:53Z</time>
      </trkpt>
      <trkpt lat="43.36175" lon="6.00954">
        <ele>476.50390625</ele>
        <time>2013-12-01T15:47:54Z</time>
      </trkpt>
      <trkpt lat="43.36176" lon="6.00959">
        <ele>476.52734375</ele>
        <time>2013-12-01T15:47:55Z</time>
      </trkpt>
      <trkpt lat="43.36176" lon="6.00964">
        <ele>476.5390625</ele>
        <time>2013-12-01T15:47:56Z</time>
      </trkpt>
      <trkpt lat="43.36177" lon="6.00969">
        <ele>476.484375</ele>
        <time>2013-12-01T15:47:57Z</time>
      </trkpt>
      <trkpt lat="43.36178" lon="6.00973">
        <ele>476.37109375</ele>
        <time>2013-12-01T15:47:58Z</time>
      </trkpt>
      <trkpt lat="43.36179" lon="6.00977">
        <ele>476.23046875</ele>
        <time>2013-12-01T15:47:59Z</time>
      </trkpt>
      <trkpt lat="43.3618" lon="6.00982">
        <ele>475.98046875</ele>
        <time>2013-12-01T15:48:00Z</time>
      </trkpt>
      <trkpt lat="43.36182" lon="6.00986">
        <ele>475.63671875</ele>
        <time>2013-12-01T15:48:01Z</time>
      </trkpt>
      <trkpt lat="43.36185" lon="6.00989">
        <ele>475.1953125</ele>
        <time>2013-12-01T15:48:02Z</time>
      </trkpt>
      <trkpt lat="43.36188" lon="6.00991">
        <ele>474.68359375</ele>
        <time>2013-12-01T15:48:03Z</time>
      </trkpt>
      <trkpt lat="43.3619" lon="6.00994">
        <ele>474.19140625</ele>
        <time>2013-12-01T15:48:04Z</time>
      </trkpt>
      <trkpt lat="43.36193" lon="6.00997">
        <ele>474.3515625</ele>
        <time>2013-12-01T15:48:05Z</time>
      </trkpt>
      <trkpt lat="43.36194" lon="6.01001">
        <ele>474.7890625</ele>
        <time>2013-12-01T15:48:06Z</time>
      </trkpt>
      <trkpt lat="43.36195" lon="6.01006">
        <ele>475.03125</ele>
        <time>2013-12-01T15:48:07Z</time>
      </trkpt>
      <trkpt lat="43.36197" lon="6.0101">
        <ele>475.23828125</ele>
        <time>2013-12-01T15:48:08Z</time>
      </trkpt>
      <trkpt lat="43.36197" lon="6.01014">
        <ele>475.3671875</ele>
        <time>2013-12-01T15:48:09Z</time>
      </trkpt>
      <trkpt lat="43.36198" lon="6.01019">
        <ele>475.2734375</ele>
        <time>2013-12-01T15:48:10Z</time>
      </trkpt>
      <trkpt lat="43.36198" lon="6.01024">
        <ele>475.1171875</ele>
        <time>2013-12-01T15:48:11Z</time>
      </trkpt>
      <trkpt lat="43.36198" lon="6.01029">
        <ele>474.78125</ele>
        <time>2013-12-01T15:48:12Z</time>
      </trkpt>
      <trkpt lat="43.36198" lon="6.01035">
        <ele>474.32421875</ele>
        <time>2013-12-01T15:48:13Z</time>
      </trkpt>
      <trkpt lat="43.36204" lon="6.01081">
        <ele>471.51953125</ele>
        <time>2013-12-01T15:48:22Z</time>
      </trkpt>
      <trkpt lat="43.36205" lon="6.01087">
        <ele>471.0703125</ele>
        <time>2013-12-01T15:48:23Z</time>
      </trkpt>
      <trkpt lat="43.36208" lon="6.01099">
        <ele>470.16796875</ele>
        <time>2013-12-01T15:48:25Z</time>
      </trkpt>
      <trkpt lat="43.3621" lon="6.01106">
        <ele>469.7890625</ele>
        <time>2013-12-01T15:48:26Z</time>
      </trkpt>
      <trkpt lat="43.36213" lon="6.01111">
        <ele>469.53515625</ele>
        <time>2013-12-01T15:48:27Z</time>
      </trkpt>
      <trkpt lat="43.36215" lon="6.01116">
        <ele>469.203125</ele>
        <time>2013-12-01T15:48:28Z</time>
      </trkpt>
      <trkpt lat="43.36217" lon="6.0112">
        <ele>468.828125</ele>
        <time>2013-12-01T15:48:29Z</time>
      </trkpt>
      <trkpt lat="43.36219" lon="6.01124">
        <ele>468.46875</ele>
        <time>2013-12-01T15:48:30Z</time>
      </trkpt>
      <trkpt lat="43.36221" lon="6.01127">
        <ele>468.29296875</ele>
        <time>2013-12-01T15:48:31Z</time>
      </trkpt>
      <trkpt lat="43.36223" lon="6.01129">
        <ele>468.22265625</ele>
        <time>2013-12-01T15:48:32Z</time>
      </trkpt>
      <trkpt lat="43.36225" lon="6.0113">
        <ele>468.20703125</ele>
        <time>2013-12-01T15:48:33Z</time>
      </trkpt>
      <trkpt lat="43.36227" lon="6.01132">
        <ele>468.15234375</ele>
        <time>2013-12-01T15:48:34Z</time>
      </trkpt>
      <trkpt lat="43.3623" lon="6.01133">
        <ele>468.203125</ele>
        <time>2013-12-01T15:48:35Z</time>
      </trkpt>
      <trkpt lat="43.36233" lon="6.01134">
        <ele>468.4140625</ele>
        <time>2013-12-01T15:48:36Z</time>
      </trkpt>
      <trkpt lat="43.36235" lon="6.01135">
        <ele>468.60546875</ele>
        <time>2013-12-01T15:48:37Z</time>
      </trkpt>
      <trkpt lat="43.36238" lon="6.01137">
        <ele>468.58984375</ele>
        <time>2013-12-01T15:48:38Z</time>
      </trkpt>
      <trkpt lat="43.3624" lon="6.01141">
        <ele>468.23046875</ele>
        <time>2013-12-01T15:48:39Z</time>
      </trkpt>
      <trkpt lat="43.3624" lon="6.01146">
        <ele>467.63671875</ele>
        <time>2013-12-01T15:48:40Z</time>
      </trkpt>
      <trkpt lat="43.3624" lon="6.01151">
        <ele>466.90234375</ele>
        <time>2013-12-01T15:48:41Z</time>
      </trkpt>
      <trkpt lat="43.3624" lon="6.01157">
        <ele>466.18359375</ele>
        <time>2013-12-01T15:48:42Z</time>
      </trkpt>
      <trkpt lat="43.36241" lon="6.01161">
        <ele>465.56640625</ele>
        <time>2013-12-01T15:48:43Z</time>
      </trkpt>
      <trkpt lat="43.36241" lon="6.01166">
        <ele>465.96484375</ele>
        <time>2013-12-01T15:48:44Z</time>
      </trkpt>
      <trkpt lat="43.36241" lon="6.01171">
        <ele>466.43359375</ele>
        <time>2013-12-01T15:48:45Z</time>
      </trkpt>
      <trkpt lat="43.36242" lon="6.01176">
        <ele>467.01171875</ele>
        <time>2013-12-01T15:48:46Z</time>
      </trkpt>
      <trkpt lat="43.36244" lon="6.0118">
        <ele>467.6328125</ele>
        <time>2013-12-01T15:48:47Z</time>
      </trkpt>
      <trkpt lat="43.36246" lon="6.01185">
        <ele>468.3671875</ele>
        <time>2013-12-01T15:48:48Z</time>
      </trkpt>
      <trkpt lat="43.36247" lon="6.0119">
        <ele>469.1015625</ele>
        <time>2013-12-01T15:48:49Z</time>
      </trkpt>
      <trkpt lat="43.36246" lon="6.01195">
        <ele>469.78125</ele>
        <time>2013-12-01T15:48:50Z</time>
      </trkpt>
      <trkpt lat="43.36243" lon="6.01198">
        <ele>470.0234375</ele>
        <time>2013-12-01T15:48:51Z</time>
      </trkpt>
      <trkpt lat="43.36241" lon="6.01202">
        <ele>470.21484375</ele>
        <time>2013-12-01T15:48:52Z</time>
      </trkpt>
      <trkpt lat="43.36239" lon="6.01206">
        <ele>470.4921875</ele>
        <time>2013-12-01T15:48:53Z</time>
      </trkpt>
      <trkpt lat="43.36237" lon="6.01209">
        <ele>470.67578125</ele>
        <time>2013-12-01T15:48:54Z</time>
      </trkpt>
      <trkpt lat="43.36235" lon="6.01213">
        <ele>470.73046875</ele>
        <time>2013-12-01T15:48:55Z</time>
      </trkpt>
      <trkpt lat="43.36233" lon="6.01215">
        <ele>470.67578125</ele>
        <time>2013-12-01T15:48:56Z</time>
      </trkpt>
      <trkpt lat="43.36231" lon="6.01218">
        <ele>470.734375</ele>
        <time>2013-12-01T15:48:57Z</time>
      </trkpt>
      <trkpt lat="43.36229" lon="6.01222">
        <ele>470.88671875</ele>
        <time>2013-12-01T15:48:58Z</time>
      </trkpt>
      <trkpt lat="43.36215" lon="6.01257">
        <ele>472.375</ele>
        <time>2013-12-01T15:49:08Z</time>
      </trkpt>
      <trkpt lat="43.36207" lon="6.01277">
        <ele>471.7109375</ele>
        <time>2013-12-01T15:49:13Z</time>
      </trkpt>
      <trkpt lat="43.36199" lon="6.01298">
        <ele>470.54296875</ele>
        <time>2013-12-01T15:49:17Z</time>
      </trkpt>
      <trkpt lat="43.36198" lon="6.01303">
        <ele>470.4375</ele>
        <time>2013-12-01T15:49:18Z</time>
      </trkpt>
      <trkpt lat="43.36192" lon="6.01326">
        <ele>469.24609375</ele>
        <time>2013-12-01T15:49:22Z</time>
      </trkpt>
      <trkpt lat="43.36191" lon="6.01332">
        <ele>469.27734375</ele>
        <time>2013-12-01T15:49:23Z</time>
      </trkpt>
      <trkpt lat="43.3619" lon="6.01337">
        <ele>469.3515625</ele>
        <time>2013-12-01T15:49:24Z</time>
      </trkpt>
      <trkpt lat="43.36188" lon="6.01354">
        <ele>469.5703125</ele>
        <time>2013-12-01T15:49:27Z</time>
      </trkpt>
      <trkpt lat="43.36185" lon="6.0137">
        <ele>469.62109375</ele>
        <time>2013-12-01T15:49:30Z</time>
      </trkpt>
      <trkpt lat="43.36182" lon="6.01379">
        <ele>468.8828125</ele>
        <time>2013-12-01T15:49:32Z</time>
      </trkpt>
      <trkpt lat="43.36175" lon="6.01386">
        <ele>466.00390625</ele>
        <time>2013-12-01T15:49:40Z</time>
      </trkpt>
      <trkpt lat="43.36172" lon="6.01402">
        <ele>465.5546875</ele>
        <time>2013-12-01T15:49:51Z</time>
      </trkpt>
      <trkpt lat="43.36172" lon="6.01406">
        <ele>465.91015625</ele>
        <time>2013-12-01T15:49:53Z</time>
      </trkpt>
      <trkpt lat="43.36172" lon="6.01408">
        <ele>466.14453125</ele>
        <time>2013-12-01T15:49:54Z</time>
      </trkpt>
      <trkpt lat="43.36172" lon="6.01411">
        <ele>466.37109375</ele>
        <time>2013-12-01T15:49:55Z</time>
      </trkpt>
      <trkpt lat="43.36171" lon="6.01414">
        <ele>466.421875</ele>
        <time>2013-12-01T15:49:56Z</time>
      </trkpt>
      <trkpt lat="43.36171" lon="6.01417">
        <ele>466.41796875</ele>
        <time>2013-12-01T15:49:57Z</time>
      </trkpt>
      <trkpt lat="43.3617" lon="6.0142">
        <ele>466.19921875</ele>
        <time>2013-12-01T15:49:58Z</time>
      </trkpt>
      <trkpt lat="43.36168" lon="6.01423">
        <ele>465.7265625</ele>
        <time>2013-12-01T15:49:59Z</time>
      </trkpt>
      <trkpt lat="43.36167" lon="6.01426">
        <ele>465.2265625</ele>
        <time>2013-12-01T15:50:00Z</time>
      </trkpt>
      <trkpt lat="43.36165" lon="6.01429">
        <ele>464.609375</ele>
        <time>2013-12-01T15:50:01Z</time>
      </trkpt>
      <trkpt lat="43.36163" lon="6.01431">
        <ele>463.828125</ele>
        <time>2013-12-01T15:50:02Z</time>
      </trkpt>
      <trkpt lat="43.3616" lon="6.01434">
        <ele>463.38671875</ele>
        <time>2013-12-01T15:50:03Z</time>
      </trkpt>
      <trkpt lat="43.36158" lon="6.01436">
        <ele>462.84375</ele>
        <time>2013-12-01T15:50:04Z</time>
      </trkpt>
      <trkpt lat="43.36155" lon="6.01439">
        <ele>462.1640625</ele>
        <time>2013-12-01T15:50:05Z</time>
      </trkpt>
      <trkpt lat="43.36152" lon="6.01441">
        <ele>461.5703125</ele>
        <time>2013-12-01T15:50:06Z</time>
      </trkpt>
      <trkpt lat="43.36149" lon="6.01443">
        <ele>461.01171875</ele>
        <time>2013-12-01T15:50:07Z</time>
      </trkpt>
      <trkpt lat="43.36146" lon="6.01445">
        <ele>460.19140625</ele>
        <time>2013-12-01T15:50:08Z</time>
      </trkpt>
      <trkpt lat="43.36143" lon="6.01447">
        <ele>459.453125</ele>
        <time>2013-12-01T15:50:09Z</time>
      </trkpt>
      <trkpt lat="43.3614" lon="6.0145">
        <ele>458.69140625</ele>
        <time>2013-12-01T15:50:10Z</time>
      </trkpt>
      <trkpt lat="43.36136" lon="6.01453">
        <ele>457.63671875</ele>
        <time>2013-12-01T15:50:11Z</time>
      </trkpt>
      <trkpt lat="43.36132" lon="6.01457">
        <ele>457.390625</ele>
        <time>2013-12-01T15:50:12Z</time>
      </trkpt>
      <trkpt lat="43.36129" lon="6.01462">
        <ele>457.12109375</ele>
        <time>2013-12-01T15:50:13Z</time>
      </trkpt>
      <trkpt lat="43.36121" lon="6.01471">
        <ele>456.2890625</ele>
        <time>2013-12-01T15:50:15Z</time>
      </trkpt>
      <trkpt lat="43.36117" lon="6.01476">
        <ele>455.8671875</ele>
        <time>2013-12-01T15:50:16Z</time>
      </trkpt>
      <trkpt lat="43.36094" lon="6.015">
        <ele>453.41015625</ele>
        <time>2013-12-01T15:50:22Z</time>
      </trkpt>
      <trkpt lat="43.36083" lon="6.01519">
        <ele>451.72265625</ele>
        <time>2013-12-01T15:50:26Z</time>
      </trkpt>
      <trkpt lat="43.36082" lon="6.01524">
        <ele>451.71484375</ele>
        <time>2013-12-01T15:50:27Z</time>
      </trkpt>
      <trkpt lat="43.36081" lon="6.01529">
        <ele>452.04296875</ele>
        <time>2013-12-01T15:50:28Z</time>
      </trkpt>
      <trkpt lat="43.3608" lon="6.01536">
        <ele>452.3515625</ele>
        <time>2013-12-01T15:50:29Z</time>
      </trkpt>
      <trkpt lat="43.36078" lon="6.01542">
        <ele>452.4921875</ele>
        <time>2013-12-01T15:50:30Z</time>
      </trkpt>
      <trkpt lat="43.36076" lon="6.01549">
        <ele>452.23828125</ele>
        <time>2013-12-01T15:50:31Z</time>
      </trkpt>
      <trkpt lat="43.36073" lon="6.01556">
        <ele>452.2421875</ele>
        <time>2013-12-01T15:50:32Z</time>
      </trkpt>
      <trkpt lat="43.36071" lon="6.01563">
        <ele>452.14453125</ele>
        <time>2013-12-01T15:50:33Z</time>
      </trkpt>
      <trkpt lat="43.36068" lon="6.01569">
        <ele>451.94921875</ele>
        <time>2013-12-01T15:50:34Z</time>
      </trkpt>
      <trkpt lat="43.36065" lon="6.01575">
        <ele>451.4296875</ele>
        <time>2013-12-01T15:50:35Z</time>
      </trkpt>
      <trkpt lat="43.36061" lon="6.01579">
        <ele>450.37890625</ele>
        <time>2013-12-01T15:50:36Z</time>
      </trkpt>
      <trkpt lat="43.36056" lon="6.01581">
        <ele>448.6640625</ele>
        <time>2013-12-01T15:50:37Z</time>
      </trkpt>
      <trkpt lat="43.36051" lon="6.01582">
        <ele>446.953125</ele>
        <time>2013-12-01T15:50:38Z</time>
      </trkpt>
      <trkpt lat="43.36047" lon="6.01581">
        <ele>446.09765625</ele>
        <time>2013-12-01T15:50:39Z</time>
      </trkpt>
      <trkpt lat="43.36043" lon="6.01579">
        <ele>445.3359375</ele>
        <time>2013-12-01T15:50:40Z</time>
      </trkpt>
      <trkpt lat="43.3604" lon="6.01576">
        <ele>444.578125</ele>
        <time>2013-12-01T15:50:41Z</time>
      </trkpt>
      <trkpt lat="43.36036" lon="6.01573">
        <ele>443.875</ele>
        <time>2013-12-01T15:50:42Z</time>
      </trkpt>
      <trkpt lat="43.36032" lon="6.01571">
        <ele>443.32421875</ele>
        <time>2013-12-01T15:50:43Z</time>
      </trkpt>
      <trkpt lat="43.36029" lon="6.01568">
        <ele>442.91796875</ele>
        <time>2013-12-01T15:50:44Z</time>
      </trkpt>
      <trkpt lat="43.36018" lon="6.01565">
        <ele>442.08203125</ele>
        <time>2013-12-01T15:50:48Z</time>
      </trkpt>
      <trkpt lat="43.36007" lon="6.01563">
        <ele>441.6171875</ele>
        <time>2013-12-01T15:50:51Z</time>
      </trkpt>
      <trkpt lat="43.36002" lon="6.01564">
        <ele>441.26953125</ele>
        <time>2013-12-01T15:50:59Z</time>
      </trkpt>
      <trkpt lat="43.35988" lon="6.01573">
        <ele>439.84765625</ele>
        <time>2013-12-01T15:51:15Z</time>
      </trkpt>
      <trkpt lat="43.35986" lon="6.01573">
        <ele>439.84765625</ele>
        <time>2013-12-01T15:51:16Z</time>
      </trkpt>
      <trkpt lat="43.35976" lon="6.01575">
        <ele>439.93359375</ele>
        <time>2013-12-01T15:51:27Z</time>
      </trkpt>
      <trkpt lat="43.35944" lon="6.01565">
        <ele>441.87890625</ele>
        <time>2013-12-01T15:51:41Z</time>
      </trkpt>
      <trkpt lat="43.35928" lon="6.01551">
        <ele>441.57421875</ele>
        <time>2013-12-01T15:51:46Z</time>
      </trkpt>
      <trkpt lat="43.35924" lon="6.01549">
        <ele>441.56640625</ele>
        <time>2013-12-01T15:51:47Z</time>
      </trkpt>
      <trkpt lat="43.35921" lon="6.01548">
        <ele>441.625</ele>
        <time>2013-12-01T15:51:48Z</time>
      </trkpt>
      <trkpt lat="43.35894" lon="6.01546">
        <ele>440.86328125</ele>
        <time>2013-12-01T15:52:00Z</time>
      </trkpt>
      <trkpt lat="43.35885" lon="6.01543">
        <ele>440.26171875</ele>
        <time>2013-12-01T15:52:02Z</time>
      </trkpt>
      <trkpt lat="43.3588" lon="6.01543">
        <ele>440.1484375</ele>
        <time>2013-12-01T15:52:03Z</time>
      </trkpt>
      <trkpt lat="43.35875" lon="6.01543">
        <ele>440.12109375</ele>
        <time>2013-12-01T15:52:04Z</time>
      </trkpt>
      <trkpt lat="43.35869" lon="6.01544">
        <ele>440.18359375</ele>
        <time>2013-12-01T15:52:05Z</time>
      </trkpt>
      <trkpt lat="43.35864" lon="6.01545">
        <ele>440.3359375</ele>
        <time>2013-12-01T15:52:06Z</time>
      </trkpt>
      <trkpt lat="43.35859" lon="6.01547">
        <ele>440.5859375</ele>
        <time>2013-12-01T15:52:07Z</time>
      </trkpt>
      <trkpt lat="43.35855" lon="6.01549">
        <ele>440.625</ele>
        <time>2013-12-01T15:52:08Z</time>
      </trkpt>
      <trkpt lat="43.35798" lon="6.01567">
        <ele>438.27734375</ele>
        <time>2013-12-01T15:52:22Z</time>
      </trkpt>
      <trkpt lat="43.35785" lon="6.01573">
        <ele>437.21484375</ele>
        <time>2013-12-01T15:52:26Z</time>
      </trkpt>
      <trkpt lat="43.35781" lon="6.01572">
        <ele>436.33984375</ele>
        <time>2013-12-01T15:52:35Z</time>
      </trkpt>
      <trkpt lat="43.35779" lon="6.0157">
        <ele>435.88671875</ele>
        <time>2013-12-01T15:52:46Z</time>
      </trkpt>
      <trkpt lat="43.35777" lon="6.01569">
        <ele>435.3515625</ele>
        <time>2013-12-01T15:52:47Z</time>
      </trkpt>
      <trkpt lat="43.35774" lon="6.01568">
        <ele>434.8515625</ele>
        <time>2013-12-01T15:52:48Z</time>
      </trkpt>
      <trkpt lat="43.3577" lon="6.01568">
        <ele>434.59765625</ele>
        <time>2013-12-01T15:52:49Z</time>
      </trkpt>
      <trkpt lat="43.35766" lon="6.01569">
        <ele>434.4296875</ele>
        <time>2013-12-01T15:52:50Z</time>
      </trkpt>
      <trkpt lat="43.35761" lon="6.01571">
        <ele>434.328125</ele>
        <time>2013-12-01T15:52:51Z</time>
      </trkpt>
      <trkpt lat="43.35755" lon="6.01573">
        <ele>434.203125</ele>
        <time>2013-12-01T15:52:52Z</time>
      </trkpt>
      <trkpt lat="43.35749" lon="6.01575">
        <ele>433.95703125</ele>
        <time>2013-12-01T15:52:53Z</time>
      </trkpt>
      <trkpt lat="43.35743" lon="6.01576">
        <ele>433.734375</ele>
        <time>2013-12-01T15:52:54Z</time>
      </trkpt>
      <trkpt lat="43.35737" lon="6.01576">
        <ele>433.4921875</ele>
        <time>2013-12-01T15:52:55Z</time>
      </trkpt>
      <trkpt lat="43.35731" lon="6.01575">
        <ele>433.24609375</ele>
        <time>2013-12-01T15:52:56Z</time>
      </trkpt>
      <trkpt lat="43.35722" lon="6.01574">
        <ele>432.80859375</ele>
        <time>2013-12-01T15:52:58Z</time>
      </trkpt>
      <trkpt lat="43.35718" lon="6.01573">
        <ele>432.70703125</ele>
        <time>2013-12-01T15:52:59Z</time>
      </trkpt>
      <trkpt lat="43.35696" lon="6.01556">
        <ele>432.46484375</ele>
        <time>2013-12-01T15:53:09Z</time>
      </trkpt>
      <trkpt lat="43.35685" lon="6.01553">
        <ele>432.52734375</ele>
        <time>2013-12-01T15:53:12Z</time>
      </trkpt>
      <trkpt lat="43.35681" lon="6.01553">
        <ele>432.72265625</ele>
        <time>2013-12-01T15:53:13Z</time>
      </trkpt>
      <trkpt lat="43.35672" lon="6.01554">
        <ele>433.24609375</ele>
        <time>2013-12-01T15:53:15Z</time>
      </trkpt>
      <trkpt lat="43.35653" lon="6.01555">
        <ele>433.4296875</ele>
        <time>2013-12-01T15:53:19Z</time>
      </trkpt>
      <trkpt lat="43.35611" lon="6.01565">
        <ele>433.32421875</ele>
        <time>2013-12-01T15:53:30Z</time>
      </trkpt>
      <trkpt lat="43.35579" lon="6.01569">
        <ele>431.4609375</ele>
        <time>2013-12-01T15:53:39Z</time>
      </trkpt>
      <trkpt lat="43.35567" lon="6.01564">
        <ele>431.0078125</ele>
        <time>2013-12-01T15:53:43Z</time>
      </trkpt>
      <trkpt lat="43.35563" lon="6.01561">
        <ele>430.65625</ele>
        <time>2013-12-01T15:53:44Z</time>
      </trkpt>
      <trkpt lat="43.3556" lon="6.01558">
        <ele>430.234375</ele>
        <time>2013-12-01T15:53:45Z</time>
      </trkpt>
      <trkpt lat="43.35541" lon="6.01539">
        <ele>426.97265625</ele>
        <time>2013-12-01T15:53:50Z</time>
      </trkpt>
      <trkpt lat="43.35536" lon="6.01535">
        <ele>426.265625</ele>
        <time>2013-12-01T15:53:51Z</time>
      </trkpt>
      <trkpt lat="43.35529" lon="6.01533">
        <ele>425.86328125</ele>
        <time>2013-12-01T15:53:52Z</time>
      </trkpt>
      <trkpt lat="43.35522" lon="6.01533">
        <ele>425.9609375</ele>
        <time>2013-12-01T15:53:53Z</time>
      </trkpt>
      <trkpt lat="43.35516" lon="6.01534">
        <ele>426.46484375</ele>
        <time>2013-12-01T15:53:54Z</time>
      </trkpt>
      <trkpt lat="43.35511" lon="6.01537">
        <ele>427.08203125</ele>
        <time>2013-12-01T15:53:55Z</time>
      </trkpt>
      <trkpt lat="43.35505" lon="6.01539">
        <ele>427.6640625</ele>
        <time>2013-12-01T15:53:56Z</time>
      </trkpt>
      <trkpt lat="43.355" lon="6.0154">
        <ele>427.9765625</ele>
        <time>2013-12-01T15:53:57Z</time>
      </trkpt>
      <trkpt lat="43.35495" lon="6.01539">
        <ele>427.8828125</ele>
        <time>2013-12-01T15:53:58Z</time>
      </trkpt>
      <trkpt lat="43.3549" lon="6.01537">
        <ele>427.57421875</ele>
        <time>2013-12-01T15:53:59Z</time>
      </trkpt>
      <trkpt lat="43.35481" lon="6.01536">
        <ele>427.15234375</ele>
        <time>2013-12-01T15:54:01Z</time>
      </trkpt>
      <trkpt lat="43.35457" lon="6.01539">
        <ele>426.23046875</ele>
        <time>2013-12-01T15:54:06Z</time>
      </trkpt>
      <trkpt lat="43.35453" lon="6.01542">
        <ele>426.1640625</ele>
        <time>2013-12-01T15:54:07Z</time>
      </trkpt>
      <trkpt lat="43.35439" lon="6.01554">
        <ele>426.125</ele>
        <time>2013-12-01T15:54:13Z</time>
      </trkpt>
      <trkpt lat="43.35437" lon="6.01554">
        <ele>425.91015625</ele>
        <time>2013-12-01T15:54:14Z</time>
      </trkpt>
      <trkpt lat="43.35435" lon="6.01554">
        <ele>425.6796875</ele>
        <time>2013-12-01T15:54:15Z</time>
      </trkpt>
      <trkpt lat="43.35432" lon="6.01555">
        <ele>425.4921875</ele>
        <time>2013-12-01T15:54:16Z</time>
      </trkpt>
      <trkpt lat="43.3543" lon="6.01554">
        <ele>425.19140625</ele>
        <time>2013-12-01T15:54:17Z</time>
      </trkpt>
      <trkpt lat="43.35428" lon="6.01553">
        <ele>424.921875</ele>
        <time>2013-12-01T15:54:18Z</time>
      </trkpt>
      <trkpt lat="43.35427" lon="6.01553">
        <ele>424.66796875</ele>
        <time>2013-12-01T15:54:19Z</time>
      </trkpt>
      <trkpt lat="43.35424" lon="6.01552">
        <ele>424.3203125</ele>
        <time>2013-12-01T15:54:20Z</time>
      </trkpt>
      <trkpt lat="43.35421" lon="6.01553">
        <ele>424.08203125</ele>
        <time>2013-12-01T15:54:21Z</time>
      </trkpt>
      <trkpt lat="43.35419" lon="6.01554">
        <ele>423.984375</ele>
        <time>2013-12-01T15:54:22Z</time>
      </trkpt>
      <trkpt lat="43.35417" lon="6.01556">
        <ele>423.91796875</ele>
        <time>2013-12-01T15:54:23Z</time>
      </trkpt>
      <trkpt lat="43.35397" lon="6.01592">
        <ele>425.68359375</ele>
        <time>2013-12-01T15:54:35Z</time>
      </trkpt>
      <trkpt lat="43.35381" lon="6.01618">
        <ele>427.44140625</ele>
        <time>2013-12-01T15:54:44Z</time>
      </trkpt>
      <trkpt lat="43.35378" lon="6.01618">
        <ele>427.28515625</ele>
        <time>2013-12-01T15:54:45Z</time>
      </trkpt>
      <trkpt lat="43.35375" lon="6.01618">
        <ele>427.17578125</ele>
        <time>2013-12-01T15:54:46Z</time>
      </trkpt>
      <trkpt lat="43.35374" lon="6.01618">
        <ele>427.08203125</ele>
        <time>2013-12-01T15:54:47Z</time>
      </trkpt>
      <trkpt lat="43.3537" lon="6.01618">
        <ele>426.9296875</ele>
        <time>2013-12-01T15:54:48Z</time>
      </trkpt>
      <trkpt lat="43.35367" lon="6.01618">
        <ele>426.7421875</ele>
        <time>2013-12-01T15:54:49Z</time>
      </trkpt>
      <trkpt lat="43.35363" lon="6.01618">
        <ele>426.55859375</ele>
        <time>2013-12-01T15:54:50Z</time>
      </trkpt>
      <trkpt lat="43.35328" lon="6.01607">
        <ele>423.3828125</ele>
        <time>2013-12-01T15:55:03Z</time>
      </trkpt>
      <trkpt lat="43.35303" lon="6.01596">
        <ele>422.26171875</ele>
        <time>2013-12-01T15:55:13Z</time>
      </trkpt>
      <trkpt lat="43.35288" lon="6.01601">
        <ele>423.1171875</ele>
        <time>2013-12-01T15:55:19Z</time>
      </trkpt>
      <trkpt lat="43.35287" lon="6.01603">
        <ele>423.4609375</ele>
        <time>2013-12-01T15:55:20Z</time>
      </trkpt>
      <trkpt lat="43.35287" lon="6.01605">
        <ele>423.8125</ele>
        <time>2013-12-01T15:55:21Z</time>
      </trkpt>
      <trkpt lat="43.35285" lon="6.01607">
        <ele>424.1875</ele>
        <time>2013-12-01T15:55:22Z</time>
      </trkpt>
      <trkpt lat="43.35283" lon="6.01608">
        <ele>424.578125</ele>
        <time>2013-12-01T15:55:23Z</time>
      </trkpt>
      <trkpt lat="43.35281" lon="6.01609">
        <ele>424.76953125</ele>
        <time>2013-12-01T15:55:24Z</time>
      </trkpt>
      <trkpt lat="43.35278" lon="6.01609">
        <ele>424.6640625</ele>
        <time>2013-12-01T15:55:25Z</time>
      </trkpt>
      <trkpt lat="43.35275" lon="6.01607">
        <ele>424.2734375</ele>
        <time>2013-12-01T15:55:26Z</time>
      </trkpt>
      <trkpt lat="43.35273" lon="6.01605">
        <ele>423.80859375</ele>
        <time>2013-12-01T15:55:27Z</time>
      </trkpt>
      <trkpt lat="43.35271" lon="6.01603">
        <ele>423.47265625</ele>
        <time>2013-12-01T15:55:28Z</time>
      </trkpt>
      <trkpt lat="43.3526" lon="6.01599">
        <ele>422.67578125</ele>
        <time>2013-12-01T15:55:32Z</time>
      </trkpt>
      <trkpt lat="43.35221" lon="6.01604">
        <ele>424.515625</ele>
        <time>2013-12-01T15:55:46Z</time>
      </trkpt>
      <trkpt lat="43.35184" lon="6.01612">
        <ele>424.7265625</ele>
        <time>2013-12-01T15:56:00Z</time>
      </trkpt>
      <trkpt lat="43.35175" lon="6.01628">
        <ele>427.11328125</ele>
        <time>2013-12-01T15:56:05Z</time>
      </trkpt>
      <trkpt lat="43.35171" lon="6.01632">
        <ele>427.55078125</ele>
        <time>2013-12-01T15:56:06Z</time>
      </trkpt>
      <trkpt lat="43.35166" lon="6.01635">
        <ele>427.55078125</ele>
        <time>2013-12-01T15:56:07Z</time>
      </trkpt>
      <trkpt lat="43.35161" lon="6.01635">
        <ele>427.328125</ele>
        <time>2013-12-01T15:56:08Z</time>
      </trkpt>
      <trkpt lat="43.35157" lon="6.01635">
        <ele>427.08984375</ele>
        <time>2013-12-01T15:56:09Z</time>
      </trkpt>
      <trkpt lat="43.35152" lon="6.01634">
        <ele>426.703125</ele>
        <time>2013-12-01T15:56:10Z</time>
      </trkpt>
      <trkpt lat="43.35149" lon="6.01632">
        <ele>426.1953125</ele>
        <time>2013-12-01T15:56:11Z</time>
      </trkpt>
      <trkpt lat="43.35145" lon="6.01631">
        <ele>425.71875</ele>
        <time>2013-12-01T15:56:12Z</time>
      </trkpt>
      <trkpt lat="43.35109" lon="6.01626">
        <ele>424.21875</ele>
        <time>2013-12-01T15:56:20Z</time>
      </trkpt>
      <trkpt lat="43.35097" lon="6.01627">
        <ele>423.42578125</ele>
        <time>2013-12-01T15:56:22Z</time>
      </trkpt>
      <trkpt lat="43.35091" lon="6.01626">
        <ele>422.83984375</ele>
        <time>2013-12-01T15:56:23Z</time>
      </trkpt>
      <trkpt lat="43.35085" lon="6.01625">
        <ele>422.0546875</ele>
        <time>2013-12-01T15:56:24Z</time>
      </trkpt>
      <trkpt lat="43.35079" lon="6.01623">
        <ele>421.19140625</ele>
        <time>2013-12-01T15:56:25Z</time>
      </trkpt>
      <trkpt lat="43.35073" lon="6.01622">
        <ele>420.359375</ele>
        <time>2013-12-01T15:56:26Z</time>
      </trkpt>
      <trkpt lat="43.3506" lon="6.01621">
        <ele>418.9609375</ele>
        <time>2013-12-01T15:56:28Z</time>
      </trkpt>
      <trkpt lat="43.35045" lon="6.01622">
        <ele>418.37890625</ele>
        <time>2013-12-01T15:56:30Z</time>
      </trkpt>
      <trkpt lat="43.35022" lon="6.01623">
        <ele>418.203125</ele>
        <time>2013-12-01T15:56:33Z</time>
      </trkpt>
      <trkpt lat="43.35013" lon="6.01622">
        <ele>417.796875</ele>
        <time>2013-12-01T15:56:34Z</time>
      </trkpt>
      <trkpt lat="43.35005" lon="6.0162">
        <ele>416.94140625</ele>
        <time>2013-12-01T15:56:35Z</time>
      </trkpt>
      <trkpt lat="43.34997" lon="6.01617">
        <ele>415.765625</ele>
        <time>2013-12-01T15:56:36Z</time>
      </trkpt>
      <trkpt lat="43.34991" lon="6.01612">
        <ele>414.49609375</ele>
        <time>2013-12-01T15:56:37Z</time>
      </trkpt>
      <trkpt lat="43.34985" lon="6.01606">
        <ele>412.953125</ele>
        <time>2013-12-01T15:56:38Z</time>
      </trkpt>
      <trkpt lat="43.34979" lon="6.01599">
        <ele>411.27734375</ele>
        <time>2013-12-01T15:56:39Z</time>
      </trkpt>
      <trkpt lat="43.34972" lon="6.01594">
        <ele>409.8046875</ele>
        <time>2013-12-01T15:56:40Z</time>
      </trkpt>
      <trkpt lat="43.34965" lon="6.01591">
        <ele>408.71875</ele>
        <time>2013-12-01T15:56:41Z</time>
      </trkpt>
      <trkpt lat="43.34958" lon="6.0159">
        <ele>408.18359375</ele>
        <time>2013-12-01T15:56:42Z</time>
      </trkpt>
      <trkpt lat="43.34951" lon="6.01589">
        <ele>407.90234375</ele>
        <time>2013-12-01T15:56:43Z</time>
      </trkpt>
      <trkpt lat="43.34944" lon="6.01589">
        <ele>407.828125</ele>
        <time>2013-12-01T15:56:44Z</time>
      </trkpt>
      <trkpt lat="43.34937" lon="6.01588">
        <ele>407.75</ele>
        <time>2013-12-01T15:56:45Z</time>
      </trkpt>
      <trkpt lat="43.34932" lon="6.01586">
        <ele>407.22265625</ele>
        <time>2013-12-01T15:56:46Z</time>
      </trkpt>
      <trkpt lat="43.34926" lon="6.01582">
        <ele>406.48046875</ele>
        <time>2013-12-01T15:56:47Z</time>
      </trkpt>
      <trkpt lat="43.34921" lon="6.01577">
        <ele>405.66015625</ele>
        <time>2013-12-01T15:56:48Z</time>
      </trkpt>
      <trkpt lat="43.34915" lon="6.01573">
        <ele>405.328125</ele>
        <time>2013-12-01T15:56:49Z</time>
      </trkpt>
      <trkpt lat="43.34882" lon="6.01553">
        <ele>402.15625</ele>
        <time>2013-12-01T15:56:54Z</time>
      </trkpt>
      <trkpt lat="43.34861" lon="6.01541">
        <ele>400.4375</ele>
        <time>2013-12-01T15:56:57Z</time>
      </trkpt>
      <trkpt lat="43.34855" lon="6.01539">
        <ele>399.91796875</ele>
        <time>2013-12-01T15:56:58Z</time>
      </trkpt>
      <trkpt lat="43.3485" lon="6.01538">
        <ele>399.51171875</ele>
        <time>2013-12-01T15:56:59Z</time>
      </trkpt>
      <trkpt lat="43.34845" lon="6.0154">
        <ele>399.24609375</ele>
        <time>2013-12-01T15:57:00Z</time>
      </trkpt>
      <trkpt lat="43.3484" lon="6.01541">
        <ele>398.98046875</ele>
        <time>2013-12-01T15:57:01Z</time>
      </trkpt>
      <trkpt lat="43.34835" lon="6.0154">
        <ele>398.59765625</ele>
        <time>2013-12-01T15:57:02Z</time>
      </trkpt>
      <trkpt lat="43.3483" lon="6.01539">
        <ele>398.15625</ele>
        <time>2013-12-01T15:57:03Z</time>
      </trkpt>
      <trkpt lat="43.34825" lon="6.01537">
        <ele>397.734375</ele>
        <time>2013-12-01T15:57:04Z</time>
      </trkpt>
      <trkpt lat="43.34821" lon="6.01535">
        <ele>397.37109375</ele>
        <time>2013-12-01T15:57:05Z</time>
      </trkpt>
      <trkpt lat="43.34817" lon="6.01533">
        <ele>397.07421875</ele>
        <time>2013-12-01T15:57:06Z</time>
      </trkpt>
      <trkpt lat="43.34813" lon="6.01532">
        <ele>396.81640625</ele>
        <time>2013-12-01T15:57:07Z</time>
      </trkpt>
      <trkpt lat="43.3481" lon="6.0153">
        <ele>396.59765625</ele>
        <time>2013-12-01T15:57:08Z</time>
      </trkpt>
      <trkpt lat="43.34787" lon="6.01536">
        <ele>395.90625</ele>
        <time>2013-12-01T15:57:19Z</time>
      </trkpt>
      <trkpt lat="43.3477" lon="6.01544">
        <ele>395.39453125</ele>
        <time>2013-12-01T15:57:25Z</time>
      </trkpt>
      <trkpt lat="43.34767" lon="6.01544">
        <ele>395.2265625</ele>
        <time>2013-12-01T15:57:26Z</time>
      </trkpt>
      <trkpt lat="43.34764" lon="6.01545">
        <ele>395.04296875</ele>
        <time>2013-12-01T15:57:27Z</time>
      </trkpt>
      <trkpt lat="43.34761" lon="6.01545">
        <ele>394.83203125</ele>
        <time>2013-12-01T15:57:28Z</time>
      </trkpt>
      <trkpt lat="43.34757" lon="6.01544">
        <ele>394.625</ele>
        <time>2013-12-01T15:57:29Z</time>
      </trkpt>
      <trkpt lat="43.34755" lon="6.01544">
        <ele>394.4296875</ele>
        <time>2013-12-01T15:57:30Z</time>
      </trkpt>
      <trkpt lat="43.34751" lon="6.01543">
        <ele>394.2265625</ele>
        <time>2013-12-01T15:57:31Z</time>
      </trkpt>
      <trkpt lat="43.34748" lon="6.01542">
        <ele>394.015625</ele>
        <time>2013-12-01T15:57:32Z</time>
      </trkpt>
      <trkpt lat="43.34716" lon="6.01519">
        <ele>393.07421875</ele>
        <time>2013-12-01T15:57:42Z</time>
      </trkpt>
      <trkpt lat="43.34707" lon="6.01514">
        <ele>392.984375</ele>
        <time>2013-12-01T15:57:44Z</time>
      </trkpt>
      <trkpt lat="43.34686" lon="6.01504">
        <ele>392.5703125</ele>
        <time>2013-12-01T15:57:49Z</time>
      </trkpt>
      <trkpt lat="43.34678" lon="6.01499">
        <ele>392.60546875</ele>
        <time>2013-12-01T15:57:51Z</time>
      </trkpt>
      <trkpt lat="43.34674" lon="6.01497">
        <ele>392.515625</ele>
        <time>2013-12-01T15:57:52Z</time>
      </trkpt>
      <trkpt lat="43.3467" lon="6.01495">
        <ele>392.33984375</ele>
        <time>2013-12-01T15:57:53Z</time>
      </trkpt>
      <trkpt lat="43.34665" lon="6.01495">
        <ele>392.06640625</ele>
        <time>2013-12-01T15:57:54Z</time>
      </trkpt>
      <trkpt lat="43.34661" lon="6.01494">
        <ele>391.79296875</ele>
        <time>2013-12-01T15:57:55Z</time>
      </trkpt>
      <trkpt lat="43.34656" lon="6.01492">
        <ele>391.55859375</ele>
        <time>2013-12-01T15:57:56Z</time>
      </trkpt>
      <trkpt lat="43.34651" lon="6.01491">
        <ele>391.3359375</ele>
        <time>2013-12-01T15:57:57Z</time>
      </trkpt>
      <trkpt lat="43.34647" lon="6.01488">
        <ele>391.1796875</ele>
        <time>2013-12-01T15:57:58Z</time>
      </trkpt>
      <trkpt lat="43.34643" lon="6.01485">
        <ele>391.0859375</ele>
        <time>2013-12-01T15:57:59Z</time>
      </trkpt>
      <trkpt lat="43.34639" lon="6.01482">
        <ele>391.03125</ele>
        <time>2013-12-01T15:58:00Z</time>
      </trkpt>
      <trkpt lat="43.34635" lon="6.01479">
        <ele>391</ele>
        <time>2013-12-01T15:58:01Z</time>
      </trkpt>
      <trkpt lat="43.34631" lon="6.01475">
        <ele>391.0078125</ele>
        <time>2013-12-01T15:58:02Z</time>
      </trkpt>
      <trkpt lat="43.34628" lon="6.0147">
        <ele>391.09765625</ele>
        <time>2013-12-01T15:58:03Z</time>
      </trkpt>
      <trkpt lat="43.34609" lon="6.01446">
        <ele>391.50390625</ele>
        <time>2013-12-01T15:58:10Z</time>
      </trkpt>
      <trkpt lat="43.34576" lon="6.01438">
        <ele>388.77734375</ele>
        <time>2013-12-01T15:58:18Z</time>
      </trkpt>
      <trkpt lat="43.34562" lon="6.01423">
        <ele>388.9921875</ele>
        <time>2013-12-01T15:58:23Z</time>
      </trkpt>
      <trkpt lat="43.34559" lon="6.01406">
        <ele>390.2421875</ele>
        <time>2013-12-01T15:58:28Z</time>
      </trkpt>
      <trkpt lat="43.34558" lon="6.01402">
        <ele>390.48046875</ele>
        <time>2013-12-01T15:58:29Z</time>
      </trkpt>
      <trkpt lat="43.34557" lon="6.01399">
        <ele>390.6484375</ele>
        <time>2013-12-01T15:58:30Z</time>
      </trkpt>
      <trkpt lat="43.34556" lon="6.01397">
        <ele>390.8046875</ele>
        <time>2013-12-01T15:58:31Z</time>
      </trkpt>
      <trkpt lat="43.34555" lon="6.01394">
        <ele>391.01171875</ele>
        <time>2013-12-01T15:58:32Z</time>
      </trkpt>
      <trkpt lat="43.34553" lon="6.0139">
        <ele>391.25390625</ele>
        <time>2013-12-01T15:58:34Z</time>
      </trkpt>
      <trkpt lat="43.34551" lon="6.01389">
        <ele>391.2421875</ele>
        <time>2013-12-01T15:58:35Z</time>
      </trkpt>
      <trkpt lat="43.3455" lon="6.01388">
        <ele>391.2421875</ele>
        <time>2013-12-01T15:58:36Z</time>
      </trkpt>
      <trkpt lat="43.34548" lon="6.01387">
        <ele>391.28125</ele>
        <time>2013-12-01T15:58:37Z</time>
      </trkpt>
      <trkpt lat="43.34547" lon="6.01386">
        <ele>391.34375</ele>
        <time>2013-12-01T15:58:38Z</time>
      </trkpt>
      <trkpt lat="43.34544" lon="6.01386">
        <ele>391.09765625</ele>
        <time>2013-12-01T15:58:50Z</time>
      </trkpt>
      <trkpt lat="43.34538" lon="6.01385">
        <ele>390.7421875</ele>
        <time>2013-12-01T15:59:00Z</time>
      </trkpt>
      <trkpt lat="43.34537" lon="6.01385">
        <ele>390.640625</ele>
        <time>2013-12-01T15:59:01Z</time>
      </trkpt>
      <trkpt lat="43.34533" lon="6.01387">
        <ele>390.2265625</ele>
        <time>2013-12-01T15:59:07Z</time>
      </trkpt>
      <trkpt lat="43.34516" lon="6.01396">
        <ele>388.94140625</ele>
        <time>2013-12-01T15:59:19Z</time>
      </trkpt>
      <trkpt lat="43.34514" lon="6.01396">
        <ele>388.921875</ele>
        <time>2013-12-01T15:59:20Z</time>
      </trkpt>
      <trkpt lat="43.34512" lon="6.01396">
        <ele>388.8828125</ele>
        <time>2013-12-01T15:59:21Z</time>
      </trkpt>
      <trkpt lat="43.3451" lon="6.01396">
        <ele>388.81640625</ele>
        <time>2013-12-01T15:59:22Z</time>
      </trkpt>
      <trkpt lat="43.34508" lon="6.01396">
        <ele>388.7734375</ele>
        <time>2013-12-01T15:59:23Z</time>
      </trkpt>
      <trkpt lat="43.34506" lon="6.01397">
        <ele>388.7421875</ele>
        <time>2013-12-01T15:59:24Z</time>
      </trkpt>
      <trkpt lat="43.34484" lon="6.01395">
        <ele>388.80859375</ele>
        <time>2013-12-01T15:59:37Z</time>
      </trkpt>
      <trkpt lat="43.34476" lon="6.01389">
        <ele>389.37890625</ele>
        <time>2013-12-01T15:59:43Z</time>
      </trkpt>
      <trkpt lat="43.34475" lon="6.01388">
        <ele>389.49609375</ele>
        <time>2013-12-01T15:59:44Z</time>
      </trkpt>
      <trkpt lat="43.34471" lon="6.01385">
        <ele>389.8203125</ele>
        <time>2013-12-01T15:59:47Z</time>
      </trkpt>
      <trkpt lat="43.34469" lon="6.01384">
        <ele>389.9609375</ele>
        <time>2013-12-01T15:59:48Z</time>
      </trkpt>
      <trkpt lat="43.34465" lon="6.01382">
        <ele>390.5390625</ele>
        <time>2013-12-01T15:59:51Z</time>
      </trkpt>
      <trkpt lat="43.34464" lon="6.01381">
        <ele>390.83203125</ele>
        <time>2013-12-01T15:59:52Z</time>
      </trkpt>
      <trkpt lat="43.34463" lon="6.0138">
        <ele>391.03125</ele>
        <time>2013-12-01T15:59:53Z</time>
      </trkpt>
      <trkpt lat="43.34456" lon="6.01375">
        <ele>392.12890625</ele>
        <time>2013-12-01T16:00:05Z</time>
      </trkpt>
      <trkpt lat="43.34457" lon="6.01369">
        <ele>393.33203125</ele>
        <time>2013-12-01T16:00:47Z</time>
      </trkpt>
      <trkpt lat="43.34456" lon="6.01373">
        <ele>392.63671875</ele>
        <time>2013-12-01T16:01:02Z</time>
      </trkpt>
      <trkpt lat="43.34457" lon="6.01375">
        <ele>392.26953125</ele>
        <time>2013-12-01T16:01:38Z</time>
      </trkpt>
      <trkpt lat="43.34456" lon="6.01378">
        <ele>391.6875</ele>
        <time>2013-12-01T16:02:16Z</time>
      </trkpt>
      <trkpt lat="43.34446" lon="6.01366">
        <ele>394.14453125</ele>
        <time>2013-12-01T16:02:34Z</time>
      </trkpt>
      <trkpt lat="43.34428" lon="6.01345">
        <ele>396.9765625</ele>
        <time>2013-12-01T16:02:46Z</time>
      </trkpt>
      <trkpt lat="43.34417" lon="6.01331">
        <ele>398.6171875</ele>
        <time>2013-12-01T16:02:54Z</time>
      </trkpt>
      <trkpt lat="43.34416" lon="6.0133">
        <ele>398.71875</ele>
        <time>2013-12-01T16:02:55Z</time>
      </trkpt>
      <trkpt lat="43.34415" lon="6.01329">
        <ele>398.875</ele>
        <time>2013-12-01T16:02:56Z</time>
      </trkpt>
      <trkpt lat="43.34414" lon="6.01327">
        <ele>399.1484375</ele>
        <time>2013-12-01T16:02:57Z</time>
      </trkpt>
      <trkpt lat="43.34413" lon="6.01326">
        <ele>399.4609375</ele>
        <time>2013-12-01T16:02:58Z</time>
      </trkpt>
      <trkpt lat="43.34412" lon="6.01324">
        <ele>399.71484375</ele>
        <time>2013-12-01T16:02:59Z</time>
      </trkpt>
      <trkpt lat="43.3441" lon="6.01323">
        <ele>399.8984375</ele>
        <time>2013-12-01T16:03:00Z</time>
      </trkpt>
      <trkpt lat="43.34409" lon="6.01322">
        <ele>400.06640625</ele>
        <time>2013-12-01T16:03:01Z</time>
      </trkpt>
      <trkpt lat="43.34408" lon="6.01321">
        <ele>400.265625</ele>
        <time>2013-12-01T16:03:02Z</time>
      </trkpt>
      <trkpt lat="43.34407" lon="6.0132">
        <ele>400.44140625</ele>
        <time>2013-12-01T16:03:03Z</time>
      </trkpt>
      <trkpt lat="43.34406" lon="6.01319">
        <ele>400.53515625</ele>
        <time>2013-12-01T16:03:04Z</time>
      </trkpt>
      <trkpt lat="43.34405" lon="6.01318">
        <ele>400.6640625</ele>
        <time>2013-12-01T16:03:05Z</time>
      </trkpt>
      <trkpt lat="43.34404" lon="6.01317">
        <ele>400.85546875</ele>
        <time>2013-12-01T16:03:06Z</time>
      </trkpt>
      <trkpt lat="43.34403" lon="6.01316">
        <ele>401.0703125</ele>
        <time>2013-12-01T16:03:07Z</time>
      </trkpt>
      <trkpt lat="43.34402" lon="6.01315">
        <ele>401.234375</ele>
        <time>2013-12-01T16:03:08Z</time>
      </trkpt>
      <trkpt lat="43.34401" lon="6.01313">
        <ele>401.375</ele>
        <time>2013-12-01T16:03:09Z</time>
      </trkpt>
      <trkpt lat="43.34398" lon="6.01312">
        <ele>401.5390625</ele>
        <time>2013-12-01T16:03:11Z</time>
      </trkpt>
      <trkpt lat="43.34396" lon="6.01311">
        <ele>401.60546875</ele>
        <time>2013-12-01T16:03:12Z</time>
      </trkpt>
      <trkpt lat="43.34395" lon="6.0131">
        <ele>401.75</ele>
        <time>2013-12-01T16:03:13Z</time>
      </trkpt>
      <trkpt lat="43.34393" lon="6.01309">
        <ele>401.875</ele>
        <time>2013-12-01T16:03:14Z</time>
      </trkpt>
      <trkpt lat="43.34391" lon="6.01307">
        <ele>401.953125</ele>
        <time>2013-12-01T16:03:15Z</time>
      </trkpt>
      <trkpt lat="43.34389" lon="6.01306">
        <ele>402.00390625</ele>
        <time>2013-12-01T16:03:16Z</time>
      </trkpt>
      <trkpt lat="43.34387" lon="6.01306">
        <ele>401.98828125</ele>
        <time>2013-12-01T16:03:17Z</time>
      </trkpt>
      <trkpt lat="43.34385" lon="6.01305">
        <ele>401.90625</ele>
        <time>2013-12-01T16:03:18Z</time>
      </trkpt>
      <trkpt lat="43.34351" lon="6.0128">
        <ele>402.7578125</ele>
        <time>2013-12-01T16:03:32Z</time>
      </trkpt>
      <trkpt lat="43.3432" lon="6.01246">
        <ele>405.14453125</ele>
        <time>2013-12-01T16:03:45Z</time>
      </trkpt>
      <trkpt lat="43.34299" lon="6.01214">
        <ele>406.8046875</ele>
        <time>2013-12-01T16:03:59Z</time>
      </trkpt>
      <trkpt lat="43.34297" lon="6.0121">
        <ele>407.1015625</ele>
        <time>2013-12-01T16:04:01Z</time>
      </trkpt>
      <trkpt lat="43.34297" lon="6.01208">
        <ele>407.27734375</ele>
        <time>2013-12-01T16:04:02Z</time>
      </trkpt>
      <trkpt lat="43.34297" lon="6.01206">
        <ele>407.453125</ele>
        <time>2013-12-01T16:04:03Z</time>
      </trkpt>
      <trkpt lat="43.34293" lon="6.01178">
        <ele>409.953125</ele>
        <time>2013-12-01T16:04:15Z</time>
      </trkpt>
      <trkpt lat="43.34293" lon="6.01176">
        <ele>410.11328125</ele>
        <time>2013-12-01T16:04:16Z</time>
      </trkpt>
      <trkpt lat="43.34293" lon="6.01173">
        <ele>410.31640625</ele>
        <time>2013-12-01T16:04:17Z</time>
      </trkpt>
      <trkpt lat="43.34292" lon="6.01171">
        <ele>410.45703125</ele>
        <time>2013-12-01T16:04:18Z</time>
      </trkpt>
      <trkpt lat="43.34292" lon="6.01168">
        <ele>410.640625</ele>
        <time>2013-12-01T16:04:19Z</time>
      </trkpt>
      <trkpt lat="43.34292" lon="6.01166">
        <ele>410.87890625</ele>
        <time>2013-12-01T16:04:20Z</time>
      </trkpt>
      <trkpt lat="43.34292" lon="6.01126">
        <ele>413.47265625</ele>
        <time>2013-12-01T16:04:36Z</time>
      </trkpt>
      <trkpt lat="43.34297" lon="6.01078">
        <ele>415.87890625</ele>
        <time>2013-12-01T16:04:51Z</time>
      </trkpt>
      <trkpt lat="43.34284" lon="6.01037">
        <ele>414.13671875</ele>
        <time>2013-12-01T16:05:04Z</time>
      </trkpt>
      <trkpt lat="43.34264" lon="6.00985">
        <ele>413.23046875</ele>
        <time>2013-12-01T16:05:20Z</time>
      </trkpt>
      <trkpt lat="43.3426" lon="6.00936">
        <ele>413.625</ele>
        <time>2013-12-01T16:05:32Z</time>
      </trkpt>
      <trkpt lat="43.34259" lon="6.00926">
        <ele>413.76171875</ele>
        <time>2013-12-01T16:05:34Z</time>
      </trkpt>
      <trkpt lat="43.3426" lon="6.00914">
        <ele>414.01953125</ele>
        <time>2013-12-01T16:05:36Z</time>
      </trkpt>
      <trkpt lat="43.34256" lon="6.00886">
        <ele>414.5390625</ele>
        <time>2013-12-01T16:05:41Z</time>
      </trkpt>
      <trkpt lat="43.3423" lon="6.00816">
        <ele>412.421875</ele>
        <time>2013-12-01T16:05:55Z</time>
      </trkpt>
      <trkpt lat="43.34228" lon="6.0081">
        <ele>412.234375</ele>
        <time>2013-12-01T16:05:56Z</time>
      </trkpt>
      <trkpt lat="43.34221" lon="6.00786">
        <ele>411.63671875</ele>
        <time>2013-12-01T16:06:00Z</time>
      </trkpt>
      <trkpt lat="43.34217" lon="6.00768">
        <ele>411.5859375</ele>
        <time>2013-12-01T16:06:03Z</time>
      </trkpt>
      <trkpt lat="43.34215" lon="6.00756">
        <ele>411.875</ele>
        <time>2013-12-01T16:06:05Z</time>
      </trkpt>
      <trkpt lat="43.34213" lon="6.0075">
        <ele>411.9453125</ele>
        <time>2013-12-01T16:06:06Z</time>
      </trkpt>
      <trkpt lat="43.34213" lon="6.00744">
        <ele>412.18359375</ele>
        <time>2013-12-01T16:06:07Z</time>
      </trkpt>
      <trkpt lat="43.34212" lon="6.00737">
        <ele>412.4296875</ele>
        <time>2013-12-01T16:06:08Z</time>
      </trkpt>
      <trkpt lat="43.34212" lon="6.00731">
        <ele>412.66796875</ele>
        <time>2013-12-01T16:06:09Z</time>
      </trkpt>
      <trkpt lat="43.34211" lon="6.00724">
        <ele>412.9921875</ele>
        <time>2013-12-01T16:06:10Z</time>
      </trkpt>
      <trkpt lat="43.3421" lon="6.00706">
        <ele>413.51171875</ele>
        <time>2013-12-01T16:06:13Z</time>
      </trkpt>
      <trkpt lat="43.34206" lon="6.00614">
        <ele>415.46875</ele>
        <time>2013-12-01T16:06:30Z</time>
      </trkpt>
      <trkpt lat="43.34213" lon="6.00548">
        <ele>417.33984375</ele>
        <time>2013-12-01T16:06:44Z</time>
      </trkpt>
      <trkpt lat="43.34225" lon="6.00484">
        <ele>416.92578125</ele>
        <time>2013-12-01T16:07:00Z</time>
      </trkpt>
      <trkpt lat="43.34221" lon="6.00441">
        <ele>412.1953125</ele>
        <time>2013-12-01T16:07:10Z</time>
      </trkpt>
      <trkpt lat="43.34214" lon="6.00427">
        <ele>410.671875</ele>
        <time>2013-12-01T16:07:12Z</time>
      </trkpt>
      <trkpt lat="43.3421" lon="6.0042">
        <ele>409.84765625</ele>
        <time>2013-12-01T16:07:13Z</time>
      </trkpt>
      <trkpt lat="43.34205" lon="6.00413">
        <ele>409.0078125</ele>
        <time>2013-12-01T16:07:14Z</time>
      </trkpt>
      <trkpt lat="43.342" lon="6.00407">
        <ele>408.140625</ele>
        <time>2013-12-01T16:07:15Z</time>
      </trkpt>
      <trkpt lat="43.34194" lon="6.00401">
        <ele>407.26171875</ele>
        <time>2013-12-01T16:07:16Z</time>
      </trkpt>
      <trkpt lat="43.3418" lon="6.00389">
        <ele>405.88671875</ele>
        <time>2013-12-01T16:07:18Z</time>
      </trkpt>
      <trkpt lat="43.34173" lon="6.00385">
        <ele>405.31640625</ele>
        <time>2013-12-01T16:07:19Z</time>
      </trkpt>
      <trkpt lat="43.3416" lon="6.00376">
        <ele>403.953125</ele>
        <time>2013-12-01T16:07:21Z</time>
      </trkpt>
      <trkpt lat="43.34154" lon="6.0037">
        <ele>403.0234375</ele>
        <time>2013-12-01T16:07:22Z</time>
      </trkpt>
      <trkpt lat="43.34149" lon="6.00363">
        <ele>402.2421875</ele>
        <time>2013-12-01T16:07:23Z</time>
      </trkpt>
      <trkpt lat="43.34145" lon="6.00356">
        <ele>401.5859375</ele>
        <time>2013-12-01T16:07:24Z</time>
      </trkpt>
      <trkpt lat="43.34142" lon="6.0035">
        <ele>401.0546875</ele>
        <time>2013-12-01T16:07:25Z</time>
      </trkpt>
      <trkpt lat="43.34139" lon="6.00343">
        <ele>400.65234375</ele>
        <time>2013-12-01T16:07:26Z</time>
      </trkpt>
      <trkpt lat="43.34139" lon="6.00337">
        <ele>400.375</ele>
        <time>2013-12-01T16:07:27Z</time>
      </trkpt>
      <trkpt lat="43.34141" lon="6.0033">
        <ele>400.1953125</ele>
        <time>2013-12-01T16:07:28Z</time>
      </trkpt>
      <trkpt lat="43.34144" lon="6.00325">
        <ele>400.01171875</ele>
        <time>2013-12-01T16:07:29Z</time>
      </trkpt>
      <trkpt lat="43.34148" lon="6.00319">
        <ele>399.84765625</ele>
        <time>2013-12-01T16:07:30Z</time>
      </trkpt>
      <trkpt lat="43.34151" lon="6.00312">
        <ele>399.62109375</ele>
        <time>2013-12-01T16:07:31Z</time>
      </trkpt>
      <trkpt lat="43.34152" lon="6.00304">
        <ele>399.26953125</ele>
        <time>2013-12-01T16:07:32Z</time>
      </trkpt>
      <trkpt lat="43.34152" lon="6.00296">
        <ele>399.05078125</ele>
        <time>2013-12-01T16:07:33Z</time>
      </trkpt>
      <trkpt lat="43.3415" lon="6.0029">
        <ele>398.92578125</ele>
        <time>2013-12-01T16:07:34Z</time>
      </trkpt>
      <trkpt lat="43.34148" lon="6.00284">
        <ele>398.76953125</ele>
        <time>2013-12-01T16:07:35Z</time>
      </trkpt>
      <trkpt lat="43.34141" lon="6.00259">
        <ele>397.84765625</ele>
        <time>2013-12-01T16:07:39Z</time>
      </trkpt>
      <trkpt lat="43.34134" lon="6.002">
        <ele>395.5234375</ele>
        <time>2013-12-01T16:07:47Z</time>
      </trkpt>
      <trkpt lat="43.34135" lon="6.00191">
        <ele>394.8828125</ele>
        <time>2013-12-01T16:07:48Z</time>
      </trkpt>
      <trkpt lat="43.34136" lon="6.00181">
        <ele>394.578125</ele>
        <time>2013-12-01T16:07:49Z</time>
      </trkpt>
      <trkpt lat="43.34148" lon="6.00065">
        <ele>391.9609375</ele>
        <time>2013-12-01T16:08:01Z</time>
      </trkpt>
      <trkpt lat="43.34149" lon="6.00018">
        <ele>390.796875</ele>
        <time>2013-12-01T16:08:06Z</time>
      </trkpt>
      <trkpt lat="43.34148" lon="6.00009">
        <ele>390.46875</ele>
        <time>2013-12-01T16:08:07Z</time>
      </trkpt>
      <trkpt lat="43.34145" lon="5.99991">
        <ele>389.828125</ele>
        <time>2013-12-01T16:08:09Z</time>
      </trkpt>
      <trkpt lat="43.34146" lon="5.99983">
        <ele>389.79296875</ele>
        <time>2013-12-01T16:08:10Z</time>
      </trkpt>
      <trkpt lat="43.34147" lon="5.99974">
        <ele>389.76953125</ele>
        <time>2013-12-01T16:08:11Z</time>
      </trkpt>
      <trkpt lat="43.34148" lon="5.99966">
        <ele>389.7578125</ele>
        <time>2013-12-01T16:08:12Z</time>
      </trkpt>
      <trkpt lat="43.34148" lon="5.99957">
        <ele>389.796875</ele>
        <time>2013-12-01T16:08:13Z</time>
      </trkpt>
      <trkpt lat="43.34147" lon="5.99942">
        <ele>389.7421875</ele>
        <time>2013-12-01T16:08:15Z</time>
      </trkpt>
      <trkpt lat="43.34144" lon="5.99933">
        <ele>389.2734375</ele>
        <time>2013-12-01T16:08:16Z</time>
      </trkpt>
      <trkpt lat="43.3414" lon="5.99926">
        <ele>388.70703125</ele>
        <time>2013-12-01T16:08:17Z</time>
      </trkpt>
      <trkpt lat="43.34135" lon="5.99919">
        <ele>388.10546875</ele>
        <time>2013-12-01T16:08:18Z</time>
      </trkpt>
      <trkpt lat="43.3413" lon="5.99912">
        <ele>387.53515625</ele>
        <time>2013-12-01T16:08:19Z</time>
      </trkpt>
      <trkpt lat="43.34127" lon="5.99906">
        <ele>387.0078125</ele>
        <time>2013-12-01T16:08:20Z</time>
      </trkpt>
      <trkpt lat="43.34124" lon="5.99898">
        <ele>386.56640625</ele>
        <time>2013-12-01T16:08:21Z</time>
      </trkpt>
      <trkpt lat="43.34125" lon="5.99889">
        <ele>386.27734375</ele>
        <time>2013-12-01T16:08:22Z</time>
      </trkpt>
      <trkpt lat="43.34127" lon="5.99882">
        <ele>386.20703125</ele>
        <time>2013-12-01T16:08:23Z</time>
      </trkpt>
      <trkpt lat="43.34131" lon="5.99877">
        <ele>386.3359375</ele>
        <time>2013-12-01T16:08:24Z</time>
      </trkpt>
      <trkpt lat="43.34136" lon="5.99875">
        <ele>386.6015625</ele>
        <time>2013-12-01T16:08:25Z</time>
      </trkpt>
      <trkpt lat="43.34141" lon="5.99874">
        <ele>386.90234375</ele>
        <time>2013-12-01T16:08:26Z</time>
      </trkpt>
      <trkpt lat="43.34145" lon="5.99873">
        <ele>387.1796875</ele>
        <time>2013-12-01T16:08:27Z</time>
      </trkpt>
      <trkpt lat="43.34149" lon="5.99871">
        <ele>387.359375</ele>
        <time>2013-12-01T16:08:28Z</time>
      </trkpt>
      <trkpt lat="43.34151" lon="5.99867">
        <ele>387.3515625</ele>
        <time>2013-12-01T16:08:29Z</time>
      </trkpt>
      <trkpt lat="43.34151" lon="5.99861">
        <ele>387.140625</ele>
        <time>2013-12-01T16:08:30Z</time>
      </trkpt>
      <trkpt lat="43.34149" lon="5.99854">
        <ele>386.79296875</ele>
        <time>2013-12-01T16:08:31Z</time>
      </trkpt>
      <trkpt lat="43.34147" lon="5.99847">
        <ele>386.37109375</ele>
        <time>2013-12-01T16:08:32Z</time>
      </trkpt>
      <trkpt lat="43.34139" lon="5.99815">
        <ele>384.66015625</ele>
        <time>2013-12-01T16:08:36Z</time>
      </trkpt>
      <trkpt lat="43.34138" lon="5.99807">
        <ele>384.30078125</ele>
        <time>2013-12-01T16:08:37Z</time>
      </trkpt>
      <trkpt lat="43.34137" lon="5.99799">
        <ele>384.03515625</ele>
        <time>2013-12-01T16:08:38Z</time>
      </trkpt>
      <trkpt lat="43.34136" lon="5.99791">
        <ele>383.9140625</ele>
        <time>2013-12-01T16:08:39Z</time>
      </trkpt>
      <trkpt lat="43.34134" lon="5.99784">
        <ele>383.6875</ele>
        <time>2013-12-01T16:08:40Z</time>
      </trkpt>
      <trkpt lat="43.34131" lon="5.99779">
        <ele>383.33984375</ele>
        <time>2013-12-01T16:08:41Z</time>
      </trkpt>
      <trkpt lat="43.34127" lon="5.99774">
        <ele>382.890625</ele>
        <time>2013-12-01T16:08:42Z</time>
      </trkpt>
      <trkpt lat="43.34123" lon="5.9977">
        <ele>382.515625</ele>
        <time>2013-12-01T16:08:43Z</time>
      </trkpt>
      <trkpt lat="43.34119" lon="5.99766">
        <ele>382.1953125</ele>
        <time>2013-12-01T16:08:44Z</time>
      </trkpt>
      <trkpt lat="43.34115" lon="5.99764">
        <ele>381.87109375</ele>
        <time>2013-12-01T16:08:45Z</time>
      </trkpt>
      <trkpt lat="43.3411" lon="5.9976">
        <ele>381.57421875</ele>
        <time>2013-12-01T16:08:46Z</time>
      </trkpt>
      <trkpt lat="43.34062" lon="5.99716">
        <ele>382.75390625</ele>
        <time>2013-12-01T16:09:00Z</time>
      </trkpt>
      <trkpt lat="43.34038" lon="5.99678">
        <ele>384.03515625</ele>
        <time>2013-12-01T16:09:10Z</time>
      </trkpt>
      <trkpt lat="43.34035" lon="5.99673">
        <ele>384.15234375</ele>
        <time>2013-12-01T16:09:11Z</time>
      </trkpt>
      <trkpt lat="43.34033" lon="5.99668">
        <ele>384.23046875</ele>
        <time>2013-12-01T16:09:12Z</time>
      </trkpt>
      <trkpt lat="43.34013" lon="5.99628">
        <ele>384.2109375</ele>
        <time>2013-12-01T16:09:19Z</time>
      </trkpt>
      <trkpt lat="43.33993" lon="5.99574">
        <ele>383.625</ele>
        <time>2013-12-01T16:09:27Z</time>
      </trkpt>
      <trkpt lat="43.3399" lon="5.99568">
        <ele>383.57421875</ele>
        <time>2013-12-01T16:09:28Z</time>
      </trkpt>
      <trkpt lat="43.33962" lon="5.9947">
        <ele>383.703125</ele>
        <time>2013-12-01T16:09:44Z</time>
      </trkpt>
      <trkpt lat="43.33947" lon="5.99413">
        <ele>382.5703125</ele>
        <time>2013-12-01T16:09:53Z</time>
      </trkpt>
      <trkpt lat="43.33938" lon="5.99337">
        <ele>382.48828125</ele>
        <time>2013-12-01T16:10:04Z</time>
      </trkpt>
      <trkpt lat="43.33939" lon="5.9933">
        <ele>382.578125</ele>
        <time>2013-12-01T16:10:05Z</time>
      </trkpt>
      <trkpt lat="43.3394" lon="5.99323">
        <ele>382.890625</ele>
        <time>2013-12-01T16:10:06Z</time>
      </trkpt>
      <trkpt lat="43.33955" lon="5.99235">
        <ele>389.0234375</ele>
        <time>2013-12-01T16:10:22Z</time>
      </trkpt>
      <trkpt lat="43.33958" lon="5.99166">
        <ele>390.8359375</ele>
        <time>2013-12-01T16:10:35Z</time>
      </trkpt>
      <trkpt lat="43.33959" lon="5.99152">
        <ele>390.8515625</ele>
        <time>2013-12-01T16:10:37Z</time>
      </trkpt>
      <trkpt lat="43.33966" lon="5.99093">
        <ele>388.38671875</ele>
        <time>2013-12-01T16:10:44Z</time>
      </trkpt>
      <trkpt lat="43.33966" lon="5.99083">
        <ele>387.2265625</ele>
        <time>2013-12-01T16:10:45Z</time>
      </trkpt>
      <trkpt lat="43.33965" lon="5.99072">
        <ele>385.8671875</ele>
        <time>2013-12-01T16:10:46Z</time>
      </trkpt>
      <trkpt lat="43.33955" lon="5.99007">
        <ele>377.65234375</ele>
        <time>2013-12-01T16:10:52Z</time>
      </trkpt>
      <trkpt lat="43.33957" lon="5.98904">
        <ele>374.515625</ele>
        <time>2013-12-01T16:11:03Z</time>
      </trkpt>
      <trkpt lat="43.3396" lon="5.98869">
        <ele>374.0234375</ele>
        <time>2013-12-01T16:11:08Z</time>
      </trkpt>
      <trkpt lat="43.33958" lon="5.98862">
        <ele>373.73046875</ele>
        <time>2013-12-01T16:11:09Z</time>
      </trkpt>
      <trkpt lat="43.33956" lon="5.98856">
        <ele>373.4296875</ele>
        <time>2013-12-01T16:11:10Z</time>
      </trkpt>
      <trkpt lat="43.33953" lon="5.9885">
        <ele>373.109375</ele>
        <time>2013-12-01T16:11:11Z</time>
      </trkpt>
      <trkpt lat="43.33949" lon="5.98845">
        <ele>372.80859375</ele>
        <time>2013-12-01T16:11:12Z</time>
      </trkpt>
      <trkpt lat="43.33946" lon="5.98841">
        <ele>372.515625</ele>
        <time>2013-12-01T16:11:13Z</time>
      </trkpt>
      <trkpt lat="43.33942" lon="5.98837">
        <ele>372.25390625</ele>
        <time>2013-12-01T16:11:14Z</time>
      </trkpt>
      <trkpt lat="43.33929" lon="5.9882">
        <ele>372</ele>
        <time>2013-12-01T16:11:18Z</time>
      </trkpt>
      <trkpt lat="43.33927" lon="5.98815">
        <ele>372</ele>
        <time>2013-12-01T16:11:19Z</time>
      </trkpt>
      <trkpt lat="43.33924" lon="5.9881">
        <ele>372</ele>
        <time>2013-12-01T16:11:20Z</time>
      </trkpt>
      <trkpt lat="43.33922" lon="5.98805">
        <ele>372</ele>
        <time>2013-12-01T16:11:21Z</time>
      </trkpt>
      <trkpt lat="43.3392" lon="5.988">
        <ele>371.9375</ele>
        <time>2013-12-01T16:11:22Z</time>
      </trkpt>
      <trkpt lat="43.33918" lon="5.98794">
        <ele>371.73828125</ele>
        <time>2013-12-01T16:11:23Z</time>
      </trkpt>
      <trkpt lat="43.33917" lon="5.98787">
        <ele>371.5234375</ele>
        <time>2013-12-01T16:11:24Z</time>
      </trkpt>
      <trkpt lat="43.33916" lon="5.98781">
        <ele>371.296875</ele>
        <time>2013-12-01T16:11:25Z</time>
      </trkpt>
      <trkpt lat="43.33916" lon="5.98775">
        <ele>371.05078125</ele>
        <time>2013-12-01T16:11:26Z</time>
      </trkpt>
      <trkpt lat="43.33913" lon="5.9874">
        <ele>370.9140625</ele>
        <time>2013-12-01T16:11:31Z</time>
      </trkpt>
      <trkpt lat="43.33911" lon="5.98732">
        <ele>370.8671875</ele>
        <time>2013-12-01T16:11:32Z</time>
      </trkpt>
      <trkpt lat="43.33909" lon="5.98725">
        <ele>370.7890625</ele>
        <time>2013-12-01T16:11:33Z</time>
      </trkpt>
      <trkpt lat="43.33906" lon="5.98717">
        <ele>370.6796875</ele>
        <time>2013-12-01T16:11:34Z</time>
      </trkpt>
      <trkpt lat="43.33902" lon="5.98711">
        <ele>370.53515625</ele>
        <time>2013-12-01T16:11:35Z</time>
      </trkpt>
      <trkpt lat="43.33897" lon="5.98706">
        <ele>370.34375</ele>
        <time>2013-12-01T16:11:36Z</time>
      </trkpt>
      <trkpt lat="43.33891" lon="5.98702">
        <ele>370.1328125</ele>
        <time>2013-12-01T16:11:37Z</time>
      </trkpt>
      <trkpt lat="43.33885" lon="5.98699">
        <ele>369.87890625</ele>
        <time>2013-12-01T16:11:38Z</time>
      </trkpt>
      <trkpt lat="43.33878" lon="5.98696">
        <ele>369.6015625</ele>
        <time>2013-12-01T16:11:39Z</time>
      </trkpt>
      <trkpt lat="43.33866" lon="5.98693">
        <ele>369.16015625</ele>
        <time>2013-12-01T16:11:41Z</time>
      </trkpt>
      <trkpt lat="43.3386" lon="5.98693">
        <ele>368.9296875</ele>
        <time>2013-12-01T16:11:42Z</time>
      </trkpt>
      <trkpt lat="43.33854" lon="5.98694">
        <ele>368.46875</ele>
        <time>2013-12-01T16:11:43Z</time>
      </trkpt>
      <trkpt lat="43.33848" lon="5.98696">
        <ele>367.96484375</ele>
        <time>2013-12-01T16:11:44Z</time>
      </trkpt>
      <trkpt lat="43.33842" lon="5.98699">
        <ele>367.43359375</ele>
        <time>2013-12-01T16:11:45Z</time>
      </trkpt>
      <trkpt lat="43.33836" lon="5.98702">
        <ele>366.875</ele>
        <time>2013-12-01T16:11:46Z</time>
      </trkpt>
      <trkpt lat="43.33796" lon="5.98726">
        <ele>363.47265625</ele>
        <time>2013-12-01T16:11:52Z</time>
      </trkpt>
      <trkpt lat="43.33773" lon="5.9874">
        <ele>362.01953125</ele>
        <time>2013-12-01T16:11:55Z</time>
      </trkpt>
      <trkpt lat="43.33765" lon="5.98743">
        <ele>361.28125</ele>
        <time>2013-12-01T16:11:56Z</time>
      </trkpt>
      <trkpt lat="43.33756" lon="5.98746">
        <ele>360.54296875</ele>
        <time>2013-12-01T16:11:57Z</time>
      </trkpt>
      <trkpt lat="43.33747" lon="5.98748">
        <ele>359.8671875</ele>
        <time>2013-12-01T16:11:58Z</time>
      </trkpt>
      <trkpt lat="43.33737" lon="5.9875">
        <ele>359.47265625</ele>
        <time>2013-12-01T16:11:59Z</time>
      </trkpt>
      <trkpt lat="43.33727" lon="5.9875">
        <ele>359.09375</ele>
        <time>2013-12-01T16:12:00Z</time>
      </trkpt>
      <trkpt lat="43.33717" lon="5.98749">
        <ele>358.64453125</ele>
        <time>2013-12-01T16:12:01Z</time>
      </trkpt>
      <trkpt lat="43.33707" lon="5.98748">
        <ele>357.99609375</ele>
        <time>2013-12-01T16:12:02Z</time>
      </trkpt>
      <trkpt lat="43.3367" lon="5.98742">
        <ele>356.31640625</ele>
        <time>2013-12-01T16:12:06Z</time>
      </trkpt>
      <trkpt lat="43.33645" lon="5.98738">
        <ele>355.359375</ele>
        <time>2013-12-01T16:12:09Z</time>
      </trkpt>
      <trkpt lat="43.33638" lon="5.98735">
        <ele>355.03125</ele>
        <time>2013-12-01T16:12:10Z</time>
      </trkpt>
      <trkpt lat="43.33632" lon="5.98729">
        <ele>354.80859375</ele>
        <time>2013-12-01T16:12:11Z</time>
      </trkpt>
      <trkpt lat="43.33627" lon="5.98722">
        <ele>354.6328125</ele>
        <time>2013-12-01T16:12:12Z</time>
      </trkpt>
      <trkpt lat="43.33623" lon="5.98714">
        <ele>354.65234375</ele>
        <time>2013-12-01T16:12:13Z</time>
      </trkpt>
      <trkpt lat="43.33621" lon="5.98706">
        <ele>354.87109375</ele>
        <time>2013-12-01T16:12:14Z</time>
      </trkpt>
      <trkpt lat="43.33619" lon="5.98697">
        <ele>355.12890625</ele>
        <time>2013-12-01T16:12:15Z</time>
      </trkpt>
      <trkpt lat="43.33618" lon="5.98688">
        <ele>355.30078125</ele>
        <time>2013-12-01T16:12:16Z</time>
      </trkpt>
      <trkpt lat="43.33599" lon="5.98574">
        <ele>356.8515625</ele>
        <time>2013-12-01T16:12:31Z</time>
      </trkpt>
      <trkpt lat="43.3359" lon="5.98516">
        <ele>359.51171875</ele>
        <time>2013-12-01T16:12:40Z</time>
      </trkpt>
      <trkpt lat="43.33566" lon="5.98443">
        <ele>362.4609375</ele>
        <time>2013-12-01T16:12:55Z</time>
      </trkpt>
      <trkpt lat="43.33541" lon="5.98367">
        <ele>362.796875</ele>
        <time>2013-12-01T16:13:08Z</time>
      </trkpt>
      <trkpt lat="43.33492" lon="5.98254">
        <ele>356.19921875</ele>
        <time>2013-12-01T16:13:25Z</time>
      </trkpt>
      <trkpt lat="43.33483" lon="5.98236">
        <ele>355.79296875</ele>
        <time>2013-12-01T16:13:28Z</time>
      </trkpt>
      <trkpt lat="43.33468" lon="5.98205">
        <ele>355.50390625</ele>
        <time>2013-12-01T16:13:34Z</time>
      </trkpt>
      <trkpt lat="43.33466" lon="5.98199">
        <ele>355.70703125</ele>
        <time>2013-12-01T16:13:35Z</time>
      </trkpt>
      <trkpt lat="43.33466" lon="5.98193">
        <ele>355.93359375</ele>
        <time>2013-12-01T16:13:36Z</time>
      </trkpt>
      <trkpt lat="43.33468" lon="5.98187">
        <ele>356.1328125</ele>
        <time>2013-12-01T16:13:37Z</time>
      </trkpt>
      <trkpt lat="43.33471" lon="5.98182">
        <ele>356.3359375</ele>
        <time>2013-12-01T16:13:38Z</time>
      </trkpt>
      <trkpt lat="43.33476" lon="5.98172">
        <ele>356.7578125</ele>
        <time>2013-12-01T16:13:40Z</time>
      </trkpt>
      <trkpt lat="43.33496" lon="5.98143">
        <ele>357.67578125</ele>
        <time>2013-12-01T16:13:47Z</time>
      </trkpt>
      <trkpt lat="43.33543" lon="5.98074">
        <ele>358.6953125</ele>
        <time>2013-12-01T16:14:03Z</time>
      </trkpt>
      <trkpt lat="43.33592" lon="5.98014">
        <ele>360.55859375</ele>
        <time>2013-12-01T16:14:19Z</time>
      </trkpt>
      <trkpt lat="43.3362" lon="5.97974">
        <ele>360.61328125</ele>
        <time>2013-12-01T16:14:30Z</time>
      </trkpt>
      <trkpt lat="43.33668" lon="5.97913">
        <ele>362.234375</ele>
        <time>2013-12-01T16:14:47Z</time>
      </trkpt>
      <trkpt lat="43.337" lon="5.9788">
        <ele>363.015625</ele>
        <time>2013-12-01T16:14:58Z</time>
      </trkpt>
      <trkpt lat="43.33732" lon="5.97846">
        <ele>365.97265625</ele>
        <time>2013-12-01T16:15:10Z</time>
      </trkpt>
      <trkpt lat="43.33759" lon="5.9782">
        <ele>367.7109375</ele>
        <time>2013-12-01T16:15:21Z</time>
      </trkpt>
      <trkpt lat="43.3378" lon="5.97793">
        <ele>368.59765625</ele>
        <time>2013-12-01T16:15:31Z</time>
      </trkpt>
      <trkpt lat="43.3378" lon="5.97789">
        <ele>368.05859375</ele>
        <time>2013-12-01T16:15:32Z</time>
      </trkpt>
      <trkpt lat="43.33778" lon="5.97786">
        <ele>367.51171875</ele>
        <time>2013-12-01T16:15:33Z</time>
      </trkpt>
      <trkpt lat="43.33776" lon="5.97784">
        <ele>366.9453125</ele>
        <time>2013-12-01T16:15:34Z</time>
      </trkpt>
      <trkpt lat="43.33773" lon="5.97782">
        <ele>366.27734375</ele>
        <time>2013-12-01T16:15:35Z</time>
      </trkpt>
      <trkpt lat="43.3377" lon="5.9778">
        <ele>365.58984375</ele>
        <time>2013-12-01T16:15:36Z</time>
      </trkpt>
      <trkpt lat="43.3373" lon="5.97752">
        <ele>360.51171875</ele>
        <time>2013-12-01T16:15:48Z</time>
      </trkpt>
      <trkpt lat="43.33728" lon="5.97747">
        <ele>360.296875</ele>
        <time>2013-12-01T16:15:49Z</time>
      </trkpt>
      <trkpt lat="43.33729" lon="5.97743">
        <ele>360.265625</ele>
        <time>2013-12-01T16:15:50Z</time>
      </trkpt>
      <trkpt lat="43.33731" lon="5.97739">
        <ele>360.27734375</ele>
        <time>2013-12-01T16:15:51Z</time>
      </trkpt>
      <trkpt lat="43.33734" lon="5.97735">
        <ele>360.26953125</ele>
        <time>2013-12-01T16:15:52Z</time>
      </trkpt>
      <trkpt lat="43.33736" lon="5.97733">
        <ele>360.27734375</ele>
        <time>2013-12-01T16:15:53Z</time>
      </trkpt>
      <trkpt lat="43.33739" lon="5.97731">
        <ele>360.28515625</ele>
        <time>2013-12-01T16:15:54Z</time>
      </trkpt>
      <trkpt lat="43.33742" lon="5.9773">
        <ele>360.30078125</ele>
        <time>2013-12-01T16:15:55Z</time>
      </trkpt>
      <trkpt lat="43.33761" lon="5.97719">
        <ele>360.46484375</ele>
        <time>2013-12-01T16:16:07Z</time>
      </trkpt>
      <trkpt lat="43.33762" lon="5.97721">
        <ele>360.52734375</ele>
        <time>2013-12-01T16:16:28Z</time>
      </trkpt>
      <trkpt lat="43.33762" lon="5.97718">
        <ele>360.48828125</ele>
        <time>2013-12-01T16:16:43Z</time>
      </trkpt>
      <trkpt lat="43.3376" lon="5.97719">
        <ele>360.43359375</ele>
        <time>2013-12-01T16:17:10Z</time>
      </trkpt>
      <trkpt lat="43.33759" lon="5.97717">
        <ele>360.390625</ele>
        <time>2013-12-01T16:17:28Z</time>
      </trkpt>
      <trkpt lat="43.33757" lon="5.97716">
        <ele>360.3125</ele>
        <time>2013-12-01T16:17:49Z</time>
      </trkpt>
    </trkseg>
  </trk>
</gpx>